[[{"header":{"parameterUnit":"m.s-1","parameterCategory":1,"la1":30.6,"la2":29.2853,"lo1":-89.7004,"lo2":-87.6739,"dy":0.0162,"dx":0.0183,"nx":112,"ny":82,"refTime":"2023-06-25T00:00:00:Z","depth":0,"parameterNumber":2,"parameterNumberName":"U-component_of_WINDS"},"data":[0.0,0.0,0.0,0.0,0.0,0.0,0.0,0.0,0.0,0.0,0.0,0.0,0.0,0.0,0.0,0.0,0.0,0.0,0.0,0.0,0.0,0.0,0.0,0.0,0.0,0.0,0.0,0.0,0.0,0.0,0.0,0.0,0.0,0.0,0.0,0.0,0.0,0.0,0.0,0.0,0.0,0.0,0.0,0.0,0.0,0.0,0.0,0.0,0.0,0.0,0.0,0.0,0.0,0.0,0.0,0.0,0.0,0.0,0.0,0.0,0.0,0.0,0.0,0.0,0.0,0.0,0.0,0.0,0.0,0.0,0.0,0.0,0.0,0.0,0.0,0.0,0.0,0.0,0.0,0.0,0.0,0.0,0.0,0.0,0.0,0.0,0.0,0.0,0.0,0.0,-3.856,-3.9031,-3.9565,-3.9692,-3.9177,-3.9104,-3.8738,-3.7763,0.0,0.0,0.0,0.0,0.0,0.0,0.0,0.0,0.0,0.0,0.0,0.0,0.0,0.0,0.0,0.0,0.0,0.0,0.0,0.0,0.0,0.0,0.0,0.0,0.0,0.0,0.0,0.0,0.0,0.0,0.0,0.0,0.0,0.0,0.0,0.0,0.0,0.0,0.0,0.0,0.0,0.0,0.0,0.0,0.0,0.0,0.0,0.0,0.0,0.0,0.0,0.0,0.0,0.0,0.0,0.0,0.0,0.0,0.0,0.0,0.0,0.0,0.0,0.0,0.0,0.0,0.0,0.0,0.0,0.0,0.0,0.0,0.0,0.0,0.0,0.0,0.0,0.0,0.0,0.0,0.0,0.0,0.0,0.0,0.0,0.0,0.0,0.0,0.0,0.0,0.0,0.0,0.0,0.0,0.0,0.0,0.0,0.0,0.0,0.0,0.0,0.0,0.0,0.0,-3.8066,-3.9031,-3.9565,-3.9692,-3.9177,-3.9104,-3.8811,-3.8127,0.0,0.0,0.0,0.0,0.0,0.0,0.0,0.0,0.0,0.0,0.0,0.0,0.0,0.0,0.0,0.0,0.0,0.0,0.0,0.0,0.0,0.0,0.0,0.0,0.0,0.0,0.0,0.0,0.0,0.0,0.0,0.0,0.0,0.0,0.0,0.0,0.0,0.0,0.0,0.0,0.0,0.0,0.0,0.0,0.0,0.0,0.0,0.0,0.0,0.0,0.0,0.0,0.0,0.0,0.0,0.0,0.0,0.0,0.0,0.0,0.0,0.0,0.0,0.0,0.0,0.0,0.0,0.0,0.0,0.0,0.0,0.0,0.0,0.0,0.0,0.0,0.0,0.0,0.0,0.0,0.0,0.0,0.0,0.0,0.0,0.0,0.0,0.0,0.0,0.0,0.0,0.0,0.0,0.0,0.0,0.0,0.0,0.0,0.0,0.0,0.0,0.0,0.0,-3.7915,-3.8127,-3.8575,-3.8841,-3.8841,-3.8649,-3.8575,-3.8501,-3.8202,-3.7672,0.0,0.0,0.0,0.0,0.0,0.0,0.0,0.0,0.0,0.0,0.0,0.0,0.0,0.0,0.0,0.0,0.0,0.0,0.0,0.0,0.0,0.0,0.0,0.0,0.0,0.0,0.0,0.0,0.0,0.0,0.0,0.0,0.0,0.0,0.0,0.0,0.0,0.0,0.0,0.0,0.0,0.0,0.0,0.0,0.0,0.0,0.0,0.0,0.0,0.0,0.0,0.0,0.0,0.0,0.0,0.0,0.0,0.0,0.0,0.0,0.0,0.0,0.0,0.0,0.0,0.0,0.0,0.0,0.0,0.0,0.0,0.0,0.0,0.0,0.0,0.0,0.0,0.0,0.0,0.0,0.0,0.0,0.0,0.0,0.0,0.0,0.0,0.0,0.0,0.0,0.0,0.0,0.0,0.0,0.0,0.0,0.0,0.0,0.0,0.0,0.0,0.0,-3.8202,-3.8202,-3.8202,-3.8202,-3.8202,-3.8202,-3.8202,-3.8275,-3.8434,-3.8001,0.0,0.0,0.0,0.0,0.0,0.0,0.0,0.0,0.0,0.0,0.0,0.0,0.0,0.0,0.0,0.0,0.0,0.0,0.0,0.0,0.0,0.0,0.0,0.0,0.0,0.0,0.0,0.0,0.0,0.0,0.0,0.0,0.0,0.0,0.0,0.0,0.0,0.0,0.0,0.0,0.0,0.0,0.0,0.0,0.0,0.0,0.0,0.0,0.0,0.0,0.0,0.0,0.0,0.0,0.0,0.0,0.0,0.0,0.0,0.0,0.0,0.0,0.0,0.0,0.0,0.0,0.0,0.0,0.0,0.0,0.0,0.0,0.0,0.0,0.0,0.0,0.0,0.0,0.0,0.0,0.0,0.0,0.0,0.0,0.0,0.0,0.0,0.0,0.0,0.0,0.0,0.0,0.0,0.0,0.0,0.0,0.0,0.0,0.0,0.0,0.0,0.0,-3.8202,-3.8202,-3.8202,-3.8202,-3.8202,-3.8202,-3.8202,-3.8463,-3.9088,-3.8551,0.0,0.0,0.0,0.0,0.0,0.0,0.0,0.0,0.0,0.0,0.0,0.0,0.0,0.0,0.0,0.0,0.0,0.0,0.0,0.0,0.0,0.0,0.0,0.0,0.0,0.0,0.0,0.0,0.0,0.0,0.0,0.0,0.0,0.0,0.0,0.0,0.0,0.0,0.0,0.0,0.0,0.0,0.0,0.0,0.0,0.0,0.0,0.0,0.0,0.0,0.0,0.0,0.0,0.0,0.0,0.0,0.0,0.0,0.0,0.0,0.0,0.0,0.0,0.0,0.0,0.0,0.0,0.0,0.0,0.0,0.0,0.0,0.0,0.0,0.0,0.0,0.0,0.0,0.0,0.0,0.0,0.0,0.0,0.0,0.0,0.0,0.0,0.0,0.0,0.0,0.0,0.0,0.0,0.0,0.0,0.0,0.0,0.0,0.0,0.0,0.0,0.0,-3.8202,-3.8202,0.0,-3.8202,-3.8202,-3.8202,-3.8202,-3.8318,-3.8565,0.0,0.0,0.0,0.0,0.0,0.0,0.0,0.0,0.0,0.0,0.0,0.0,0.0,0.0,0.0,0.0,0.0,0.0,0.0,0.0,0.0,0.0,0.0,0.0,0.0,0.0,0.0,0.0,0.0,0.0,0.0,0.0,0.0,0.0,0.0,0.0,0.0,0.0,0.0,0.0,0.0,0.0,0.0,0.0,0.0,0.0,0.0,0.0,0.0,0.0,0.0,0.0,0.0,0.0,0.0,0.0,0.0,0.0,0.0,0.0,0.0,0.0,0.0,0.0,0.0,0.0,0.0,0.0,0.0,0.0,0.0,0.0,0.0,0.0,0.0,0.0,0.0,0.0,0.0,0.0,0.0,0.0,0.0,0.0,0.0,0.0,0.0,0.0,0.0,0.0,0.0,0.0,0.0,0.0,0.0,0.0,0.0,0.0,0.0,0.0,0.0,0.0,-3.8202,-3.8202,-3.8202,0.0,-3.8391,-3.8522,-3.8522,-3.8452,-3.84,-3.8414,0.0,0.0,0.0,0.0,0.0,0.0,0.0,0.0,0.0,0.0,0.0,0.0,0.0,0.0,0.0,0.0,0.0,0.0,0.0,0.0,0.0,0.0,0.0,0.0,0.0,0.0,0.0,0.0,0.0,0.0,0.0,0.0,0.0,0.0,0.0,0.0,0.0,0.0,0.0,0.0,0.0,0.0,0.0,0.0,0.0,0.0,0.0,0.0,0.0,0.0,0.0,0.0,0.0,0.0,0.0,0.0,0.0,0.0,0.0,0.0,0.0,0.0,0.0,0.0,0.0,0.0,0.0,0.0,0.0,0.0,0.0,0.0,0.0,0.0,0.0,0.0,0.0,0.0,0.0,0.0,0.0,0.0,0.0,0.0,0.0,0.0,0.0,0.0,0.0,0.0,0.0,0.0,0.0,0.0,0.0,0.0,0.0,0.0,0.0,0.0,0.0,0.0,-3.8217,-3.8217,-3.8217,-3.8217,-3.8812,-3.9218,-3.9218,-3.8922,-3.8777,0.0,0.0,0.0,0.0,0.0,0.0,0.0,0.0,0.0,0.0,0.0,0.0,0.0,0.0,0.0,0.0,0.0,0.0,0.0,0.0,0.0,0.0,0.0,0.0,0.0,0.0,0.0,0.0,0.0,0.0,0.0,0.0,0.0,0.0,0.0,0.0,0.0,0.0,0.0,0.0,0.0,0.0,0.0,0.0,0.0,0.0,0.0,0.0,0.0,0.0,0.0,0.0,0.0,0.0,0.0,0.0,0.0,0.0,0.0,0.0,0.0,0.0,0.0,0.0,0.0,0.0,0.0,0.0,0.0,0.0,0.0,0.0,0.0,0.0,0.0,0.0,0.0,0.0,0.0,0.0,0.0,0.0,0.0,0.0,0.0,0.0,0.0,0.0,0.0,0.0,0.0,0.0,0.0,0.0,0.0,0.0,0.0,0.0,0.0,0.0,0.0,0.0,0.0,-3.9538,-3.9538,-3.9538,-3.9538,-3.9712,-3.9578,-3.8913,-3.8746,-3.8254,-3.7263,0.0,0.0,0.0,0.0,0.0,0.0,0.0,0.0,0.0,0.0,0.0,0.0,0.0,0.0,0.0,0.0,0.0,0.0,0.0,0.0,0.0,0.0,0.0,0.0,0.0,0.0,0.0,0.0,0.0,0.0,0.0,0.0,0.0,0.0,0.0,0.0,0.0,0.0,0.0,0.0,0.0,0.0,0.0,0.0,0.0,0.0,0.0,0.0,0.0,0.0,0.0,0.0,0.0,0.0,0.0,0.0,0.0,0.0,0.0,0.0,0.0,0.0,0.0,0.0,0.0,0.0,0.0,0.0,0.0,0.0,0.0,0.0,0.0,0.0,0.0,0.0,0.0,0.0,0.0,0.0,0.0,0.0,0.0,0.0,0.0,0.0,0.0,0.0,0.0,0.0,0.0,0.0,0.0,0.0,0.0,0.0,0.0,0.0,0.0,0.0,0.0,0.0,-4.001,-4.0104,-4.0104,-4.0104,-4.0003,-3.9648,-3.8963,-3.8501,-3.7587,-3.6186,0.0,0.0,0.0,0.0,0.0,0.0,0.0,0.0,0.0,0.0,0.0,0.0,0.0,0.0,0.0,0.0,0.0,0.0,0.0,0.0,0.0,0.0,0.0,0.0,0.0,0.0,0.0,0.0,0.0,0.0,0.0,0.0,0.0,0.0,0.0,0.0,0.0,0.0,0.0,0.0,0.0,0.0,0.0,0.0,0.0,0.0,0.0,0.0,0.0,0.0,0.0,0.0,0.0,0.0,0.0,0.0,0.0,0.0,0.0,0.0,0.0,0.0,0.0,0.0,0.0,0.0,0.0,0.0,0.0,0.0,0.0,0.0,0.0,0.0,0.0,0.0,0.0,0.0,0.0,0.0,0.0,0.0,0.0,0.0,0.0,0.0,0.0,0.0,0.0,0.0,0.0,0.0,0.0,0.0,0.0,0.0,0.0,0.0,0.0,0.0,0.0,0.0,-3.9931,-4.0025,-4.0025,-4.0025,-3.9796,-3.9536,-3.9169,-3.8033,-3.678,-3.5328,0.0,0.0,0.0,0.0,0.0,0.0,0.0,0.0,0.0,0.0,0.0,0.0,0.0,0.0,0.0,0.0,0.0,0.0,0.0,0.0,0.0,0.0,0.0,0.0,0.0,0.0,0.0,0.0,0.0,0.0,0.0,0.0,0.0,0.0,0.0,0.0,0.0,0.0,0.0,0.0,0.0,0.0,0.0,0.0,0.0,0.0,0.0,0.0,0.0,0.0,0.0,0.0,0.0,0.0,0.0,0.0,0.0,0.0,0.0,0.0,-4.3759,0.0,0.0,0.0,0.0,0.0,0.0,0.0,0.0,0.0,0.0,0.0,0.0,0.0,0.0,0.0,0.0,0.0,0.0,0.0,0.0,0.0,0.0,0.0,0.0,0.0,0.0,0.0,0.0,0.0,0.0,0.0,0.0,0.0,0.0,0.0,0.0,0.0,0.0,0.0,0.0,0.0,-3.9339,-3.9426,-3.9426,-3.9426,-3.9376,-3.8932,-3.7845,-3.7195,-3.6109,-3.4375,-3.3477,0.0,0.0,0.0,0.0,0.0,0.0,0.0,0.0,0.0,0.0,0.0,0.0,0.0,0.0,0.0,0.0,0.0,0.0,0.0,0.0,0.0,0.0,0.0,0.0,0.0,0.0,0.0,0.0,0.0,0.0,0.0,0.0,0.0,0.0,0.0,0.0,0.0,0.0,0.0,0.0,0.0,0.0,0.0,0.0,0.0,0.0,0.0,0.0,0.0,0.0,0.0,0.0,0.0,0.0,0.0,0.0,0.0,0.0,0.0,0.0,-4.2863,0.0,0.0,0.0,0.0,0.0,0.0,0.0,0.0,0.0,0.0,0.0,0.0,0.0,0.0,0.0,0.0,0.0,0.0,0.0,0.0,0.0,0.0,0.0,0.0,0.0,0.0,0.0,0.0,0.0,0.0,0.0,0.0,0.0,0.0,0.0,0.0,0.0,0.0,0.0,0.0,-3.8725,-3.8814,-3.8706,-3.8526,-3.8056,-3.7323,-3.6341,-3.5618,-3.4603,-3.3393,-3.2895,0.0,0.0,0.0,0.0,0.0,0.0,0.0,0.0,0.0,0.0,0.0,0.0,0.0,0.0,0.0,0.0,0.0,0.0,0.0,0.0,0.0,0.0,0.0,0.0,0.0,0.0,0.0,0.0,0.0,0.0,0.0,0.0,0.0,0.0,0.0,0.0,0.0,0.0,0.0,0.0,0.0,0.0,0.0,0.0,0.0,0.0,0.0,0.0,0.0,0.0,0.0,0.0,0.0,-4.3421,-4.3274,-4.322,-4.2716,-4.2076,-4.134,-4.1996,-4.1404,-4.0099,0.0,0.0,0.0,0.0,0.0,0.0,0.0,0.0,0.0,0.0,0.0,0.0,0.0,0.0,0.0,0.0,0.0,0.0,0.0,0.0,0.0,0.0,0.0,0.0,0.0,-3.4823,-3.4823,0.0,0.0,0.0,0.0,0.0,0.0,0.0,0.0,0.0,0.0,0.0,0.0,-3.7664,-3.7729,-3.7609,-3.7144,-3.629,-3.5582,-3.4868,-3.3966,-3.3211,-3.2527,-3.2406,-3.2154,0.0,0.0,0.0,0.0,0.0,0.0,0.0,0.0,0.0,0.0,0.0,0.0,0.0,0.0,0.0,0.0,0.0,0.0,0.0,0.0,0.0,0.0,0.0,0.0,0.0,0.0,0.0,0.0,0.0,0.0,0.0,0.0,-4.013,-4.0966,0.0,0.0,0.0,0.0,0.0,0.0,0.0,0.0,0.0,0.0,0.0,0.0,0.0,-4.2173,-4.2821,-4.2189,-4.2189,-4.2821,-4.2173,-4.1606,-4.1199,-4.1131,-4.0445,-3.9442,-3.9531,0.0,-3.9965,-3.9657,0.0,0.0,0.0,0.0,0.0,0.0,0.0,0.0,0.0,0.0,0.0,0.0,0.0,0.0,0.0,0.0,0.0,0.0,0.0,0.0,0.0,0.0,-3.4823,-3.4823,-3.4823,-3.4823,0.0,-3.4823,-3.4823,-3.4823,-3.4823,0.0,0.0,0.0,0.0,0.0,0.0,0.0,-3.532,-3.5258,-3.5034,-3.4554,-3.4322,-3.4126,-3.3802,-3.3259,-3.2798,-3.2503,-3.2046,-3.1745,-3.1661,-3.0824,0.0,0.0,0.0,0.0,0.0,0.0,0.0,0.0,0.0,0.0,0.0,0.0,0.0,0.0,0.0,0.0,0.0,0.0,0.0,0.0,0.0,0.0,0.0,0.0,0.0,0.0,0.0,0.0,0.0,-3.9879,-4.0836,-4.1138,-4.1456,-4.1588,0.0,0.0,0.0,0.0,0.0,0.0,0.0,0.0,0.0,-4.1588,-4.1588,-4.1746,-4.2062,-4.2157,-4.2363,-4.2695,-4.2742,-4.2485,-4.193,-4.1546,-4.097,-4.0099,-3.9444,-3.9293,-3.9542,-3.9266,-3.9523,-4.006,0.0,0.0,0.0,0.0,0.0,-3.7807,-3.6981,-3.6204,0.0,0.0,0.0,0.0,0.0,0.0,0.0,0.0,0.0,0.0,0.0,0.0,0.0,-3.4823,-3.4823,-3.4823,-3.4823,-3.4823,-3.4823,0.0,-3.4823,-3.4823,-3.4823,0.0,0.0,0.0,0.0,-3.4497,-3.4362,-3.4084,-3.3788,-3.3241,-3.318,-3.2968,-3.2563,-3.2321,-3.2188,-3.2034,-3.1805,-3.1472,-3.0913,-3.0272,-2.9429,0.0,0.0,0.0,0.0,0.0,0.0,0.0,0.0,0.0,0.0,0.0,0.0,0.0,0.0,0.0,0.0,0.0,0.0,0.0,0.0,0.0,0.0,0.0,0.0,0.0,0.0,0.0,0.0,-4.0544,-4.1068,-4.1307,-4.1456,-4.1588,0.0,0.0,0.0,0.0,0.0,0.0,-4.1588,-4.1588,-4.1588,-4.1588,-4.1588,-4.1683,-4.1873,-4.241,-4.2774,-4.2963,-4.3315,-4.3169,-4.2525,-4.1908,-4.1309,-4.0698,-3.9857,-3.9349,-3.9189,-3.9015,-3.9044,-3.9247,-3.9605,-3.97,-3.9642,-3.871,-3.8046,-3.7372,-3.6623,-3.6058,-3.5548,-3.4881,0.0,-3.3515,-3.2835,0.0,0.0,0.0,0.0,-3.4823,-3.4823,-3.4823,-3.4823,-3.4823,-3.4823,-3.4823,-3.4823,-3.4823,-3.4823,0.0,-3.4823,-3.4823,-3.4823,0.0,0.0,0.0,0.0,-3.4198,-3.4054,-3.3597,-3.308,-3.2563,-3.237,-3.2118,-3.1697,-3.1661,-3.1661,-3.1661,-3.1472,-3.0913,-3.017,-2.9429,-2.8319,-2.6723,0.0,0.0,0.0,0.0,0.0,0.0,0.0,0.0,0.0,0.0,0.0,0.0,0.0,0.0,0.0,0.0,0.0,0.0,0.0,0.0,0.0,0.0,0.0,0.0,0.0,0.0,0.0,0.0,0.0,-4.1178,-4.1456,0.0,0.0,0.0,0.0,-4.1588,-4.1588,-4.1588,-4.1588,-4.1588,-4.1588,-4.1588,-4.1588,-4.192,-4.2631,-4.2679,-4.3026,-4.3674,-4.3098,-4.2509,-4.1893,-4.1324,-4.0728,-4.0168,-4.006,-3.9726,-3.916,-3.8507,-3.8623,-3.9204,-3.8831,-3.8674,-3.8596,-3.8159,-3.7316,-3.6446,-3.6405,-3.6058,-3.5548,-3.4881,-3.4157,-3.3405,-3.2713,-3.3176,0.0,0.0,-3.4438,-3.4823,-3.4823,-3.4823,-3.4823,-3.4823,-3.4823,-3.4823,-3.4823,-3.4823,-3.4823,0.0,-3.4823,-3.4823,-3.4823,0.0,-3.4823,-3.4823,-3.4811,-3.4607,-3.4102,-3.3597,-3.308,-3.2563,-3.2022,-3.1697,-3.1661,-3.1661,-3.1661,-3.1661,-3.0824,-3.017,-2.9806,-2.7945,-2.6819,-2.6436,-2.5216,0.0,0.0,0.0,0.0,0.0,0.0,0.0,0.0,0.0,0.0,0.0,0.0,0.0,0.0,0.0,0.0,0.0,0.0,0.0,0.0,0.0,0.0,0.0,0.0,0.0,0.0,0.0,0.0,-4.0585,-4.0729,0.0,-4.1541,-4.1588,-4.1588,-4.1588,-4.1588,-4.1588,-4.1588,-4.1588,-4.1588,-4.1588,-4.1588,-4.1936,-4.2679,-4.3137,-4.3481,-4.38,-4.3987,-4.3577,-4.2581,-4.2361,-4.1995,-4.1366,-4.0931,-4.0612,-4.0336,-3.903,-3.8342,-3.8198,-3.803,-3.7784,-3.7551,-3.7093,-3.673,-3.6325,-3.6058,-3.5805,-3.542,-3.4674,-3.3981,-3.3411,-3.3486,-3.3753,-3.4114,-3.4451,-3.4679,-3.4823,-3.4823,-3.4823,-3.4823,-3.4823,-3.4823,-3.4823,-3.4823,-3.4823,-3.4823,-3.4823,-3.4823,-3.4823,-3.4823,-3.4823,-3.4823,-3.4823,-3.4535,-3.4258,-3.4066,-3.3597,-3.3224,-3.3032,-3.2827,-3.2707,-3.2707,-3.2707,-3.2317,-3.1426,-3.1041,-3.0075,-2.845,-2.7567,-2.6694,-2.603,-2.5685,-2.5459,0.0,0.0,0.0,0.0,0.0,0.0,0.0,0.0,0.0,0.0,0.0,0.0,0.0,0.0,0.0,0.0,0.0,0.0,0.0,0.0,0.0,0.0,0.0,0.0,0.0,0.0,-3.9292,-4.0208,-4.0491,-4.0887,-4.1541,-4.1588,-4.1588,-4.1588,-4.1588,-4.1588,-4.1588,-4.1588,-4.1588,-4.1588,-4.1588,-4.198,-4.2736,-4.3192,-4.351,-4.382,-4.4083,-4.3741,-4.2981,-4.2769,-4.2474,-4.2078,-4.1628,-4.1097,-4.0458,-3.9369,-3.8225,-3.7162,-3.7162,-3.7007,-3.6772,-3.6298,-3.6138,-3.6086,-3.5778,-3.5425,-3.5081,-3.4512,-3.3924,-3.3609,-3.3945,-3.4162,-3.4378,-3.4727,-3.4823,-3.4823,-3.4823,-3.4823,-3.4823,-3.4823,-3.4823,-3.4823,-3.4823,-3.4823,-3.4823,-3.4823,-3.4823,-3.4823,-3.4823,-3.4823,-3.4823,-3.4823,-3.4535,-3.4306,-3.4306,-3.3861,-3.3549,-3.3549,-3.3194,-3.2993,-3.2993,-3.2993,-3.2394,-3.0993,-3.0789,-2.971,-2.7552,-2.6953,-2.6302,-2.5488,-2.5669,-2.5693,-2.5564,0.0,0.0,0.0,0.0,0.0,0.0,0.0,0.0,0.0,0.0,0.0,0.0,0.0,0.0,0.0,0.0,0.0,0.0,0.0,0.0,0.0,0.0,0.0,-3.7622,-3.8368,-3.91,-4.0112,-4.0868,-4.1358,-4.1588,-4.1588,-4.1588,-4.1588,-4.1588,-4.1588,-4.1588,-4.1588,-4.1588,-4.1588,-4.1588,-4.1983,-4.2782,-4.2798,-4.3098,-4.3789,-4.324,-4.2921,-4.2936,-4.2333,-4.2034,-4.2034,-4.2034,-4.1064,-3.9482,-3.9467,-3.8263,-3.6419,-3.6405,-3.6405,-3.6312,-3.5884,-3.571,-3.571,-3.5557,-3.5076,-3.4499,-3.437,-3.4181,-3.4066,-3.4066,-3.4414,-3.4823,-3.4823,-3.4823,-3.4823,-3.4823,-3.4823,-3.4823,-3.4738,-3.4823,-3.4823,-3.4738,-3.4823,-3.4823,-3.4738,-3.4823,-3.4823,-3.4823,-3.4823,-3.4823,-3.4823,-3.4823,0.0,-3.4738,-3.4282,-3.3971,-3.3971,-3.3126,-3.2536,-3.2536,-3.2536,-3.1849,-3.0469,-2.9959,-2.8964,-2.7288,-2.6313,-2.5544,-2.4849,-2.5216,-2.5592,-2.5977,0.0,0.0,0.0,0.0,0.0,0.0,0.0,0.0,0.0,0.0,0.0,0.0,0.0,0.0,0.0,0.0,0.0,0.0,0.0,0.0,0.0,0.0,-3.6553,-3.68,-3.7417,-3.8209,-3.9085,-3.9769,-4.0509,-4.1343,-4.139,-4.1456,-4.1588,-4.1588,-4.1588,-4.1588,-4.1588,-4.1588,-4.1588,-4.1588,-4.1731,-4.2038,-4.2054,-4.1985,-4.1893,-4.1739,-4.1336,-4.085,-4.072,-4.0495,-4.0173,-4.0173,-3.981,-3.9035,-3.826,-3.756,-3.6971,-3.6557,-3.6232,-3.5884,-3.5723,-3.571,-3.571,-3.5557,-3.5336,-3.5086,-3.4932,-3.4744,-3.4619,-3.4619,-3.4715,-3.4823,-3.4823,-3.4823,-3.4823,-3.4823,-3.4823,-3.4726,-3.4335,-3.4531,-3.4726,-3.4335,-3.4531,-3.4628,-3.4335,-3.4531,-3.4823,-3.4823,-3.4823,-3.4823,-3.4823,-3.4823,0.0,-3.4237,-3.4107,-3.4024,-3.4024,-3.3406,-3.2909,-3.2764,-3.2381,-3.126,-2.9198,-2.8981,-2.8281,-2.6868,-2.6565,-2.6304,-2.6096,-2.6197,-2.6307,0.0,0.0,0.0,0.0,0.0,0.0,0.0,0.0,0.0,0.0,0.0,0.0,0.0,0.0,0.0,0.0,0.0,0.0,0.0,0.0,0.0,0.0,-3.6492,-3.6492,-3.6492,-3.7323,-3.8126,-3.8722,-3.9621,-4.0484,-4.1209,-4.1323,-4.139,-4.1588,-4.1588,-4.1588,-4.1588,-4.1588,-4.1588,-4.1588,-4.1588,-4.1637,-4.1759,-4.1564,-4.1328,-4.105,-4.065,-4.0261,-3.9866,-3.9693,-3.9467,0.0,-3.924,-3.8841,-3.8154,-3.7562,-3.7028,0.0,0.0,0.0,0.0,0.0,-3.571,-3.5629,-3.5207,-3.5024,-3.487,-3.4465,-3.435,-3.4499,-3.4499,-3.4655,-3.4823,-3.4823,-3.4823,-3.4823,-3.4823,-3.4628,-3.4433,-3.404,-3.404,-3.404,-3.3744,-3.3941,-3.404,-3.3744,0.0,0.0,-3.4139,-3.4335,-3.4433,-3.4139,-3.4139,-3.404,-3.3744,-3.3645,-3.3645,-3.3645,-3.3135,-3.2723,-3.2174,-3.188,0.0,0.0,0.0,-2.8009,-2.6691,-2.6417,0.0,0.0,0.0,-2.6408,-2.6591,0.0,0.0,0.0,-2.6591,-2.6683,0.0,0.0,0.0,0.0,0.0,0.0,0.0,0.0,0.0,0.0,0.0,0.0,0.0,0.0,0.0,0.0,-3.6492,-3.6492,-3.6492,-3.7646,-3.8573,-3.8753,-3.9962,-4.0851,-4.1189,-4.1256,-4.1323,-4.1522,-4.1522,-4.1522,-4.1522,0.0,0.0,0.0,0.0,-4.1539,-4.1566,-4.1031,-4.0753,-4.066,-3.9822,-3.9267,-3.9187,-3.8866,-3.8689,-3.8622,-3.8622,-3.8056,-3.7151,-3.7151,-3.6591,-3.571,-3.571,-3.571,-3.571,-3.571,-3.571,0.0,0.0,0.0,0.0,-3.3479,-3.3443,-3.3756,-3.3756,-3.4126,-3.4545,-3.4545,-3.4581,-3.4628,-3.4628,-3.4237,-3.3941,-3.3843,-3.3545,-3.3147,-3.3147,-3.3147,-3.3147,-3.3147,-3.3147,-3.3147,-3.3047,-3.3545,-3.3744,-3.3247,-3.3247,-3.3147,-3.3147,-3.3147,-3.3147,-3.3147,0.0,0.0,-3.1073,-3.0867,-2.9922,-2.7833,-2.8126,-2.7805,-2.67,-2.6224,-2.6206,-2.6582,-2.6224,-2.6215,-2.6591,-2.6591,-2.6609,-2.6655,-2.6655,-2.6839,0.0,0.0,0.0,0.0,0.0,0.0,0.0,0.0,0.0,0.0,0.0,0.0,0.0,0.0,0.0,-3.6274,-3.6414,-3.6492,-3.6492,-3.7646,-3.8508,-3.8573,-3.9776,-4.0662,-4.0851,-4.0935,-4.1003,-4.1169,-4.1169,-4.1169,-4.1169,-4.1169,0.0,-4.1169,-4.1169,-4.0997,-4.0469,-4.0399,-3.982,-3.8716,0.0,0.0,-3.7501,-3.7408,-3.72,-3.6896,-3.6896,-3.6573,-3.6048,-3.6048,-3.5899,-3.571,-3.571,-3.571,-3.571,-3.571,-3.571,-3.5562,-3.4931,-3.4319,-3.3834,-3.3081,-3.2578,-3.225,-3.225,-3.2514,0.0,-3.292,-3.3221,-3.3545,-3.3545,-3.3446,-3.3247,-3.2823,-3.2935,-3.3047,-3.2622,-3.2935,-3.3047,-3.2622,-3.2935,-3.2946,-3.2026,-3.2734,-3.3346,-3.3247,-3.3247,-3.3047,-3.2622,-3.2521,-3.2521,-3.2521,-3.1505,-3.0578,-3.0245,-2.9081,-2.8038,-2.6899,-2.689,-2.6899,-2.6591,-2.6509,-2.6509,-2.6591,-2.6509,-2.6509,-2.6591,-2.6591,-2.6756,-2.7068,-2.7068,-2.7105,0.0,0.0,0.0,0.0,0.0,0.0,0.0,0.0,0.0,0.0,0.0,-3.5797,0.0,0.0,-3.6148,-3.6211,-3.6352,-3.6615,-3.6953,-3.7877,-3.8508,-3.8508,-3.9708,-4.0593,-4.0799,-4.0799,-4.0882,-4.1117,-4.1117,-4.1117,-4.1117,-4.1117,-4.1117,-4.1117,-4.1117,-4.0966,-4.0662,-3.9975,-3.9247,-3.8605,-3.7734,-3.707,-3.6693,-3.6443,-3.6204,-3.6058,-3.6058,-3.5884,-3.571,-3.571,-3.571,-3.571,-3.571,-3.571,-3.571,-3.571,-3.571,-3.5548,-3.4551,-3.3879,-3.3233,-3.22,-3.1666,-3.1435,-3.1435,-3.1792,-3.2099,-3.2099,-3.2466,-3.2868,-3.2868,-3.2853,-3.2723,-3.2409,-3.2432,-3.2331,-3.2015,-3.2229,-3.2331,-3.2015,-3.2229,-3.224,-3.1732,-3.2026,-3.2432,-3.2432,-3.2432,-3.2331,-3.2015,-3.2015,-3.1812,-3.1403,-3.0795,-2.9963,-2.8986,-2.7833,-2.6999,-2.6591,-2.6591,-2.6591,-2.6591,-2.6591,-2.6591,-2.6591,-2.6591,-2.6591,-2.6591,-2.6591,-2.6793,-2.7178,-2.738,-2.7591,0.0,0.0,0.0,0.0,0.0,0.0,0.0,0.0,-3.4581,-3.5494,-3.5604,-3.5554,-3.5861,-3.591,-3.5973,-3.6085,-3.6289,-3.666,-3.7336,-3.8077,-3.8554,-3.8692,-3.9785,-4.0524,-4.073,-4.0607,-4.0613,-4.0764,-4.0655,-4.0624,-4.0764,-4.0779,-4.0842,-4.0966,-4.0966,-4.0966,-4.0966,-3.9677,-3.9,-3.8782,-3.726,-3.6391,-3.6232,-3.5884,-3.571,-3.571,-3.571,-3.571,-3.571,-3.571,-3.571,-3.571,-3.571,-3.571,-3.5642,-3.571,-3.5548,-3.5209,-3.3953,-3.3079,-3.2289,-3.1003,-3.0583,-3.0546,-3.0546,-3.0899,-3.1381,-3.1381,-3.1661,-3.2048,-3.2048,-3.2115,-3.2073,-3.2073,-3.1847,-3.1618,-3.1618,-3.1618,-3.1618,-3.1618,-3.1618,-3.1618,-3.1618,-3.1618,-3.1618,-3.1618,-3.1618,-3.1516,-3.1414,-3.1322,-3.1002,-3.0276,-2.9963,-2.9217,-2.7726,-2.6999,-2.6591,-2.6591,-2.6591,-2.6591,-2.6591,-2.6591,-2.6591,-2.6591,-2.6591,-2.6591,-2.6591,-2.6591,-2.683,-2.7297,-2.7618,-2.7994,-3.0368,-3.0368,-3.0583,-3.1442,-3.1723,-3.2218,0.0,0.0,-3.4528,-3.5344,-3.5504,-3.5504,-3.5569,-3.5653,-3.5752,-3.5752,-3.6006,-3.644,-3.7113,-3.7931,-3.8739,-3.9339,-4.0078,-4.0524,-4.0524,-3.9985,-3.9631,-3.9699,-3.9144,-3.9067,-3.9668,-3.9699,-3.9976,-4.0509,-4.0608,-4.0608,-4.0608,-3.9692,-3.8928,-3.8175,-3.7309,-3.648,-3.5804,-3.571,-3.571,-3.571,-3.571,-3.571,-3.571,-3.571,-3.571,-3.571,-3.571,-3.5562,-3.548,-3.5642,-3.5032,-3.4069,-3.3322,-3.2091,-3.0676,-2.992,-2.9346,-2.902,-2.902,-2.936,-2.9756,-2.9756,-3.0108,-3.0482,-3.0482,-3.0723,-3.1074,-3.1074,-3.1302,-3.1618,-3.1618,-3.1618,-3.1618,-3.1618,-3.1618,-3.1618,-3.1618,-3.1618,-3.1618,-3.1618,-3.1618,-3.1311,-3.0599,-3.0495,-3.0162,-2.9303,-2.8572,-2.7726,-2.6791,-2.67,-2.6591,-2.6591,-2.6591,-2.6591,-2.6591,-2.6591,-2.6591,-2.6591,-2.6591,-2.6591,-2.6591,-2.6591,-2.6976,-2.7701,-2.7746,-2.7994,-3.0011,-3.0152,-3.0444,-3.122,-3.1649,-3.2218,-3.3851,-3.4245,-3.4528,-3.5344,-3.5504,-3.5504,-3.5504,-3.5589,-3.5688,0.0,-3.5894,-3.6466,-3.7663,-3.8142,-3.879,-3.9985,-4.0355,-4.037,-3.9985,-3.9677,-3.9354,-3.897,-3.8677,-3.8631,-3.8908,-3.9308,-3.9647,-3.9939,-4.0324,-4.0301,-3.9849,-3.9,-3.8175,-3.7372,-3.6624,-3.6017,-3.571,-3.571,-3.571,-3.571,-3.5562,-3.5562,-3.5562,-3.5399,-3.5318,-3.5318,-3.5318,-3.5318,-3.5236,-3.548,-3.4786,-3.3746,-3.298,-3.1741,-3.0406,-2.9738,-2.9209,-2.8757,-2.8757,-2.8899,-2.9063,-2.9063,-2.9412,-2.9784,-2.9784,-3.0144,-3.057,-3.0832,-3.105,-3.128,-3.1564,-3.1618,-3.1618,-3.1618,-3.1618,-3.1414,-3.1002,-3.0909,-3.0692,-3.0245,-3.0578,-3.0588,-2.9733,-2.9628,-2.9313,-2.8455,-2.7628,-2.7008,-2.6591,-2.6591,-2.6591,-2.6591,-2.6591,-2.6591,-2.6591,-2.6591,-2.6591,-2.6591,-2.6591,-2.6591,-2.6591,-2.6591,-2.6995,-2.7765,-2.7765,-2.7758,-2.9792,-2.9856,-3.0062,-3.0722,-3.1429,-3.229,-3.3451,-3.4138,-3.4691,-3.5294,-3.5439,-3.5504,-3.5504,-3.5604,-3.5638,-3.5638,-3.5933,-3.6656,-3.7958,-3.836,-3.8977,-4.0263,-4.0455,-4.0117,-3.9323,-3.9231,-3.897,-3.8277,-3.8061,-3.8031,-3.8215,-3.8692,-3.9046,-3.9231,-3.9724,-3.9757,-3.935,-3.8588,-3.7866,-3.7218,-3.6401,-3.5937,-3.571,-3.5642,-3.5562,-3.5562,-3.5399,-3.5318,-3.5318,-3.5154,-3.5086,-3.5086,-3.5086,-3.5086,-3.5003,-3.5154,-3.4358,-3.3139,-3.2611,-3.1388,-2.9977,-2.9474,-2.9117,-2.8757,-2.8757,-2.8757,-2.8757,-2.8757,-2.9008,-2.9281,-2.9281,-2.9642,-3.0133,-3.0592,-3.081,-3.1029,-3.152,-3.1618,-3.1516,-3.1311,-3.1311,-3.1002,-3.0162,-3.0057,-2.9743,-2.888,-2.9313,-2.9428,-2.8774,-2.8572,-2.8145,-2.752,-2.6899,-2.6591,-2.6591,-2.6591,-2.6591,-2.6591,-2.6591,-2.6591,-2.6591,-2.6591,-2.6591,-2.6591,-2.6473,-2.6364,-2.6364,-2.6136,-2.6358,-2.6777,-2.6884,-2.6351,-2.9714,-2.9599,-2.9509,-2.9985,-3.1193,-3.2335,-3.2676,-3.4031,-3.5148,-3.5213,-3.5359,-3.5504,-3.5504,-3.5504,-3.5504,-3.5504,-3.616,-3.6923,-3.7617,-3.8417,-3.9306,-4.0185,-4.0347,-3.9811,0.0,-3.8539,-3.8262,-3.7584,-3.6923,-3.6846,-3.7507,-3.7554,-3.7861,-3.8523,-3.8554,-3.8877,-3.9471,-3.8741,-3.8233,-3.8026,-3.7218,-3.648,-3.571,-3.548,-3.5318,-3.5086,-3.5086,-3.5086,-3.5086,-3.5086,-3.5086,-3.5086,-3.5086,-3.5003,-3.4839,-3.4839,-3.359,-3.1991,-3.1904,-3.0586,-2.885,-2.885,-2.885,-2.8757,-2.8757,-2.8757,-2.8757,-2.8757,-2.8768,-2.8779,-2.8779,-2.9139,-2.9631,-3.0122,-3.057,-3.1029,-3.152,-3.1618,-3.1414,-3.0599,-3.0391,-3.0172,-2.9303,-2.9092,-2.888,-2.7931,-2.7824,-2.7824,-2.7824,-2.7215,-2.67,-2.6691,-2.6591,-2.6591,-2.6591,-2.6591,-2.6591,-2.6591,-2.6591,-2.6591,-2.6591,-2.6591,-2.6591,-2.6591,-2.6026,-2.5688,-2.5688,-2.5119,-2.4631,-2.4081,-2.4415,-2.3588,-2.8554,-2.8791,-2.9431,-3.0254,-3.0895,-3.1696,-3.2946,-3.3796,-3.4438,-3.4935,-3.5148,-3.5294,-3.5294,-3.5439,-3.5504,-3.5504,-3.6109,-3.6835,-3.7617,-3.8364,-3.9098,-3.999,-4.0207,0.0,0.0,0.0,0.0,-3.6923,-3.6615,-3.6599,-3.6815,-3.7261,-3.76,-3.7831,-3.8277,-3.8335,-3.8047,-3.7758,-3.7305,-3.6605,-3.6121,-3.5401,-3.4754,-3.5062,-3.5154,-3.5086,-3.4921,-3.4921,-3.4921,-3.4743,-3.466,-3.466,-3.466,-3.4564,-3.4494,-3.4494,-3.3335,-3.1741,-3.1741,-3.0866,-2.9646,-2.9024,-2.8757,-2.8757,-2.8757,-2.8757,-2.8757,-2.8757,-2.8757,-2.8757,-2.8757,-2.8877,-2.9128,-2.9609,-2.9849,-3.0177,-3.0963,-3.1138,-3.1034,-3.0535,-3.0391,-2.9963,-2.8465,-2.8252,-2.7931,-2.7107,-2.6999,-2.6999,-2.6999,-2.68,-2.6591,-2.6591,-2.6591,-2.6591,-2.6591,-2.6591,-2.6591,-2.6591,-2.6591,-2.6473,-2.6026,-2.6026,-2.5798,-2.5459,-2.5229,-2.4778,-2.4206,-2.3983,-2.3594,-2.3113,-2.3349,-2.2744,-2.8303,-2.8633,-2.9197,-2.9858,-3.038,-3.1031,-3.2577,-3.3227,-3.3796,-3.4668,-3.4949,-3.5082,-3.5213,-3.5294,-3.5439,-3.5504,-3.6436,-3.7292,-3.7579,-3.8599,-3.948,-3.9864,-3.9996,-3.9588,0.0,0.0,0.0,-3.6584,-3.6492,-3.6492,-3.6492,-3.6907,-3.7138,-3.7138,-3.7569,-3.7617,-3.7285,-3.7285,-3.6778,-3.5841,-3.4976,-3.4332,-3.3821,-3.4193,-3.4285,-3.4217,-3.436,-3.4383,-3.4383,-3.4402,-3.4397,-3.4384,-3.4188,-3.411,-3.4084,-3.3862,-3.2962,-3.176,-3.1592,-3.0789,-2.9646,-2.9024,-2.8757,-2.8757,-2.8757,-2.8757,-2.8757,-2.8757,-2.8757,-2.8757,-2.8757,-2.8757,-2.8877,-2.9368,-2.9489,-2.9696,-3.0482,-3.0448,-3.0188,-2.9735,-2.9288,-2.8489,-2.7267,-2.6853,-2.6536,-2.6017,-2.5916,-2.6136,-2.6582,-2.6591,-2.6591,-2.6591,-2.6591,-2.6473,-2.6245,-2.6245,-2.6136,-2.6017,-2.5916,-2.5798,-2.5348,-2.5348,-2.5229,-2.4787,-2.4565,-2.3999,-2.3079,-2.2854,-2.2276,-2.1322,-2.1539,-2.1096,-2.8645,-2.8882,-2.8803,-2.904,-2.9651,-3.0469,-3.1489,-3.2434,-3.3367,-3.4399,-3.475,-3.4935,0.0,0.0,-3.5279,-3.5489,-3.7212,-3.833,-3.7609,-3.9291,-4.0339,0.0,0.0,0.0,0.0,0.0,0.0,-3.6521,0.0,-3.6492,-3.6492,-3.6492,-3.6492,-3.6492,-3.6492,-3.6658,-3.7143,-3.7094,-3.6574,-3.5553,-3.408,-3.3196,-3.2948,-3.2975,-3.2843,-3.2725,-3.33,-3.3548,-3.3587,-3.4097,-3.4306,-3.4254,-3.3744,-3.3548,-3.3483,-3.2854,-3.2406,-3.1988,-3.1659,-3.0339,-2.8839,-2.885,-2.8757,-2.8757,-2.8757,-2.8757,-2.8757,-2.8757,-2.8757,-2.8757,-2.8757,-2.8757,-2.8877,-2.9336,-2.9445,-2.9576,-3.0067,-2.9578,-2.8921,-2.844,-2.716,-2.6041,-2.5691,-2.5221,-2.4778,-2.4778,-2.4778,-2.5229,-2.6364,-2.6473,-2.6473,-2.6473,-2.6473,-2.6245,-2.5688,-2.5679,-2.5459,-2.4889,-2.4778,-2.4787,-2.4778,-2.4787,-2.4778,-2.4676,-2.4136,-2.3344,-2.241,-2.1843,-2.0594,-1.8881,-1.905,-1.8696,-2.7592,-2.8087,-2.8657,-2.8803,-2.9028,-2.9484,-3.0469,-3.1206,-3.2015,-3.3157,-3.3879,-3.4399,0.0,0.0,0.0,-3.6022,-3.7808,0.0,-3.8933,-4.025,0.0,-4.1075,0.0,-4.0513,-3.87,-3.8642,0.0,0.0,-3.6226,-3.6274,-3.6274,-3.6274,-3.6274,-3.6274,-3.6163,-3.6176,-3.628,-3.5589,-3.485,-3.4058,-3.3394,-3.2724,-3.2149,-3.2568,-3.2765,-3.2698,-3.2855,-3.2921,-3.2934,-3.3064,-3.3117,-3.3117,-3.2973,-3.2921,-3.2867,-3.2465,-3.1717,-3.1051,-3.069,-3.026,-2.9726,-2.9024,-2.8757,-2.8757,-2.8757,-2.8757,-2.8757,-2.8757,-2.8757,-2.8757,-2.8757,-2.8757,-2.879,-2.891,-2.8943,-2.9074,-2.9565,-2.9386,-2.8726,-2.754,-2.6027,-2.4806,-2.4694,-2.4717,-2.4778,-2.4778,-2.4778,-2.4898,-2.5229,-2.5238,-2.5238,-2.5238,-2.5238,-2.5229,-2.5008,-2.5008,-2.5008,-2.4787,-2.4778,-2.4565,-2.4136,-2.4136,-2.3913,-2.3456,-2.3352,-2.2441,-2.0838,-2.0723,-1.9686,-1.7837,-1.8107,-1.8007,-2.7684,-2.8099,-2.851,-2.8657,-2.8657,-2.9028,-3.0519,-3.1119,-3.1783,-3.3241,-3.3908,-3.4346,-3.4631,-3.5444,-3.6133,0.0,0.0,0.0,-3.9439,-4.0896,-4.1852,0.0,-4.1322,0.0,-3.9155,-3.8605,-3.7697,0.0,-3.6148,-3.6085,-3.6085,-3.6085,-3.6085,-3.6085,-3.6037,-3.5973,-3.5894,-3.4595,-3.3768,-3.3367,-3.2527,-3.1898,-3.147,-3.1797,-3.194,-3.1954,0.0,-3.2319,-3.2346,-3.2594,-3.2685,-3.2685,-3.2685,-3.2685,-3.2645,-3.2461,-3.163,-3.0671,-3.0443,-3.0076,-2.9463,-2.8932,-2.8757,-2.8757,-2.8757,-2.8757,-2.8757,-2.8757,-2.8757,-2.8757,-2.8757,-2.8757,-2.8757,-2.8757,-2.8757,-2.8729,-2.8401,-2.7977,-2.7037,-2.5256,-2.4237,-2.3569,-2.3345,-2.3402,-2.3577,-2.3742,-2.3767,-2.3825,-2.3991,-2.4445,-2.4778,-2.4778,-2.4778,-2.4676,-2.4462,-2.4462,-2.4231,-2.4008,-2.4008,-2.3904,-2.3464,-2.3472,-2.3127,-2.2433,-2.2433,-2.1517,-1.9693,-1.9693,-1.8874,-1.7485,-1.763,-1.7624,-2.8259,-2.851,-2.851,-2.851,-2.851,-2.9028,-3.0869,-3.1389,-3.1974,-3.3825,-3.4264,-3.4414,-3.475,-3.5479,-3.6087,-3.643,0.0,-4.0275,-3.9734,-4.1335,-4.2409,-4.1836,-4.1246,-4.0499,-3.9643,-3.8466,-3.7435,-3.6492,-3.6196,-3.6037,-3.5973,-3.5973,-3.5973,-3.591,-3.591,-3.5846,-3.5703,-3.4109,-3.3283,-3.3143,-3.1823,-3.1123,-3.0986,-3.0986,-3.0986,-3.1013,0.0,0.0,-3.1888,-3.245,-3.2685,-3.2685,-3.2685,-3.2685,-3.2698,-3.2525,-3.168,-3.0635,-3.0533,-2.9713,-2.8757,-2.8757,-2.8757,-2.8757,-2.8757,-2.8757,-2.8757,-2.8757,-2.8757,-2.8757,-2.8757,-2.8757,-2.8757,-2.8757,-2.8757,-2.8362,-2.7084,-2.6021,-2.4782,-2.2757,-2.2501,-2.2536,-2.1993,-2.1926,-2.2061,-2.237,-2.2418,-2.2529,-2.2831,-2.3838,-2.4565,-2.4565,-2.4565,-2.4342,-2.3809,-2.3801,-2.3576,-2.3014,-2.3014,-2.3014,-2.3014,-2.2901,-2.2433,-2.1616,-2.1509,-2.0594,-1.8874,-1.8874,-1.8415,-1.7485,-1.7485,-1.7485,-2.8099,-2.851,-2.851,-2.851,-2.8657,-2.9028,-3.0063,-3.0745,0.0,-3.2875,-3.3534,-3.4235,-3.5255,-3.6119,-3.6904,-3.7648,-3.9267,-4.0578,-4.0968,-4.1906,-4.268,0.0,-4.312,-4.2316,-4.0501,-4.0079,0.0,0.0,0.0,-3.618,-3.5752,-3.5752,-3.5718,-3.5554,-3.5569,-3.5569,-3.5554,-3.461,-3.3822,-3.3213,-3.2304,-3.1603,-3.0986,-3.0986,-3.0986,-3.1013,0.0,0.0,-3.1888,-3.245,-3.2685,-3.2685,-3.2685,-3.2685,-3.2579,-3.1435,-3.0894,-3.0521,-2.9455,-2.8947,-2.8757,-2.8757,-2.8757,-2.8757,-2.8757,-2.8757,-2.8757,-2.8757,-2.8757,-2.8757,-2.8757,-2.8757,-2.8757,-2.8488,-2.8488,-2.8092,-2.6723,-2.4856,-2.3211,-2.2612,-2.2018,-2.1642,-2.1536,-2.1775,-2.1981,-2.2045,-2.2053,-2.2077,-2.2132,-2.287,-2.3344,-2.3344,-2.3344,-2.3239,-2.3127,-2.3127,-2.3127,-2.3014,-2.3014,-2.3014,-2.3014,-2.2207,-2.1737,-2.1616,-2.0831,-2.0033,-1.8874,-1.8874,-1.8415,-1.7485,-1.7485,-1.7485,-2.8578,-2.8736,-2.8657,-2.8828,-2.8816,-2.9172,-3.0594,0.0,0.0,-3.3381,-3.3977,-3.452,-3.5449,-3.6368,-3.7219,-3.7994,-3.9394,-4.0498,-4.0829,-4.1823,-4.2651,-4.3015,-4.3123,-4.2634,-4.1255,-4.0459,-3.9353,0.0,0.0,-3.618,-3.5589,-3.5604,-3.5554,-3.5504,-3.5504,-3.5504,-3.5504,-3.4677,-3.4095,-3.3768,-3.2648,-3.1942,-3.1529,-3.1198,-3.0986,-3.0999,-3.1274,0.0,-3.1785,-3.2136,-3.2424,-3.2725,-3.3038,-3.3156,-3.306,-3.2222,-3.1551,-3.0978,-2.9908,-2.9198,-2.8757,-2.8757,-2.8757,-2.8757,-2.8757,-2.8757,-2.8757,-2.8757,-2.8664,-2.8581,-2.8581,-2.8477,-2.8373,-2.8196,-2.722,-2.6147,-2.5557,-2.3583,-2.181,-2.1725,-2.1361,-2.1179,-2.1179,-2.1314,-2.1481,-2.1663,-2.1695,-2.1759,-2.1934,-2.2251,-2.2537,-2.272,-2.2903,-2.3014,-2.3014,-2.3014,-2.3014,-2.3014,-2.3014,-2.278,-2.2312,-2.1851,-2.1159,-2.0249,-1.9802,-1.9113,-1.8181,-1.8181,-1.7948,-1.7485,-1.7485,-1.7485,-2.9052,-2.8961,-2.8882,-2.9052,-2.904,-2.9394,-3.1341,-3.1796,-3.2376,-3.4113,-3.4668,-3.5103,-3.5819,-3.6676,-3.7531,0.0,-3.9391,-4.0199,-4.0365,-4.1531,-4.241,-4.2576,-4.2858,0.0,-4.1855,-4.0767,0.0,0.0,0.0,0.0,-3.5504,-3.5504,-3.5504,-3.5504,-3.5504,-3.5504,-3.5504,-3.4905,-3.4394,-3.4041,-3.2918,-3.216,-3.1809,-3.1259,-3.0986,-3.0999,-3.1248,0.0,0.0,-3.2293,-3.2659,-3.3104,-3.3587,-3.3675,-3.3385,-3.2928,-3.2103,-3.1134,-3.026,-2.9382,-2.8757,-2.8757,-2.8757,-2.8757,-2.8757,-2.8757,-2.8757,-2.8757,-2.8571,-2.8395,-2.8395,-2.8196,-2.7998,-2.7904,-2.6147,-2.4384,-2.4384,-2.261,-2.0925,-2.0925,-2.0925,-2.0925,-2.0925,-2.0925,-2.1012,-2.1298,-2.1338,-2.1433,-2.1703,-2.1806,-2.1957,-2.2235,-2.2577,-2.2823,-2.2895,-2.2903,-2.2934,-2.3014,-2.3014,-2.2554,-2.1623,-2.1395,-2.0594,-1.8874,-1.8642,-1.8298,-1.7485,-1.7485,-1.7485,-1.7485,-1.7485,-1.7485,-2.8712,-2.9052,-2.9052,-2.9131,-2.9197,-2.9793,-3.1415,0.0,-3.2591,-3.4332,-3.5103,-3.5819,-3.6814,-3.7531,-3.8238,0.0,0.0,-3.9603,-4.0282,-4.1156,-4.2032,-4.2699,0.0,0.0,-4.1999,-4.1782,0.0,0.0,0.0,0.0,-3.5569,-3.5504,-3.5504,-3.5504,-3.5504,-3.5504,-3.5504,-3.5439,-3.4706,-3.3283,-3.3143,-3.2376,-3.1123,-3.1061,-3.0986,-3.1039,0.0,0.0,0.0,-3.3731,-3.4188,-3.4241,-3.4293,-3.3804,-3.2918,-3.2091,-3.1134,-3.017,-2.929,-2.8839,-2.8757,-2.8757,-2.8757,-2.8757,-2.8757,-2.8757,-2.8757,-2.8757,-2.8571,-2.8395,-2.8395,-2.8196,-2.7904,-2.7726,-2.5858,-2.4187,-2.4187,-2.2409,-2.0925,-2.0925,-2.0925,-2.0925,-2.0925,-2.0925,-2.0933,-2.0964,-2.0972,-2.098,-2.1012,-2.1298,-2.1513,-2.1544,-2.1854,-2.2188,-2.2506,-2.2537,-2.2672,-2.299,-2.3014,-2.2554,-2.1623,-2.0831,-1.9917,-1.8874,-1.8064,-1.7602,-1.7485,-1.7485,-1.7485,-1.7485,-1.7485,-1.7485,-2.9378,-2.9365,-2.9353,-2.9456,-2.9819,-3.0443,-3.1829,-3.2563,-3.3297,-3.4587,-3.5429,-3.6228,-3.6951,-3.7764,-3.859,0.0,0.0,0.0,-3.9337,-4.0391,-4.1297,-4.1581,-4.278,0.0,0.0,0.0,0.0,0.0,0.0,0.0,-3.4589,-3.4793,-3.4891,-3.4891,-3.4502,-3.4292,-3.4292,-3.4292,-3.401,-3.339,-3.2521,-3.1972,-3.17,-3.0804,-3.066,-3.1026,-3.1836,0.0,0.0,-3.3574,-3.411,-3.4397,-3.4397,-3.4134,-3.3687,-3.219,-3.14,-3.0789,-2.929,-2.8757,-2.8757,-2.8757,-2.8757,-2.8757,-2.8571,-2.8581,-2.8488,-2.8373,-2.8102,-2.7925,-2.7925,-2.7726,-2.7431,-2.6668,-2.5285,-2.389,-2.3311,-2.192,-2.0925,-2.0925,-2.0925,-2.0925,-2.0925,-2.0925,-2.0925,-2.0925,-2.0925,-2.0925,-2.0925,-2.1044,-2.1131,-2.1131,-2.1624,-2.2013,-2.2156,-2.2172,-2.2323,-2.2672,-2.2139,-2.1549,-2.0831,-1.9917,-1.8997,-1.8064,-1.7713,-1.7485,-1.7485,-1.7485,-1.7485,-1.7485,-1.7485,-1.7485,-2.9856,-2.9767,-2.9664,-2.9792,-3.0266,-3.1031,-3.2105,-3.2975,-3.3865,-3.4787,-3.5752,-3.6616,-3.7115,-3.8124,-3.8936,0.0,0.0,-3.9426,-3.8706,-3.9914,-4.0769,-4.0551,0.0,-4.2648,0.0,0.0,0.0,0.0,0.0,0.0,0.0,-3.3969,-3.4164,-3.4345,-3.3847,-3.3546,-3.3546,-3.3499,-3.33,-3.2897,-3.1846,-3.1358,-3.1295,-3.0281,-3.0111,-3.0516,0.0,0.0,0.0,-3.2764,-3.3404,-3.3914,-3.4084,-3.4087,-3.3869,-3.2451,-3.1665,-3.0956,-2.9635,-2.9024,-2.8757,-2.8757,-2.8757,-2.8757,-2.8384,-2.8301,-2.8301,-2.8092,-2.7809,-2.7641,-2.7547,-2.7452,-2.7061,-2.5994,-2.4894,-2.38,-2.2719,-2.1623,-2.0925,-2.0925,-2.0925,-2.0925,-2.0925,-2.0925,-2.0925,-2.0925,-2.0925,-2.0925,-2.0925,-2.0925,-2.0925,-2.0925,-2.1362,-2.1695,-2.1798,-2.1593,-2.1634,-2.1971,-2.1113,-2.037,-1.978,-1.9097,-1.8326,-1.7479,-1.7485,-1.7485,-1.7485,-1.7485,-1.7485,-1.7485,-1.7485,-1.7485,-2.9908,-3.0075,-3.0088,-2.9869,-3.0482,-3.1389,-3.2105,-3.3059,-3.407,-3.5001,-3.6228,-3.7175,-3.7531,-3.8606,-3.9537,-3.9677,-3.9677,0.0,-3.8706,-4.0001,-4.0709,0.0,0.0,-4.2016,-4.1288,0.0,0.0,0.0,0.0,0.0,0.0,-3.3347,-3.3302,-3.3924,-3.3759,-3.3713,-3.3713,-3.3546,-3.2771,-3.1387,-3.1387,-3.0664,-2.9358,-2.9287,-2.9287,0.0,0.0,0.0,0.0,-3.1315,-3.2202,-3.2777,-3.3365,-3.3405,-3.298,-3.2993,-3.184,-3.017,-3.017,-2.9555,-2.8757,-2.8757,-2.8757,-2.8653,-2.8186,-2.8196,-2.8301,-2.8092,-2.7809,-2.7536,-2.7347,-2.7262,-2.7061,-2.5994,-2.4894,-2.38,-2.2719,-2.1623,-2.0925,-2.0925,-2.0925,-2.0925,-2.0925,-2.0925,-2.0925,-2.0925,-2.0925,-2.0925,-2.0925,-2.0925,-2.0925,-2.0925,-2.0925,-2.1076,-2.1425,-2.0711,-2.0315,-2.073,-1.999,-1.9258,-1.8564,-1.8457,-1.825,-1.7479,-1.7485,-1.7485,-1.7485,-1.7485,-1.7485,-1.7485,-1.7485,-1.7485,-3.1609,-3.1829,-3.1756,-3.1756,-3.2335,-3.3059,-3.3394,-3.4259,-3.5184,-3.5961,-3.6919,-3.7748,-3.8246,-3.9135,-3.9798,-3.9849,-3.9935,0.0,0.0,0.0,0.0,-4.0172,-4.1053,-4.1562,0.0,0.0,0.0,0.0,0.0,0.0,0.0,-3.2869,-3.2817,-3.3271,-3.2788,-3.2503,-3.2402,-3.2344,-3.2035,-3.1452,-3.0549,-3.0076,-3.0047,-2.913,0.0,0.0,0.0,0.0,0.0,-3.0947,-3.1365,-3.1588,-3.2163,-3.2252,-3.2114,-3.1215,-3.0579,-2.9907,-2.862,-2.8021,-2.7763,-2.7763,-2.7763,-2.7684,-2.7424,-2.7693,-2.7998,-2.7631,-2.7441,-2.7357,-2.7357,-2.7262,-2.7061,-2.5994,-2.4894,-2.38,-2.2719,-2.1623,-2.0925,-2.0925,-2.0925,-2.0925,-2.0925,-2.0925,-2.0925,-2.0925,-2.0925,-2.0925,-2.0925,-2.0925,-2.0925,-2.0925,-2.0925,-2.0964,-2.1084,-2.0358,-1.9971,-2.03,-1.9031,-1.818,-1.8243,-1.778,-1.7473,-1.7213,-1.7394,-1.7485,-1.7485,-1.7485,-1.7485,-1.7485,-1.7485,-1.7485,-3.2806,-3.2933,-3.2862,-3.2792,-3.3449,-3.4109,-3.4148,-3.4957,-3.591,-3.6569,-3.7279,-3.8035,-3.8728,-3.9454,-3.9986,-4.0087,-4.0188,-3.9966,0.0,0.0,0.0,-4.0387,0.0,0.0,0.0,0.0,0.0,0.0,0.0,0.0,0.0,-3.2695,-3.2542,-3.276,-3.2307,-3.2053,-3.194,-3.1841,-3.1597,-3.1219,-3.0072,-2.9526,-2.9675,-2.8572,0.0,0.0,0.0,0.0,0.0,-2.9771,-3.0137,-3.0398,-3.0973,-3.1381,-3.1643,-3.0599,-3.0094,-2.9834,-2.8321,-2.7569,-2.7315,-2.7315,-2.7138,-2.705,-2.6904,-2.711,-2.7281,-2.692,-2.6868,-2.7003,-2.7003,-2.6832,-2.6476,-2.5382,-2.4295,-2.3211,-2.2123,-2.1318,-2.0925,-2.0925,-2.0925,-2.0925,-2.0925,-2.0925,-2.0925,-2.0925,-2.0925,-2.0925,-2.0925,-2.0925,-2.0925,-2.0925,-2.0609,-2.0403,-2.0403,-1.968,-1.9136,-1.912,-1.7749,-1.7124,-1.7391,-1.7024,-1.6833,-1.6942,-1.7201,-1.7334,-1.7334,-1.7436,-1.7485,-1.7485,-1.7485,-1.7485,0.0,-3.3614,-3.3545,-3.3338,-3.3969,-3.4618,-3.4618,-3.5335,0.0,-3.6845,-3.7413,-3.8076,-3.9036,-3.9697,-4.0188,-4.0485,-4.0485,-4.0246,0.0,-4.0107,0.0,0.0,-4.0483,0.0,0.0,0.0,0.0,0.0,0.0,0.0,0.0,-3.2749,-3.2398,-3.2398,-3.2302,-3.2191,-3.2191,-3.194,-3.1524,-3.0837,-2.995,-2.9205,-2.8546,-2.7842,0.0,0.0,0.0,0.0,0.0,-2.8098,-2.8647,-2.9209,-2.9784,-3.066,-3.1447,-3.0656,-3.017,-2.9666,-2.8785,-2.797,-2.7206,-2.7206,-2.6864,-2.6519,-2.6519,-2.6372,-2.6145,-2.5965,-2.6185,-2.6517,-2.6517,-2.6064,-2.5402,-2.4398,-2.3249,-2.2181,-2.1183,-2.0901,-2.0925,-2.0925,-2.0925,-2.0925,-2.0925,-2.0925,-2.0925,-2.0925,-2.0925,-2.0925,-2.0925,-2.0814,-2.0822,-2.0822,-2.0094,-1.9569,-1.9569,-1.8736,-1.7996,-1.7252,-1.6411,-1.6,-1.6241,-1.6272,-1.6404,-1.667,-1.6948,-1.7092,-1.7092,-1.7358,-1.7485,-1.7485,-1.7485,-1.7485,-3.5657,0.0,-3.54,-3.532,-3.5464,-3.5688,0.0,-3.5879,-3.6492,-3.7499,-3.7978,-3.8557,-3.9782,-4.0121,-4.0288,-4.0485,-4.0485,-4.0417,-4.0246,0.0,0.0,-4.0534,-4.0052,0.0,0.0,0.0,0.0,0.0,0.0,0.0,0.0,-3.2986,-3.2398,-3.2398,-3.2342,-3.2287,-3.2191,-3.215,-3.1925,-3.1539,-3.0329,-2.958,-2.9205,-2.8026,0.0,0.0,0.0,0.0,-2.7536,-2.7667,-2.7811,-2.7994,-2.8569,-2.8948,-2.9145,-2.8572,-2.8246,-2.8021,-2.6907,-2.6392,-2.6234,-2.6064,-2.5894,-2.5808,-2.5369,-2.5591,-2.5965,-2.5875,-2.5958,-2.6041,-2.6041,-2.5472,-2.4697,-2.451,-2.3217,-2.209,-2.1793,-2.1325,-2.0925,-2.0925,-2.0925,-2.0925,-2.0925,-2.0925,-2.0925,-2.0925,-2.0925,-2.0925,-2.0925,-2.0403,-1.999,-1.999,-1.9257,-1.8422,-1.7884,-1.7569,-1.7358,-1.7252,-1.6411,-1.5916,-1.5976,-1.6175,-1.632,-1.6398,-1.6857,-1.7092,-1.7092,-1.7358,-1.7485,-1.7485,-1.7485,-1.7485,-3.6336,-3.6414,-3.6226,-3.6226,-3.6226,-3.6226,-3.6226,-3.6289,-3.6677,-3.7978,-3.8334,-3.8832,-4.0221,-4.0502,-4.0551,-4.068,-4.068,0.0,0.0,0.0,-4.084,-4.068,0.0,0.0,0.0,0.0,0.0,0.0,0.0,0.0,0.0,-3.3161,-3.2523,-3.2523,-3.2453,-3.2342,-3.2287,-3.2247,-3.2094,-3.1883,-3.045,-2.969,-2.9442,-2.8078,-2.7523,0.0,0.0,0.0,-2.7523,-2.7523,-2.7523,-2.7562,-2.7863,-2.815,-2.8313,-2.7226,-2.7079,-2.7138,-2.5943,-2.5626,-2.5728,-2.5464,-2.538,-2.5211,-2.4956,-2.5044,-2.5264,-2.5264,-2.542,-2.5585,-2.5585,-2.4997,-2.4302,-2.383,-2.2673,-2.1599,-2.112,-2.0824,-2.0678,-2.0678,-2.0813,-2.0925,-2.0925,-2.0925,-2.0925,-2.0925,-2.0925,-2.0925,-2.0925,-2.0506,-2.0094,-1.9783,-1.8945,-1.8101,-1.7252,-1.6829,-1.6624,-1.6624,-1.6205,-1.5891,-1.5891,-1.6024,-1.6163,-1.6308,-1.6579,-1.6839,-1.7092,-1.7237,-1.7364,-1.7479,-1.7126,-1.7009,-3.6523,-3.6677,-3.6554,-3.6554,-3.6554,-3.6554,-3.6554,-3.6554,-3.6952,-3.8181,-3.8407,-3.8832,-4.0204,-4.0485,0.0,-4.0728,0.0,0.0,-4.0888,-4.1,-4.0995,-4.0763,0.0,0.0,0.0,0.0,0.0,0.0,0.0,0.0,0.0,-3.3282,-3.2594,-3.2594,-3.2453,-3.2398,-3.2398,-3.2302,-3.2135,-3.1981,-3.0569,-2.9752,-2.9504,-2.8143,-2.7523,0.0,0.0,0.0,-2.7523,-2.7523,-2.7523,-2.7523,-2.7523,-2.7756,-2.7898,-2.6539,-2.6332,-2.6593,-2.5641,-2.5474,-2.5559,-2.5295,-2.5031,-2.4861,-2.4861,-2.47,-2.454,-2.454,-2.483,-2.513,-2.513,-2.4486,-2.3731,-2.288,-2.1819,-2.0833,-1.9982,-2.0067,-2.0313,-2.0313,-2.0599,-2.0845,-2.0845,-2.0885,-2.0925,-2.0925,-2.0925,-2.0925,-2.0925,-2.0814,-2.0403,-1.9576,-1.8736,-1.7891,-1.7041,-1.6311,-1.5891,-1.5891,-1.5891,-1.5891,-1.5891,-1.5891,-1.6,-1.6241,-1.6272,-1.6507,-1.6852,-1.6936,-1.6976,-1.7184,-1.6638,-1.6301,-3.68,-3.6938,-3.6938,-3.6938,-3.6938,-3.6938,-3.6938,-3.6938,-3.7105,-3.7812,-3.7985,-3.8254,0.0,-3.961,-3.9986,0.0,0.0,-4.0888,0.0,0.0,-4.0676,0.0,0.0,0.0,0.0,0.0,0.0,0.0,0.0,0.0,0.0,0.0,-3.2594,-3.2594,-3.2453,-3.2398,-3.2398,-3.2398,-3.2287,-3.2135,-3.0674,-2.9889,-2.969,-2.8208,-2.7523,0.0,0.0,-2.7523,-2.7523,-2.7523,-2.7523,-2.7523,-2.7523,-2.7172,-2.6659,-2.6189,-2.5887,-2.5807,-2.5798,-2.5673,-2.5559,-2.5295,-2.5031,-2.4861,-2.4615,-2.454,-2.454,-2.454,-2.4592,-2.4654,-2.4654,-2.3359,-2.2057,-2.1878,-2.0778,-1.9637,-1.9542,-1.9709,-1.9948,-1.9948,-2.0234,-2.0472,-2.0472,-2.0726,-2.0925,-2.0925,-2.0925,-2.0925,-2.0925,-2.03,-1.9569,-1.8736,-1.7891,-1.7047,-1.6205,-1.5998,-1.5891,-1.5891,-1.5891,-1.5891,-1.5891,-1.5891,-1.591,-1.5952,-1.6169,-1.6101,-1.5637,-1.6069,-1.6068,-1.5643,-1.5735,-1.5715,-3.6968,-3.7089,-3.7165,-3.7241,-3.7121,-3.7015,-3.7015,-3.7015,-3.7165,-3.7886,0.0,0.0,0.0,0.0,-3.961,-3.9952,0.0,-4.0888,-4.0888,0.0,0.0,0.0,0.0,0.0,0.0,0.0,0.0,0.0,0.0,0.0,0.0,0.0,-3.2773,-3.2773,-3.2523,-3.2398,-3.2398,-3.2398,-3.216,-3.1652,-3.0555,-2.9766,-2.9219,-2.8026,-2.7523,-2.7523,0.0,-2.7523,-2.7523,-2.7523,-2.7706,-2.7994,-2.7994,-2.7971,-2.7851,-2.6858,-2.6019,-2.5371,-2.5338,-2.5333,-2.538,-2.5115,-2.4861,-2.4615,-2.454,-2.454,-2.454,-2.454,-2.454,-2.454,-2.454,-2.3464,-2.2306,-2.1784,-2.0759,-1.9709,-1.9167,-1.9352,-1.9598,-1.9598,-1.9876,-2.0106,-2.0106,-2.04,-2.0639,-2.0639,-2.0798,-2.0925,-2.0925,-2.0197,-1.9368,-1.8527,-1.7681,-1.6836,-1.5992,-1.5891,-1.5891,-1.5891,-1.5891,-1.5891,-1.5891,-1.5891,-1.5785,-1.5464,-1.5581,-1.5378,-1.4961,-1.5188,-1.5319,-1.5235,-1.4998,-1.4996,-3.7074,-3.7254,-3.7329,-3.7464,-3.7301,-3.7136,-3.7136,-3.7136,-3.7301,0.0,0.0,0.0,0.0,-3.892,0.0,-3.98,-4.0237,0.0,0.0,0.0,0.0,0.0,0.0,0.0,0.0,0.0,0.0,0.0,0.0,0.0,0.0,0.0,-3.2897,-3.2897,-3.2578,-3.2398,-3.2398,-3.2398,-3.2048,-3.1233,-3.0435,-2.958,-2.8853,-2.7908,-2.7523,-2.7523,-2.7523,-2.7523,-2.7523,-2.7523,-2.7863,-2.8386,-2.8386,-2.8529,-2.8545,-2.7245,-2.6083,-2.5185,-2.5038,-2.5069,-2.52,-2.4946,-2.47,-2.454,-2.454,-2.454,-2.454,-2.454,-2.4358,-2.4186,-2.4454,-2.3637,-2.257,-2.1872,-2.0791,-1.972,-1.9004,-1.9042,-1.9248,-1.9248,-1.9519,-1.9749,-1.9749,-2.0043,-2.0265,-2.0265,-2.0567,-2.0696,-2.0484,-2.004,-1.9257,-1.8206,-1.7575,-1.6836,-1.5992,-1.5891,-1.5891,-1.5891,-1.5891,-1.5891,-1.5678,-1.5678,-1.5464,-1.4821,-1.4821,-1.4694,-1.4329,-1.4382,-1.4484,-1.4724,-1.4205,-1.3991,-3.721,-3.748,-3.748,-3.748,-3.748,-3.748,-3.748,-3.748,-3.748,-3.7524,0.0,0.0,0.0,-3.8042,-3.8613,-3.9489,-3.9454,0.0,0.0,0.0,0.0,0.0,0.0,0.0,0.0,0.0,0.0,0.0,0.0,0.0,0.0,0.0,0.0,-3.2897,-3.2578,-3.2398,-3.2398,-3.2398,-3.2104,-3.148,-3.0495,-2.9628,-2.8939,-2.796,-2.7523,-2.7523,-2.7523,-2.7523,-2.7523,-2.7523,-2.7863,-2.8386,-2.8386,-2.7868,-2.701,-2.6555,-2.5904,-2.524,-2.5438,-2.5348,-2.52,-2.4946,-2.47,-2.454,-2.454,-2.454,-2.454,-2.454,-2.3907,-2.3367,-2.4272,-2.3115,-2.1784,-2.1695,-2.0266,-1.892,-1.8827,-1.8851,-1.8867,-1.8867,-1.9161,-1.9407,-1.9407,-1.9677,-1.9908,-1.9908,-2.0202,-2.0123,-1.9302,-1.9478,-1.9042,-1.7463,-1.7252,-1.6836,-1.5992,-1.5891,-1.5891,-1.5891,-1.5891,-1.5678,-1.5035,-1.5035,-1.4821,-1.4277,-1.4277,-1.3964,-1.334,-1.3537,-1.3436,-1.2926,-1.3117,-1.2841,-3.7225,-3.748,-3.748,-3.748,-3.748,-3.748,0.0,-3.748,-3.7539,-3.7727,-3.7642,0.0,0.0,0.0,-3.8772,-3.9242,0.0,0.0,0.0,0.0,0.0,0.0,0.0,0.0,0.0,0.0,0.0,0.0,0.0,0.0,0.0,0.0,0.0,-3.2897,-3.2578,-3.2398,-3.2398,-3.2398,-3.1864,-3.0881,-3.0269,-2.947,-2.843,-2.7789,-2.7523,-2.7523,-2.7523,-2.7523,-2.7523,-2.7523,-2.7863,-2.8451,-2.9183,-2.9142,-2.8568,-2.7896,-2.7013,-2.6177,-2.5735,-2.538,-2.5031,-2.4946,-2.47,-2.454,-2.454,-2.454,-2.454,-2.454,-2.4272,-2.3907,-2.3724,-2.2217,-2.0799,-2.0799,-1.9812,-1.8827,-1.8827,-1.8827,-1.8827,-1.8827,-1.8939,-1.9034,-1.9034,-1.9328,-1.9558,-1.9558,-1.9844,-1.9842,-1.9142,-1.8775,-1.8205,-1.7338,-1.673,-1.6311,-1.5891,-1.5891,-1.5891,-1.5891,-1.5571,-1.525,-1.5041,-1.4713,-1.4283,-1.3635,-1.3635,-1.331,-1.2767,-1.2845,-1.2851,-1.2767,-1.2271,-1.1946,-3.6769,-3.7089,-3.7225,-3.7225,-3.7345,0.0,-3.748,-3.7583,-3.7685,-3.7886,-3.786,-3.7817,-3.8017,0.0,0.0,0.0,0.0,0.0,0.0,0.0,0.0,0.0,0.0,0.0,0.0,0.0,0.0,0.0,0.0,0.0,0.0,0.0,0.0,0.0,-3.2523,-3.2398,-3.2398,-3.2342,-3.1694,-3.0375,-3.0072,-2.9282,-2.8079,-2.7669,-2.7523,-2.7523,-2.7523,-2.7523,-2.7523,-2.7523,-2.7863,-2.8477,-2.9171,-2.9276,-2.8811,-2.8016,-2.7082,-2.6174,-2.5622,-2.5211,-2.4861,-2.4775,-2.4615,-2.454,-2.454,-2.454,-2.454,-2.454,-2.4272,-2.382,-2.2931,-2.1676,-2.0709,-2.0339,-1.9538,-1.8827,-1.8827,-1.8827,-1.8827,-1.8827,-1.8827,-1.8827,-1.8827,-1.9034,-1.9201,-1.9201,-1.9495,-1.94,-1.8537,-1.8053,-1.7517,-1.6774,-1.6262,-1.5891,-1.5891,-1.5891,-1.5891,-1.5891,-1.5143,-1.4713,-1.4713,-1.4169,-1.3635,-1.2989,-1.2985,-1.2767,-1.2441,-1.2441,-1.2517,-1.2663,-1.1984,-1.1522,-3.5785,-3.6321,-3.6723,-3.6723,0.0,0.0,-3.748,-3.7685,-3.7886,-3.7886,-3.8148,-3.8391,-3.8391,-3.8391,0.0,0.0,0.0,0.0,0.0,0.0,0.0,0.0,0.0,0.0,0.0,0.0,0.0,0.0,0.0,0.0,0.0,0.0,0.0,0.0,-3.2453,-3.2398,-3.2398,-3.2247,-3.1522,-3.0211,-2.9936,-2.9219,-2.8079,-2.7669,-2.7523,-2.7523,-2.7523,-2.7523,-2.7523,-2.7523,-2.7863,-2.8369,-2.8206,-2.7779,-2.7167,-2.637,-2.5743,-2.52,-2.4946,-2.4861,-2.4861,-2.4625,-2.454,-2.454,-2.454,-2.454,-2.454,-2.454,-2.382,-2.2921,-2.1961,-2.1695,-2.1427,-2.0529,-1.9538,-1.8827,-1.8827,-1.8827,-1.8827,-1.8827,-1.8827,-1.8827,-1.8827,-1.8827,-1.8827,-1.8827,-1.9137,-1.8781,-1.7237,-1.7309,-1.7015,-1.567,-1.5728,-1.5885,-1.5885,-1.5891,-1.5891,-1.5891,-1.4809,-1.4169,-1.4169,-1.3635,-1.2985,-1.2441,-1.2441,-1.2441,-1.2441,-1.2441,-1.2441,-1.2436,-1.2327,-1.1555,-3.5785,-3.6054,-3.6243,-3.6585,0.0,0.0,0.0,-3.7685,0.0,0.0,-3.8303,-3.8453,-3.7728,0.0,0.0,0.0,0.0,0.0,0.0,0.0,0.0,0.0,0.0,0.0,0.0,0.0,0.0,0.0,0.0,0.0,0.0,0.0,0.0,0.0,-3.2453,-3.2398,-3.2398,-3.2247,-3.1522,-3.0211,-2.9936,-2.9156,-2.7855,-2.759,-2.7523,-2.7523,-2.7523,-2.7523,-2.7523,-2.7523,-2.7863,-2.8399,-2.8151,-2.8507,-2.8875,-2.7335,-2.6794,-2.6659,-2.5359,-2.4786,-2.4625,-2.454,-2.454,-2.454,-2.454,-2.454,-2.454,-2.454,-2.382,-2.2921,-2.1961,-2.1239,-2.0439,-1.9455,-1.9004,-1.8827,-1.8827,-1.8827,-1.8827,-1.8827,-1.8827,-1.8827,-1.8827,-1.8827,-1.8827,-1.8827,-1.8443,-1.7734,-1.6316,-1.5924,-1.5638,-1.5215,-1.5457,-1.5614,-1.5614,-1.5783,-1.5891,-1.5891,-1.4809,-1.4169,-1.4169,-1.3197,-1.255,-1.2441,-1.2441,-1.2441,-1.2441,-1.2441,-1.211,-1.1455,-1.0899,-0.9938,-3.5219,-3.5479,-3.5672,-3.6006,-3.6258,-3.6507,-3.6937,0.0,0.0,0.0,-3.8303,-3.8469,-3.7825,-3.7649,0.0,0.0,0.0,0.0,0.0,0.0,0.0,0.0,0.0,0.0,0.0,0.0,0.0,0.0,0.0,0.0,0.0,0.0,0.0,0.0,-3.2453,-3.2398,-3.2342,-3.2191,-3.1407,-3.0043,-2.9813,-2.8953,-2.7656,-2.759,-2.7523,-2.7523,-2.7523,-2.7523,-2.7523,-2.7523,-2.7732,-2.7965,-2.7485,-2.7812,-2.8321,-2.6623,-2.6246,-2.6307,-2.5126,-2.4625,-2.454,-2.454,-2.454,-2.454,-2.454,-2.454,-2.454,-2.454,-2.409,-2.3377,-2.205,-2.1248,-2.0529,-1.9096,-1.8827,-1.8827,-1.8827,-1.8827,-1.8827,-1.8827,-1.8827,-1.8827,-1.8827,-1.8827,-1.8827,-1.8827,-1.7885,-1.6914,-1.5763,-1.527,-1.495,-1.495,-1.5185,-1.5342,-1.5342,-1.5584,-1.5629,-1.5417,-1.4652,-1.4062,-1.3851,-1.2871,-1.2441,-1.2441,-1.2441,-1.2441,-1.2441,-1.2001,-1.1564,-1.1126,-1.0241,-0.9361,-3.4414,-3.4735,-3.5103,-3.5169,-3.5544,0.0,-3.6259,-3.7071,-3.7754,-3.7812,0.0,-3.8319,-3.8254,0.0,0.0,0.0,0.0,0.0,0.0,0.0,0.0,0.0,0.0,0.0,0.0,0.0,0.0,0.0,0.0,0.0,0.0,0.0,0.0,0.0,-3.2398,-3.2342,-3.2191,-3.2053,-3.1248,0.0,-2.9566,-2.8826,-2.7523,-2.7523,-2.7523,-2.7523,-2.7523,-2.7523,-2.7523,-2.7523,-2.7523,-2.739,-2.6552,-2.6379,-2.6481,-2.5142,-2.481,-2.5011,-2.4577,-2.4509,-2.454,-2.454,-2.454,-2.454,-2.454,-2.454,-2.454,-2.454,-2.4454,-2.3917,-2.2138,-2.1606,-2.1069,-1.9279,-1.8827,-1.8827,-1.8827,-1.8827,-1.8827,-1.8827,-1.8827,-1.8827,-1.8827,-1.8827,-1.8735,-1.8643,-1.7426,-1.6298,-1.5439,-1.4905,-1.4678,-1.4678,-1.4914,-1.5071,-1.4969,-1.5209,-1.5151,-1.4526,-1.4205,-1.3793,-1.3285,-1.2758,-1.2441,-1.2441,-1.2441,-1.2332,-1.2332,-1.1455,-1.1017,-1.0798,-1.0021,-0.9251,-3.4414,-3.4467,0.0,-3.5103,-3.5544,-3.5913,-3.5961,-3.615,-3.6523,-3.7131,-3.7546,-3.7636,-3.7238,0.0,0.0,0.0,0.0,0.0,0.0,0.0,0.0,0.0,0.0,0.0,0.0,0.0,0.0,0.0,0.0,0.0,0.0,0.0,0.0,-3.2247,-3.2247,-3.2191,-3.2038,-3.1883,-3.1146,0.0,-2.9566,-2.8826,-2.7523,-2.7523,-2.7523,-2.7523,-2.7523,-2.7523,-2.7523,-2.7523,-2.7523,-2.7456,-2.6998,-2.7125,-2.7314,-2.544,-2.5304,-2.5858,-2.446,-2.425,-2.454,-2.454,-2.454,-2.454,-2.454,-2.454,-2.454,-2.454,-2.4003,-2.3105,-2.1961,-2.115,-2.0257,-1.9096,-1.8827,-1.8827,-1.8827,-1.8827,-1.8827,-1.8827,-1.8827,-1.8827,-1.8827,-1.8827,-1.8458,-1.7239,-1.677,-1.6109,-1.4675,-1.4443,-1.4389,-1.4389,-1.4636,-1.46,-1.4196,-1.4422,-1.4362,-1.374,-1.3278,-1.308,-1.3037,-1.2675,-1.2441,-1.2441,-1.2441,-1.211,-1.1345,-1.1236,-1.0359,-0.9034,-0.8813,-0.8263,-3.4864,-3.4646,0.0,-3.4735,0.0,-3.5169,-3.5169,-3.5169,-3.535,-3.6024,-3.6508,-3.6841,0.0,0.0,0.0,0.0,0.0,0.0,0.0,0.0,0.0,0.0,0.0,0.0,0.0,0.0,0.0,0.0,0.0,0.0,0.0,-3.2453,-3.2342,-3.2287,-3.2247,-3.215,-3.1996,-3.1841,-3.1087,-2.9628,-2.9566,-2.8826,-2.7523,-2.7523,-2.7523,-2.7523,-2.7523,-2.7469,-2.7403,-2.7403,-2.7335,-2.7201,-2.693,-2.681,-2.6574,-2.5304,-2.5054,-2.5203,-2.427,-2.4167,-2.454,-2.454,-2.454,-2.454,-2.454,-2.454,-2.454,-2.454,-2.4186,-2.3464,-2.205,-2.1338,-2.0619,-1.9188,-1.8827,-1.8827,-1.8827,-1.8827,-1.8827,-1.8827,-1.8827,-1.8827,-1.8827,-1.8827,-1.8265,-1.6864,-1.6588,-1.6015,-1.449,-1.4298,-1.4298,-1.4298,-1.4237,-1.4033,-1.3733,-1.3757,-1.3494,-1.2978,-1.2787,-1.2595,-1.2392,-1.2288,-1.2342,-1.2436,-1.2001,-1.1564,-1.1126,-1.0245,-0.9364,-0.8484,-0.8042,-0.7598,-3.5427,-3.4893,-3.4414,-3.4414,-3.4414,0.0,-3.4414,-3.4414,-3.4534,-3.4986,-3.5415,0.0,0.0,0.0,0.0,0.0,0.0,0.0,0.0,0.0,0.0,0.0,0.0,0.0,0.0,0.0,0.0,0.0,0.0,0.0,-3.2398,-3.2398,-3.2342,-3.2342,-3.2191,-3.2038,-3.194,-3.1784,-3.097,-2.9504,-2.9268,-2.8583,-2.7523,-2.7523,-2.7523,-2.7523,-2.7469,-2.7403,-2.7268,-2.7268,-2.7146,-2.6943,-2.6794,-2.6289,-2.5535,-2.4885,-2.4455,-2.4176,-2.3906,-2.4053,-2.4436,-2.4519,-2.454,-2.454,-2.454,-2.454,-2.454,-2.454,-2.454,-2.41,-2.2227,-2.1695,-2.1248,-1.9279,-1.8827,-1.8827,-1.8827,-1.8827,-1.8827,-1.8827,-1.8827,-1.8827,-1.8827,-1.8735,-1.8172,-1.677,-1.6487,-1.5825,-1.4394,-1.4202,-1.4106,-1.401,-1.363,-1.3346,-1.3249,-1.3133,-1.2746,-1.2144,-1.2324,-1.2245,-1.1765,-1.194,-1.2037,-1.2163,-1.1437,-1.0907,-1.0688,-0.9254,-0.8374,-0.8263,-0.7487,-0.7154,-3.5427,0.0,-3.4414,0.0,-3.4414,-3.4414,0.0,0.0,-3.4414,0.0,0.0,0.0,0.0,0.0,0.0,0.0,0.0,0.0,0.0,0.0,0.0,0.0,0.0,0.0,0.0,0.0,0.0,0.0,0.0,0.0,-3.2398,-3.2302,-3.2191,-3.2038,-3.194,-3.1784,-3.1597,-3.1539,-3.0837,-2.9504,-2.8338,-2.7643,-2.7523,-2.7523,-2.7523,-2.7456,-2.7403,-2.7335,-2.7268,-2.7079,-2.7024,-2.6943,-2.6794,-2.6289,-2.5499,-2.455,-2.4026,-2.3698,-2.3423,-2.3577,-2.4033,-2.4416,-2.454,-2.454,-2.454,-2.454,-2.454,-2.454,-2.454,-2.41,-2.2227,-2.1695,-2.1248,-1.9279,-1.8827,-1.8827,-1.8827,-1.8827,-1.8827,-1.8827,-1.8827,-1.8827,-1.8827,-1.8257,-1.7598,-1.677,-1.6008,-1.5057,-1.3823,-1.3636,-1.3437,-1.305,-1.2958,-1.2662,-1.2273,-1.2201,-1.1923,-1.1334,-1.1358,-1.1463,-1.1553,-1.1586,-1.1362,-1.0975,-1.1042,-1.0355,-0.8816,-0.8595,-0.8152,-0.7376,-0.7265,-0.7154,-3.5024,-3.4617,-3.4414,0.0,-3.4414,-3.4414,-3.4414,-3.4414,-3.4414,-3.4414,0.0,0.0,0.0,0.0,0.0,0.0,0.0,0.0,0.0,0.0,0.0,0.0,0.0,0.0,0.0,0.0,0.0,0.0,0.0,-3.1564,-3.1174,-3.1392,-3.1522,-3.1422,-3.1321,-3.1409,-3.167,-3.1161,-3.0208,-2.8839,-2.7842,-2.7335,-2.7214,-2.7214,-2.7268,-2.7403,-2.7335,-2.7201,-2.693,-2.6863,-2.6807,-2.6739,-2.6589,-2.5861,-2.4696,-2.4253,-2.3627,-2.3012,-2.3179,-2.3494,-2.395,-2.4395,-2.454,-2.454,-2.454,-2.454,-2.454,-2.454,-2.409,-2.3377,-2.205,-2.1338,-2.0529,-1.9188,-1.8827,-1.8827,-1.8827,-1.8827,-1.8827,-1.8827,-1.8827,-1.8643,-1.8257,-1.7878,-1.7217,-1.571,-1.5242,-1.4573,-1.3244,-1.3152,-1.3055,-1.2861,-1.2565,-1.2273,-1.1975,-1.1683,-1.1487,-1.1194,-1.1194,-1.1236,-1.1335,-1.1453,-1.0985,-0.9804,-1.0075,-0.9607,-0.8484,-0.8042,-0.7598,-0.7154,-0.7154,-0.7154,-3.4951,0.0,-3.4414,-3.4414,-3.4414,-3.4414,0.0,0.0,-3.4414,0.0,0.0,0.0,0.0,0.0,0.0,0.0,0.0,0.0,0.0,0.0,0.0,0.0,0.0,0.0,0.0,0.0,0.0,0.0,0.0,-3.0719,-3.0165,-3.048,-3.0674,-3.0674,-3.0569,-3.0703,-3.1219,-3.0404,-2.9407,-2.8287,-2.759,-2.7214,-2.7024,-2.7024,-2.7079,-2.7134,-2.7134,-2.6998,-2.6714,-2.6658,-2.6589,-2.6533,-2.6533,-2.5511,-2.4108,-2.4108,-2.3337,-2.2387,-2.2853,-2.3318,-2.3774,-2.4229,-2.4447,-2.454,-2.454,-2.454,-2.4454,-2.4176,-2.3637,-2.2833,-2.1686,-2.0791,-2.0076,-1.9004,-1.8827,-1.8827,-1.8827,-1.8827,-1.8827,-1.8827,-1.8643,-1.8357,-1.7785,-1.7311,-1.6459,-1.4943,-1.4376,-1.3806,-1.2759,-1.2565,-1.2565,-1.237,-1.2078,-1.1785,-1.1785,-1.1389,-1.1194,-1.1194,-1.1194,-1.1194,-1.1194,-1.1151,-1.0449,-0.9075,-0.8999,-0.879,-0.8103,-0.7473,-0.7154,-0.7154,-0.7154,-0.7154,-3.5488,-3.4878,0.0,-3.4414,-3.4414,-3.4414,0.0,0.0,0.0,0.0,0.0,0.0,0.0,0.0,0.0,0.0,0.0,0.0,0.0,0.0,0.0,0.0,0.0,0.0,0.0,0.0,0.0,0.0,0.0,-3.0165,-3.0011,-2.995,-2.9875,-2.9875,-2.969,-2.9566,-2.9628,-2.8967,-2.8468,-2.8287,-2.759,-2.7214,-2.7024,-2.7024,-2.6875,-2.6714,-2.6714,-2.6714,-2.6714,-2.6589,-2.6533,-2.6533,-2.6533,-2.5511,-2.4108,-2.4108,-2.3128,-2.1901,-2.2366,-2.2832,-2.3298,-2.3764,-2.4198,-2.454,-2.454,-2.454,-2.4272,-2.3454,-2.3096,-2.2658,-2.0881,-2.0339,-2.0076,-1.9004,-1.8827,-1.8827,-1.8827,-1.8827,-1.8827,-1.8827,-1.8257,-1.7785,-1.7692,-1.6082,-1.4854,-1.4752,-1.3715,-1.2662,-1.2078,-1.2078,-1.1883,-1.1296,-1.1296,-1.1194,-1.1194,-1.1198,-1.1194,-1.1194,-1.1194,-1.1194,-1.1194,-1.052,-0.9717,-0.8969,-0.8272,-0.7589,-0.7103,-0.721,-0.7154,-0.7154,-0.7154,-0.7154,-3.5532,0.0,0.0,-3.4414,-3.4414,-3.4414,-3.4414,-3.4414,0.0,0.0,0.0,0.0,0.0,0.0,0.0,0.0,0.0,0.0,0.0,0.0,0.0,0.0,0.0,0.0,0.0,0.0,0.0,0.0,0.0,0.0,-2.8583,-2.8839,-2.8967,-2.8967,-2.8532,-2.8133,-2.7659,-2.7427,-2.6943,-2.622,-2.5974,-2.5792,-2.5608,-2.5608,-2.5719,-2.5967,-2.5967,-2.6181,-2.6589,-2.6521,-2.6533,-2.6533,-2.6533,-2.5511,-2.4108,-2.4108,-2.3106,-2.188,-2.2335,-2.2801,-2.3267,-2.3732,-2.4178,-2.454,-2.454,-2.454,-2.4272,-2.3367,-2.2658,-2.1952,-2.061,-1.9812,-1.9271,-1.892,-1.8827,-1.8827,-1.8827,-1.8827,-1.8827,-1.8827,-1.8164,-1.7505,-1.7044,-1.571,-1.4376,-1.3619,-1.2754,-1.2078,-1.1585,-1.1487,-1.1389,-1.1194,-1.1194,-1.1194,-1.1194,-1.1194,-1.1194,-1.1194,-1.1194,-1.0998,-1.0413,-1.0117,-0.9351,-0.8109,-0.7899,-0.7574,-0.6986,-0.7027,-0.7084,-0.7154,-0.7154,-0.7154,-3.5793,-3.5053,0.0,0.0,0.0,-3.4414,-3.4414,0.0,0.0,0.0,0.0,0.0,0.0,0.0,0.0,0.0,0.0,0.0,0.0,0.0,0.0,0.0,0.0,0.0,0.0,0.0,0.0,0.0,0.0,0.0,-2.7723,-2.7973,-2.8063,-2.7798,-2.73,-2.6729,-2.6193,-2.6131,-2.5834,-2.5116,-2.5116,-2.5,-2.482,-2.482,-2.5008,-2.5335,-2.5335,-2.5762,-2.6533,-2.6533,-2.6314,-2.6094,-2.6094,-2.5146,-2.3694,-2.3694,-2.2894,-2.1849,-2.2159,-2.2563,-2.3029,-2.3494,-2.395,-2.4343,-2.4498,-2.454,-2.4272,-2.3018,-2.2227,-2.1427,-2.0167,-1.9271,-1.8827,-1.8827,-1.8827,-1.8827,-1.8827,-1.8827,-1.8827,-1.8827,-1.7878,-1.6936,-1.6386,-1.4949,-1.3516,-1.2662,-1.2078,-1.1585,-1.1292,-1.1194,-1.1194,-1.1194,-1.1194,-1.1194,-1.1194,-1.1194,-1.1194,-1.1194,-1.0998,-1.0609,-1.0019,-0.9521,-0.8726,-0.763,-0.7421,-0.7173,-0.6864,-0.6945,-0.7024,-0.7097,-0.7135,-0.7154,0.0,0.0,0.0,0.0,0.0,0.0,-3.4414,0.0,0.0,0.0,0.0,0.0,0.0,0.0,0.0,0.0,0.0,0.0,0.0,0.0,0.0,0.0,0.0,0.0,0.0,0.0,0.0,0.0,0.0,-2.7723,-2.7523,-2.751,-2.7157,-2.6349,-2.5832,-2.5471,-2.5256,-2.5243,-2.5192,-2.5065,-2.5065,-2.495,-2.477,-2.477,-2.4782,-2.4795,-2.4795,-2.541,-2.6483,-2.6427,-2.6,-2.5288,-2.53,-2.4371,-2.3001,-2.3001,-2.2478,-2.1807,-2.1807,-2.2108,-2.2573,-2.3039,-2.3505,-2.396,-2.4405,-2.454,-2.41,-2.2227,-2.1695,-2.1248,-1.9271,-1.8827,-1.8827,-1.8827,-1.8827,-1.8827,-1.8827,-1.8827,-1.8827,-1.8827,-1.7217,-1.5798,-1.5798,-1.3698,-1.198,-1.198,-1.1585,-1.1194,-1.1194,-1.1194,-1.1194,-1.1194,-1.1194,-1.1194,-1.1194,-1.1198,-1.1194,-1.1194,-1.0413,-0.992,-0.992,-0.8425,-0.763,-0.7531,-0.6833,-0.6494,-0.6616,-0.6858,-0.6978,-0.6983,-0.7097,-0.7152,-3.6446,0.0,0.0,0.0,0.0,0.0,0.0,0.0,0.0,0.0,0.0,0.0,0.0,0.0,0.0,0.0,0.0,0.0,0.0,0.0,0.0,0.0,0.0,0.0,0.0,0.0,0.0,0.0,-2.7656,-2.759,-2.7523,-2.7131,-2.6387,-2.5198,-2.5016,-2.4622,-2.392,-2.392,-2.3847,-2.3651,-2.3651,-2.359,-2.3602,-2.3602,-2.3828,-2.423,-2.423,-2.4619,-2.5231,-2.5136,-2.4953,-2.4701,-2.4495,-2.3852,-2.3001,-2.3001,-2.2478,-2.1807,-2.1807,-2.2108,-2.2573,-2.3039,-2.3505,-2.396,-2.4405,-2.454,-2.41,-2.2227,-2.1695,-2.1248,-1.9271,-1.8827,-1.8827,-1.8827,-1.8827,-1.8743,-1.8566,-1.8566,-1.8566,-1.8566,-1.6936,-1.5501,-1.5501,-1.3601,-1.198,-1.198,-1.1585,-1.1194,-1.1194,-1.1194,-1.1194,-1.1194,-1.1194,-1.1194,-1.1194,-1.0703,-1.0314,-1.0314,-0.962,-0.8825,-0.8326,-0.7829,-0.7332,-0.6734,-0.6537,-0.6453,-0.6486,-0.6643,-0.6766,-0.6855,-0.6975,-0.7076,-3.6028,-3.5325,-3.4625,-3.369,0.0,0.0,-3.3701,-3.3563,0.0,0.0,0.0,0.0,0.0,0.0,0.0,0.0,0.0,0.0,0.0,0.0,0.0,0.0,0.0,0.0,0.0,0.0,0.0,-2.6744,-2.662,-2.6587,-2.6693,-2.6427,-2.5764,-2.4658,-2.4352,-2.3888,-2.3271,-2.3271,-2.321,-2.3078,-2.3078,-2.3078,-2.3078,-2.3078,-2.3131,-2.3244,-2.3244,-2.3229,-2.324,-2.303,-2.335,-2.3979,-2.3481,-2.3014,-2.2478,-2.2478,-2.2176,-2.1807,-2.1807,-2.1983,-2.2283,-2.2749,-2.3215,-2.3681,-2.4126,-2.4118,-2.3647,-2.2138,-2.1159,-2.0266,-1.9096,-1.8827,-1.8827,-1.8827,-1.8827,-1.8743,-1.8574,-1.8381,-1.8288,-1.8288,-1.6553,-1.5026,-1.5026,-1.3216,-1.1683,-1.1683,-1.1389,-1.1194,-1.1194,-1.1194,-1.1194,-1.1194,-1.1194,-1.1194,-1.1194,-1.0507,-1.0019,-1.0019,-0.8924,-0.8127,-0.763,-0.7232,-0.6833,-0.6437,-0.6437,-0.6437,-0.6437,-0.6559,-0.6681,-0.6804,-0.6929,-0.7021,-3.5288,-3.4612,-3.3765,-3.2477,-3.2632,0.0,-3.2618,-3.2259,-3.2114,0.0,0.0,0.0,0.0,0.0,0.0,0.0,0.0,0.0,0.0,0.0,0.0,0.0,0.0,0.0,0.0,-2.5742,-2.5405,-2.5312,-2.53,-2.5269,-2.5386,-2.5396,-2.5113,-2.4413,-2.3742,-2.333,-2.3078,-2.3078,-2.3078,-2.3078,-2.3078,-2.3078,-2.3078,-2.3078,-2.275,-2.2101,-2.2101,-2.1741,-2.1106,-2.0831,-2.1607,-2.2922,-2.2303,-2.1903,-2.1725,-2.1725,-2.1766,-2.1807,-2.1807,-2.1807,-2.188,-2.2346,-2.2811,-2.3277,-2.3743,-2.3564,-2.2921,-2.1863,-2.0257,-1.8827,-1.8827,-1.8827,-1.8827,-1.8827,-1.8827,-1.8743,-1.8473,-1.8187,-1.7893,-1.7893,-1.6082,-1.4555,-1.4459,-1.2635,-1.1194,-1.1194,-1.1194,-1.1194,-1.1194,-1.1194,-1.1194,-1.1194,-1.1194,-1.1194,-1.1096,-1.031,-0.9821,-0.9719,-0.8326,-0.7431,-0.7431,-0.6734,-0.6437,-0.6437,-0.6437,-0.6437,-0.6437,-0.6545,-0.6662,-0.6785,-0.6893,-0.6959,-3.4995,-3.4407,-3.3731,-3.2731,-3.2293,0.0,-3.1769,-3.1696,-3.1549,0.0,0.0,0.0,0.0,0.0,0.0,0.0,0.0,0.0,0.0,0.0,0.0,0.0,0.0,0.0,0.0,-2.5639,-2.53,-2.5312,-2.5134,-2.4953,-2.4643,-2.4443,-2.4186,-2.3653,-2.35,-2.333,-2.3078,-2.3078,-2.3078,-2.3078,-2.3078,-2.3078,-2.3078,-2.3078,-2.275,-2.2101,-2.2101,-2.1741,-2.1071,-2.0466,-2.0643,-2.127,-2.0907,-2.098,-2.1248,-2.1248,-2.1487,-2.1807,-2.1807,-2.1807,-2.188,-2.2346,-2.2811,-2.3277,-2.3743,-2.3564,-2.2746,-2.106,-1.972,-1.8827,-1.8827,-1.8827,-1.8827,-1.8827,-1.8827,-1.8735,-1.8272,-1.7505,-1.6741,-1.6365,-1.5222,-1.4076,-1.321,-1.2063,-1.1194,-1.1194,-1.1194,-1.1194,-1.1194,-1.1194,-1.1194,-1.1194,-1.1194,-1.0904,-1.0314,-0.9521,-0.8726,-0.8127,-0.7132,-0.6634,-0.6634,-0.6437,-0.6437,-0.6437,-0.6437,-0.6437,-0.6437,-0.6461,-0.6535,-0.6657,-0.6679,-0.6796,-3.43,-3.3635,0.0,-3.1695,-3.1263,0.0,0.0,-3.0581,-3.0581,0.0,0.0,0.0,0.0,0.0,0.0,0.0,0.0,0.0,0.0,0.0,0.0,0.0,0.0,0.0,0.0,-2.4432,-2.4154,-2.4154,-2.4337,-2.4176,-2.3758,-2.3822,-2.3513,-2.2726,-2.2982,-2.296,-2.2616,-2.2944,-2.2944,-2.2628,-2.2944,-2.2763,-2.2125,-2.2433,-2.2051,-2.1101,-2.1101,-2.073,-2.0107,-1.9715,-1.9732,-1.9988,-2.0052,-2.0369,-2.0803,-2.1031,-2.1259,-2.1487,-2.1725,-2.1807,-2.1849,-2.2076,-2.247,-2.2845,-2.2776,-2.2331,-2.1409,-1.9985,-1.918,-1.8827,-1.8827,-1.8827,-1.8827,-1.8827,-1.8743,-1.8365,-1.7505,-1.6842,-1.5988,-1.4549,-1.3878,-1.3307,-1.2823,-1.1868,-1.1194,-1.1194,-1.1194,-1.1194,-1.1194,-1.1194,-1.1194,-1.1194,-1.1194,-1.0998,-1.0605,-0.9517,-0.8627,-0.8226,-0.7033,-0.6437,-0.6437,-0.6437,-0.6437,-0.6437,-0.6437,-0.6437,-0.6437,-0.6437,-0.6467,-0.6529,-0.6592,-0.6684,0.0,0.0,0.0,0.0,0.0,-3.0087,0.0,0.0,0.0,0.0,0.0,0.0,0.0,0.0,0.0,0.0,0.0,0.0,0.0,0.0,0.0,0.0,0.0,0.0,0.0,-2.3224,-2.3001,-2.3001,-2.3338,-2.3369,-2.2927,-2.3149,-2.2914,-2.2079,-2.2421,-2.2448,-2.2083,-2.2494,-2.2433,-2.1928,-2.2445,-2.2125,-2.1135,-2.1678,-2.1239,-2.0096,-2.0096,-1.9715,-1.9075,-1.9075,-1.9075,-1.9106,-1.9557,-1.9903,-2.0348,-2.0814,-2.1041,-2.1186,-2.1642,-2.1807,-2.1807,-2.1807,-2.2015,-2.221,-2.154,-2.0829,-2.0076,-1.9096,-1.8827,-1.8827,-1.8827,-1.8827,-1.8827,-1.8827,-1.8651,-1.8187,-1.6842,-1.6271,-1.5317,-1.3113,-1.2538,-1.2441,-1.2441,-1.177,-1.1194,-1.1194,-1.1194,-1.1194,-1.1194,-1.1194,-1.1194,-1.1194,-1.1194,-1.1096,-1.0797,-0.9513,-0.8623,-0.8326,-0.7132,-0.6437,-0.6437,-0.6437,-0.6437,-0.6437,-0.6437,-0.6437,-0.6437,-0.6437,-0.6437,-0.6439,-0.6537,-0.6597,0.0,0.0,0.0,0.0,-3.0424,0.0,0.0,0.0,-2.8657,-2.8657,0.0,0.0,0.0,0.0,0.0,0.0,0.0,0.0,0.0,0.0,0.0,0.0,0.0,0.0,0.0,0.0,-2.3001,-2.3001,-2.2692,-2.2596,-2.2702,-2.2415,-2.2276,-2.2369,-2.2083,-2.1858,-2.1801,-2.1481,-2.1313,-2.1187,-2.1313,-2.125,-2.1123,-2.1187,-2.0805,-2.0096,-2.0096,-1.9715,-1.9075,-1.9075,-1.9075,-1.9075,-1.9127,-1.9427,-1.9893,-2.0338,-2.0762,-2.1186,-2.1642,-2.1807,-2.1807,-2.1807,-2.1807,-2.1559,-2.0285,-2.0102,-2.0076,-1.9096,-1.8827,-1.8827,-1.8827,-1.8827,-1.8827,-1.8827,-1.8735,-1.8357,-1.6929,-1.5785,-1.4632,-1.3017,-1.196,-1.1385,-1.1385,-1.1292,-1.1194,-1.1194,-1.1194,-1.1194,-1.1194,-1.1194,-1.1194,-1.1194,-1.1194,-1.06,-0.9221,-0.8924,-0.8226,-0.6734,-0.6534,-0.6437,-0.6437,-0.6437,-0.6437,-0.6437,-0.6437,-0.6437,-0.6437,-0.6437,-0.6437,-0.6437,-0.645,-0.6516,0.0,0.0,0.0,0.0,0.0,0.0,-2.8558,0.0,-2.851,0.0,0.0,0.0,0.0,0.0,0.0,0.0,-2.7949,0.0,0.0,0.0,0.0,0.0,0.0,0.0,0.0,0.0,0.0,0.0,0.0,-2.2402,-2.2553,-2.2286,-2.1966,-2.1627,-2.1865,-2.1874,-2.1664,-2.1561,-2.1311,-2.0918,-2.1005,-2.0677,-1.9966,-2.0355,-2.0161,-1.9528,-1.9528,-1.933,-1.9075,-1.9075,-1.9075,-1.9075,-1.9075,-1.9189,-1.9448,-2.0162,-2.0545,-2.0824,-2.1549,-2.1492,-2.0934,-2.0527,-2.0301,-2.0099,-1.9506,-1.9351,-1.9363,-1.892,-1.8827,-1.8827,-1.8827,-1.8827,-1.8827,-1.8827,-1.8357,-1.7505,-1.5974,-1.4829,-1.3692,-1.2155,-1.1482,-1.1194,-1.1194,-1.1194,-1.1194,-1.1194,-1.1194,-1.1194,-1.1194,-1.1194,-1.1194,-1.1194,-1.0801,-1.0212,-0.9521,-0.8627,-0.7829,-0.7132,-0.6637,-0.6437,-0.6437,-0.6437,-0.6437,-0.6437,-0.6437,-0.6437,-0.6437,-0.6437,-0.6437,-0.6437,-0.6437,-0.6464,-3.2636,0.0,0.0,0.0,0.0,0.0,0.0,0.0,0.0,0.0,0.0,0.0,0.0,0.0,-2.851,-2.851,0.0,-2.7752,0.0,0.0,0.0,0.0,0.0,0.0,0.0,0.0,0.0,-2.3001,-2.2703,-2.2478,-2.2478,-2.2252,-2.1878,-2.1385,-2.168,-2.1664,-2.1403,-2.1402,-2.1083,-2.0557,-2.0665,-2.0172,-1.9142,-1.9584,-1.9584,-1.9075,-1.9075,-1.9075,-1.9075,-1.9075,-1.9075,-1.9085,-1.921,-1.9261,-1.9354,-2.0141,-2.042,-2.0483,-2.1175,-2.0857,-2.006,-1.9186,-1.9006,-1.9067,-1.881,-1.8799,-1.8827,-1.8827,-1.8827,-1.8827,-1.8827,-1.8827,-1.8735,-1.8542,-1.7978,-1.6936,-1.5108,-1.4166,-1.3119,-1.1482,-1.1194,-1.1194,-1.1194,-1.1194,-1.1194,-1.1194,-1.1194,-1.1194,-1.1194,-1.1194,-1.1194,-1.1194,-1.0511,-0.992,-0.9719,-0.8425,-0.7531,-0.7332,-0.6736,-0.6437,-0.6437,-0.6437,-0.6437,-0.6437,-0.6437,-0.6437,-0.6437,-0.6437,-0.6437,-0.6437,-0.6437,-0.6439,0.0,0.0,0.0,-3.0614,0.0,0.0,0.0,0.0,-2.851,0.0,0.0,0.0,0.0,-2.851,-2.851,-2.851,-2.8203,0.0,0.0,0.0,0.0,0.0,0.0,0.0,0.0,0.0,0.0,-2.3001,-2.2777,-2.2703,-2.2703,-2.2327,-2.2101,-2.208,-2.149,-2.1114,-2.1093,-2.0638,-2.0253,-1.9827,-1.9817,-1.9567,-1.9075,-1.9131,-1.9142,-1.9075,-1.9075,-1.9075,-1.9075,-1.9075,-1.9075,-1.9183,-1.963,-1.9806,-1.9799,-2.0255,-2.042,-2.0411,-2.0473,-1.9982,-1.9186,-1.8318,-1.8519,-1.8981,-1.8118,-1.8263,-1.8827,-1.8827,-1.8827,-1.8827,-1.8827,-1.8827,-1.8643,-1.7878,-1.7692,-1.7023,-1.4447,-1.3878,-1.3397,-1.158,-1.1194,-1.1194,-1.1194,-1.1194,-1.1194,-1.1194,-1.1194,-1.1194,-1.1194,-1.1194,-1.1194,-1.1194,-1.0511,-0.9719,-0.8924,-0.8028,-0.7232,-0.6537,-0.6437,-0.6437,-0.6437,-0.6437,-0.6437,-0.6437,-0.6437,-0.6437,-0.6437,-0.6437,-0.6437,-0.6437,-0.6437,-0.6445,0.0,0.0,-3.0638,-2.9854,0.0,0.0,0.0,0.0,0.0,0.0,0.0,0.0,0.0,-2.851,-2.851,-2.851,-2.7938,-2.7196,0.0,0.0,0.0,0.0,0.0,0.0,0.0,0.0,0.0,-2.2348,-2.1863,-2.1787,0.0,-2.1949,-2.1731,-2.1883,-2.1652,-2.1569,-2.1569,-2.1114,-2.0803,-2.0648,-2.0048,-1.9744,-1.9588,-1.921,-1.9075,-1.9075,-1.9075,-1.9075,-1.9075,-1.9075,-1.9251,-1.9609,-1.9765,-1.9944,-2.0255,-2.071,-2.051,-1.9925,-1.916,-1.863,-1.8318,-1.7448,-1.7619,-1.8205,-1.7858,-1.8263,-1.8827,-1.8827,-1.8827,-1.8827,-1.8827,-1.845,-1.7978,-1.7785,-1.6648,-1.5412,-1.4166,-1.321,-1.2355,-1.1389,-1.1194,-1.1194,-1.1194,-1.1194,-1.1194,-1.1194,-1.1194,-1.1194,-1.1194,-1.1194,-1.0998,-1.0507,-0.9719,-0.8924,-0.8028,-0.7232,-0.6734,-0.6437,-0.6437,-0.6437,-0.6437,-0.6437,-0.6437,-0.6437,-0.6437,-0.6437,-0.6437,-0.6437,-0.6234,-0.5837,-0.5331,-0.5336,-3.098,-3.0446,0.0,-2.9388,-2.8907,0.0,-2.851,0.0,0.0,0.0,0.0,0.0,0.0,-2.8259,-2.8431,-2.8099,-2.7348,-2.6517,0.0,-2.4231,0.0,0.0,0.0,0.0,0.0,0.0,-2.1668,-2.1752,-2.1328,-2.1318,0.0,0.0,-2.1088,-2.1242,-2.1328,-2.1328,-2.1328,-2.1357,-2.128,-2.1104,-2.0524,-2.0151,-1.9986,-1.9754,-1.9619,-1.9551,-1.9619,-1.9687,-1.9687,-1.9687,-1.9727,-1.9947,-2.0112,-2.0206,-2.0265,-2.0558,-2.0075,-1.9081,-1.8311,-1.7764,-1.7448,-1.6894,-1.7127,-1.762,-1.7731,-1.8176,-1.8669,-1.8796,-1.8827,-1.8735,-1.845,-1.8071,-1.7591,-1.703,-1.5893,-1.4663,-1.3698,-1.2845,-1.2078,-1.1292,-1.1194,-1.1194,-1.1194,-1.1194,-1.1194,-1.1194,-1.1194,-1.1194,-1.1194,-1.0998,-1.0609,-1.0019,-0.9023,-0.8028,-0.7232,-0.6734,-0.6437,-0.6437,-0.6437,-0.6437,-0.6437,-0.6437,-0.6437,-0.6437,-0.6437,-0.6437,-0.6437,-0.6234,-0.5834,-0.5133,-0.4227,-0.3924]},{"header":{"parameterUnit":"m.s-1","parameterCategory":1,"la1":30.6,"la2":29.2853,"lo1":-89.7004,"lo2":-87.6739,"dy":0.0162,"dx":0.0183,"nx":112,"ny":82,"refTime":"2023-06-25T00:00:00:Z","depth":0,"parameterNumber":3,"parameterNumberName":"V-component_of_WINDS"},"data":[0.0,0.0,0.0,0.0,0.0,0.0,0.0,0.0,0.0,0.0,0.0,0.0,0.0,0.0,0.0,0.0,0.0,0.0,0.0,0.0,0.0,0.0,0.0,0.0,0.0,0.0,0.0,0.0,0.0,0.0,0.0,0.0,0.0,0.0,0.0,0.0,0.0,0.0,0.0,0.0,0.0,0.0,0.0,0.0,0.0,0.0,0.0,0.0,0.0,0.0,0.0,0.0,0.0,0.0,0.0,0.0,0.0,0.0,0.0,0.0,0.0,0.0,0.0,0.0,0.0,0.0,0.0,0.0,0.0,0.0,0.0,0.0,0.0,0.0,0.0,0.0,0.0,0.0,0.0,0.0,0.0,0.0,0.0,0.0,0.0,0.0,0.0,0.0,0.0,0.0,-3.3966,-3.3484,-3.276,-3.2575,-3.3313,-3.3398,-3.3823,-3.4908,0.0,0.0,0.0,0.0,0.0,0.0,0.0,0.0,0.0,0.0,0.0,0.0,0.0,0.0,0.0,0.0,0.0,0.0,0.0,0.0,0.0,0.0,0.0,0.0,0.0,0.0,0.0,0.0,0.0,0.0,0.0,0.0,0.0,0.0,0.0,0.0,0.0,0.0,0.0,0.0,0.0,0.0,0.0,0.0,0.0,0.0,0.0,0.0,0.0,0.0,0.0,0.0,0.0,0.0,0.0,0.0,0.0,0.0,0.0,0.0,0.0,0.0,0.0,0.0,0.0,0.0,0.0,0.0,0.0,0.0,0.0,0.0,0.0,0.0,0.0,0.0,0.0,0.0,0.0,0.0,0.0,0.0,0.0,0.0,0.0,0.0,0.0,0.0,0.0,0.0,0.0,0.0,0.0,0.0,0.0,0.0,0.0,0.0,0.0,0.0,0.0,0.0,0.0,0.0,-3.4577,-3.3484,-3.276,-3.2575,-3.3313,-3.3398,-3.3738,-3.4481,0.0,0.0,0.0,0.0,0.0,0.0,0.0,0.0,0.0,0.0,0.0,0.0,0.0,0.0,0.0,0.0,0.0,0.0,0.0,0.0,0.0,0.0,0.0,0.0,0.0,0.0,0.0,0.0,0.0,0.0,0.0,0.0,0.0,0.0,0.0,0.0,0.0,0.0,0.0,0.0,0.0,0.0,0.0,0.0,0.0,0.0,0.0,0.0,0.0,0.0,0.0,0.0,0.0,0.0,0.0,0.0,0.0,0.0,0.0,0.0,0.0,0.0,0.0,0.0,0.0,0.0,0.0,0.0,0.0,0.0,0.0,0.0,0.0,0.0,0.0,0.0,0.0,0.0,0.0,0.0,0.0,0.0,0.0,0.0,0.0,0.0,0.0,0.0,0.0,0.0,0.0,0.0,0.0,0.0,0.0,0.0,0.0,0.0,0.0,0.0,0.0,0.0,0.0,-3.4743,-3.4481,-3.3979,-3.3615,-3.3615,-3.3894,-3.3979,-3.4063,-3.4397,-3.4977,0.0,0.0,0.0,0.0,0.0,0.0,0.0,0.0,0.0,0.0,0.0,0.0,0.0,0.0,0.0,0.0,0.0,0.0,0.0,0.0,0.0,0.0,0.0,0.0,0.0,0.0,0.0,0.0,0.0,0.0,0.0,0.0,0.0,0.0,0.0,0.0,0.0,0.0,0.0,0.0,0.0,0.0,0.0,0.0,0.0,0.0,0.0,0.0,0.0,0.0,0.0,0.0,0.0,0.0,0.0,0.0,0.0,0.0,0.0,0.0,0.0,0.0,0.0,0.0,0.0,0.0,0.0,0.0,0.0,0.0,0.0,0.0,0.0,0.0,0.0,0.0,0.0,0.0,0.0,0.0,0.0,0.0,0.0,0.0,0.0,0.0,0.0,0.0,0.0,0.0,0.0,0.0,0.0,0.0,0.0,0.0,0.0,0.0,0.0,0.0,0.0,0.0,-3.4397,-3.4397,-3.4397,-3.4397,-3.4397,-3.4397,-3.4397,-3.4463,-3.4607,-3.4822,0.0,0.0,0.0,0.0,0.0,0.0,0.0,0.0,0.0,0.0,0.0,0.0,0.0,0.0,0.0,0.0,0.0,0.0,0.0,0.0,0.0,0.0,0.0,0.0,0.0,0.0,0.0,0.0,0.0,0.0,0.0,0.0,0.0,0.0,0.0,0.0,0.0,0.0,0.0,0.0,0.0,0.0,0.0,0.0,0.0,0.0,0.0,0.0,0.0,0.0,0.0,0.0,0.0,0.0,0.0,0.0,0.0,0.0,0.0,0.0,0.0,0.0,0.0,0.0,0.0,0.0,0.0,0.0,0.0,0.0,0.0,0.0,0.0,0.0,0.0,0.0,0.0,0.0,0.0,0.0,0.0,0.0,0.0,0.0,0.0,0.0,0.0,0.0,0.0,0.0,0.0,0.0,0.0,0.0,0.0,0.0,0.0,0.0,0.0,0.0,0.0,0.0,-3.4397,-3.4397,-3.4397,-3.4397,-3.4397,-3.4397,-3.4397,-3.4633,-3.5195,-3.4711,0.0,0.0,0.0,0.0,0.0,0.0,0.0,0.0,0.0,0.0,0.0,0.0,0.0,0.0,0.0,0.0,0.0,0.0,0.0,0.0,0.0,0.0,0.0,0.0,0.0,0.0,0.0,0.0,0.0,0.0,0.0,0.0,0.0,0.0,0.0,0.0,0.0,0.0,0.0,0.0,0.0,0.0,0.0,0.0,0.0,0.0,0.0,0.0,0.0,0.0,0.0,0.0,0.0,0.0,0.0,0.0,0.0,0.0,0.0,0.0,0.0,0.0,0.0,0.0,0.0,0.0,0.0,0.0,0.0,0.0,0.0,0.0,0.0,0.0,0.0,0.0,0.0,0.0,0.0,0.0,0.0,0.0,0.0,0.0,0.0,0.0,0.0,0.0,0.0,0.0,0.0,0.0,0.0,0.0,0.0,0.0,0.0,0.0,0.0,0.0,0.0,0.0,-3.4397,-3.4397,0.0,-3.4397,-3.4397,-3.4397,-3.4397,-3.4502,-3.4724,0.0,0.0,0.0,0.0,0.0,0.0,0.0,0.0,0.0,0.0,0.0,0.0,0.0,0.0,0.0,0.0,0.0,0.0,0.0,0.0,0.0,0.0,0.0,0.0,0.0,0.0,0.0,0.0,0.0,0.0,0.0,0.0,0.0,0.0,0.0,0.0,0.0,0.0,0.0,0.0,0.0,0.0,0.0,0.0,0.0,0.0,0.0,0.0,0.0,0.0,0.0,0.0,0.0,0.0,0.0,0.0,0.0,0.0,0.0,0.0,0.0,0.0,0.0,0.0,0.0,0.0,0.0,0.0,0.0,0.0,0.0,0.0,0.0,0.0,0.0,0.0,0.0,0.0,0.0,0.0,0.0,0.0,0.0,0.0,0.0,0.0,0.0,0.0,0.0,0.0,0.0,0.0,0.0,0.0,0.0,0.0,0.0,0.0,0.0,0.0,0.0,0.0,-3.4397,-3.4397,-3.4397,0.0,-3.4567,-3.4685,-3.4685,-3.5081,-3.5341,-3.5354,0.0,0.0,0.0,0.0,0.0,0.0,0.0,0.0,0.0,0.0,0.0,0.0,0.0,0.0,0.0,0.0,0.0,0.0,0.0,0.0,0.0,0.0,0.0,0.0,0.0,0.0,0.0,0.0,0.0,0.0,0.0,0.0,0.0,0.0,0.0,0.0,0.0,0.0,0.0,0.0,0.0,0.0,0.0,0.0,0.0,0.0,0.0,0.0,0.0,0.0,0.0,0.0,0.0,0.0,0.0,0.0,0.0,0.0,0.0,0.0,0.0,0.0,0.0,0.0,0.0,0.0,0.0,0.0,0.0,0.0,0.0,0.0,0.0,0.0,0.0,0.0,0.0,0.0,0.0,0.0,0.0,0.0,0.0,0.0,0.0,0.0,0.0,0.0,0.0,0.0,0.0,0.0,0.0,0.0,0.0,0.0,0.0,0.0,0.0,0.0,0.0,0.0,-3.441,-3.441,-3.441,-3.441,-3.4946,-3.5312,-3.5312,-3.6614,-3.7446,0.0,0.0,0.0,0.0,0.0,0.0,0.0,0.0,0.0,0.0,0.0,0.0,0.0,0.0,0.0,0.0,0.0,0.0,0.0,0.0,0.0,0.0,0.0,0.0,0.0,0.0,0.0,0.0,0.0,0.0,0.0,0.0,0.0,0.0,0.0,0.0,0.0,0.0,0.0,0.0,0.0,0.0,0.0,0.0,0.0,0.0,0.0,0.0,0.0,0.0,0.0,0.0,0.0,0.0,0.0,0.0,0.0,0.0,0.0,0.0,0.0,0.0,0.0,0.0,0.0,0.0,0.0,0.0,0.0,0.0,0.0,0.0,0.0,0.0,0.0,0.0,0.0,0.0,0.0,0.0,0.0,0.0,0.0,0.0,0.0,0.0,0.0,0.0,0.0,0.0,0.0,0.0,0.0,0.0,0.0,0.0,0.0,0.0,0.0,0.0,0.0,0.0,0.0,-3.56,-3.56,-3.56,-3.56,-3.5757,-3.6108,-3.6766,-3.7253,-3.7592,-3.7754,0.0,0.0,0.0,0.0,0.0,0.0,0.0,0.0,0.0,0.0,0.0,0.0,0.0,0.0,0.0,0.0,0.0,0.0,0.0,0.0,0.0,0.0,0.0,0.0,0.0,0.0,0.0,0.0,0.0,0.0,0.0,0.0,0.0,0.0,0.0,0.0,0.0,0.0,0.0,0.0,0.0,0.0,0.0,0.0,0.0,0.0,0.0,0.0,0.0,0.0,0.0,0.0,0.0,0.0,0.0,0.0,0.0,0.0,0.0,0.0,0.0,0.0,0.0,0.0,0.0,0.0,0.0,0.0,0.0,0.0,0.0,0.0,0.0,0.0,0.0,0.0,0.0,0.0,0.0,0.0,0.0,0.0,0.0,0.0,0.0,0.0,0.0,0.0,0.0,0.0,0.0,0.0,0.0,0.0,0.0,0.0,0.0,0.0,0.0,0.0,0.0,0.0,-3.6184,-3.6109,-3.6109,-3.6109,-3.6656,-3.7297,-3.7956,-3.8838,-3.9264,-3.8975,0.0,0.0,0.0,0.0,0.0,0.0,0.0,0.0,0.0,0.0,0.0,0.0,0.0,0.0,0.0,0.0,0.0,0.0,0.0,0.0,0.0,0.0,0.0,0.0,0.0,0.0,0.0,0.0,0.0,0.0,0.0,0.0,0.0,0.0,0.0,0.0,0.0,0.0,0.0,0.0,0.0,0.0,0.0,0.0,0.0,0.0,0.0,0.0,0.0,0.0,0.0,0.0,0.0,0.0,0.0,0.0,0.0,0.0,0.0,0.0,0.0,0.0,0.0,0.0,0.0,0.0,0.0,0.0,0.0,0.0,0.0,0.0,0.0,0.0,0.0,0.0,0.0,0.0,0.0,0.0,0.0,0.0,0.0,0.0,0.0,0.0,0.0,0.0,0.0,0.0,0.0,0.0,0.0,0.0,0.0,0.0,0.0,0.0,0.0,0.0,0.0,0.0,-3.659,-3.6516,-3.6516,-3.6516,-3.7765,-3.8683,-3.8999,-4.0965,-4.1756,-4.082,0.0,0.0,0.0,0.0,0.0,0.0,0.0,0.0,0.0,0.0,0.0,0.0,0.0,0.0,0.0,0.0,0.0,0.0,0.0,0.0,0.0,0.0,0.0,0.0,0.0,0.0,0.0,0.0,0.0,0.0,0.0,0.0,0.0,0.0,0.0,0.0,0.0,0.0,0.0,0.0,0.0,0.0,0.0,0.0,0.0,0.0,0.0,0.0,0.0,0.0,0.0,0.0,0.0,0.0,0.0,0.0,0.0,0.0,0.0,0.0,-3.3125,0.0,0.0,0.0,0.0,0.0,0.0,0.0,0.0,0.0,0.0,0.0,0.0,0.0,0.0,0.0,0.0,0.0,0.0,0.0,0.0,0.0,0.0,0.0,0.0,0.0,0.0,0.0,0.0,0.0,0.0,0.0,0.0,0.0,0.0,0.0,0.0,0.0,0.0,0.0,0.0,0.0,-3.9684,-3.9598,-3.9598,-3.9598,-3.9895,-4.0492,-4.1482,-4.1491,-4.1538,-4.1701,-4.1526,0.0,0.0,0.0,0.0,0.0,0.0,0.0,0.0,0.0,0.0,0.0,0.0,0.0,0.0,0.0,0.0,0.0,0.0,0.0,0.0,0.0,0.0,0.0,0.0,0.0,0.0,0.0,0.0,0.0,0.0,0.0,0.0,0.0,0.0,0.0,0.0,0.0,0.0,0.0,0.0,0.0,0.0,0.0,0.0,0.0,0.0,0.0,0.0,0.0,0.0,0.0,0.0,0.0,0.0,0.0,0.0,0.0,0.0,0.0,0.0,-3.3489,0.0,0.0,0.0,0.0,0.0,0.0,0.0,0.0,0.0,0.0,0.0,0.0,0.0,0.0,0.0,0.0,0.0,0.0,0.0,0.0,0.0,0.0,0.0,0.0,0.0,0.0,0.0,0.0,0.0,0.0,0.0,0.0,0.0,0.0,0.0,0.0,0.0,0.0,0.0,0.0,-4.0986,-4.0901,-4.0788,-4.0421,-4.081,-4.1271,-4.1621,-4.1703,-4.1791,-4.1794,-4.1541,0.0,0.0,0.0,0.0,0.0,0.0,0.0,0.0,0.0,0.0,0.0,0.0,0.0,0.0,0.0,0.0,0.0,0.0,0.0,0.0,0.0,0.0,0.0,0.0,0.0,0.0,0.0,0.0,0.0,0.0,0.0,0.0,0.0,0.0,0.0,0.0,0.0,0.0,0.0,0.0,0.0,0.0,0.0,0.0,0.0,0.0,0.0,0.0,0.0,0.0,0.0,0.0,0.0,-3.1547,-3.1585,-3.169,-3.2335,-3.2432,-3.2298,-3.2663,-3.3379,-3.4248,0.0,0.0,0.0,0.0,0.0,0.0,0.0,0.0,0.0,0.0,0.0,0.0,0.0,0.0,0.0,0.0,0.0,0.0,0.0,0.0,0.0,0.0,0.0,0.0,0.0,-4.4572,-4.4572,0.0,0.0,0.0,0.0,0.0,0.0,0.0,0.0,0.0,0.0,0.0,0.0,-4.1647,-4.1536,-4.1223,-4.0536,-4.1199,-4.1477,-4.1188,-4.1758,-4.1939,-4.1632,-4.1478,-4.1155,0.0,0.0,0.0,0.0,0.0,0.0,0.0,0.0,0.0,0.0,0.0,0.0,0.0,0.0,0.0,0.0,0.0,0.0,0.0,0.0,0.0,0.0,0.0,0.0,0.0,0.0,0.0,0.0,0.0,0.0,0.0,0.0,-3.2064,-3.1151,0.0,0.0,0.0,0.0,0.0,0.0,0.0,0.0,0.0,0.0,0.0,0.0,0.0,-3.0641,-3.1111,-3.0652,-3.0652,-3.1111,-3.0641,-3.0787,-3.1329,-3.1418,-3.2171,-3.3242,-3.3318,0.0,-3.4285,-3.5085,0.0,0.0,0.0,0.0,0.0,0.0,0.0,0.0,0.0,0.0,0.0,0.0,0.0,0.0,0.0,0.0,0.0,0.0,0.0,0.0,0.0,0.0,-4.4572,-4.4572,-4.4572,-4.4572,0.0,-4.4572,-4.4572,-4.4572,-4.4572,0.0,0.0,0.0,0.0,0.0,0.0,0.0,-4.2846,-4.2771,-4.25,-4.1731,-4.1821,-4.1955,-4.2117,-4.1626,-4.1418,-4.1601,-4.1016,-4.0632,-4.0524,-4.1091,0.0,0.0,0.0,0.0,0.0,0.0,0.0,0.0,0.0,0.0,0.0,0.0,0.0,0.0,0.0,0.0,0.0,0.0,0.0,0.0,0.0,0.0,0.0,0.0,0.0,0.0,0.0,0.0,0.0,-3.1438,-3.1193,-3.0859,-3.0397,-3.0216,0.0,0.0,0.0,0.0,0.0,0.0,0.0,0.0,0.0,-3.0216,-3.0216,-3.0331,-3.056,-3.0629,-3.0778,-3.1019,-3.1054,-3.1437,-3.2174,-3.2605,-3.3325,-3.4399,-3.4439,-3.4611,-3.4831,-3.5201,-3.5587,-3.607,0.0,0.0,0.0,0.0,0.0,-3.651,-3.6183,-3.6522,0.0,0.0,0.0,0.0,0.0,0.0,0.0,0.0,0.0,0.0,0.0,0.0,0.0,-4.4572,-4.4572,-4.4572,-4.4572,-4.4572,-4.4572,0.0,-4.4572,-4.4572,-4.4572,0.0,0.0,0.0,0.0,-4.376,-4.3394,-4.3041,-4.2478,-4.179,-4.1714,-4.1633,-4.1306,-4.0999,-4.083,-4.1001,-4.0709,-4.0646,-4.1024,-4.1475,-4.2029,0.0,0.0,0.0,0.0,0.0,0.0,0.0,0.0,0.0,0.0,0.0,0.0,0.0,0.0,0.0,0.0,0.0,0.0,0.0,0.0,0.0,0.0,0.0,0.0,0.0,0.0,0.0,0.0,-3.0414,-3.0528,-3.0566,-3.0397,-3.0216,0.0,0.0,0.0,0.0,0.0,0.0,-3.0216,-3.0216,-3.0216,-3.0216,-3.0216,-3.0285,-3.0422,-3.0813,-3.1077,-3.1215,-3.176,-3.2383,-3.3224,-3.3937,-3.4663,-3.5378,-3.5418,-3.543,-3.5286,-3.5129,-3.5155,-3.5338,-3.5817,-3.6061,-3.6008,-3.6098,-3.6262,-3.6566,-3.6463,-3.6693,-3.7134,-3.7734,0.0,-3.9415,-4.0009,0.0,0.0,0.0,0.0,-4.4572,-4.4572,-4.4572,-4.4572,-4.4572,-4.4572,-4.4572,-4.4572,-4.4572,-4.4572,0.0,-4.4572,-4.4572,-4.4572,0.0,0.0,0.0,0.0,-4.3771,-4.3587,-4.3002,-4.234,-4.1678,-4.1432,-4.1109,-4.057,-4.0524,-4.0524,-4.0524,-4.0646,-4.1024,-4.1525,-4.2029,-4.2785,-4.3823,0.0,0.0,0.0,0.0,0.0,0.0,0.0,0.0,0.0,0.0,0.0,0.0,0.0,0.0,0.0,0.0,0.0,0.0,0.0,0.0,0.0,0.0,0.0,0.0,0.0,0.0,0.0,0.0,0.0,-3.0609,-3.0397,0.0,0.0,0.0,0.0,-3.0216,-3.0216,-3.0216,-3.0216,-3.0216,-3.0216,-3.0216,-3.0216,-3.0457,-3.0973,-3.1008,-3.126,-3.1731,-3.2477,-3.3212,-3.3924,-3.4675,-3.5404,-3.6009,-3.607,-3.577,-3.526,-3.4672,-3.4776,-3.5299,-3.5738,-3.5907,-3.5991,-3.637,-3.6511,-3.6446,-3.6405,-3.6693,-3.7134,-3.7734,-3.912,-4.0704,-4.1311,-4.2463,0.0,0.0,-4.4079,-4.4572,-4.4572,-4.4572,-4.4572,-4.4572,-4.4572,-4.4572,-4.4572,-4.4572,-4.4572,0.0,-4.4572,-4.4572,-4.4572,0.0,-4.4572,-4.4572,-4.4556,-4.4295,-4.3648,-4.3002,-4.234,-4.1678,-4.0986,-4.057,-4.0524,-4.0524,-4.0524,-4.0524,-4.1091,-4.1525,-4.1787,-4.3031,-4.3764,-4.3997,-4.4797,0.0,0.0,0.0,0.0,0.0,0.0,0.0,0.0,0.0,0.0,0.0,0.0,0.0,0.0,0.0,0.0,0.0,0.0,0.0,0.0,0.0,0.0,0.0,0.0,0.0,0.0,0.0,0.0,-3.0032,-3.0001,0.0,-3.0181,-3.0216,-3.0216,-3.0216,-3.0216,-3.0216,-3.0216,-3.0216,-3.0216,-3.0216,-3.0216,-3.0468,-3.1008,-3.1341,-3.2028,-3.3006,-3.36,-3.4508,-3.573,-3.602,-3.6506,-3.7246,-3.6854,-3.6567,-3.6319,-3.5608,-3.5288,-3.5156,-3.5309,-3.5544,-3.579,-3.6292,-3.6411,-3.6484,-3.6693,-3.7402,-3.8486,-3.9887,-4.1039,-4.2004,-4.2667,-4.3202,-4.3664,-4.4095,-4.4387,-4.4572,-4.4572,-4.4572,-4.4572,-4.4572,-4.4572,-4.4572,-4.4572,-4.4572,-4.4572,-4.4572,-4.4572,-4.4572,-4.4572,-4.4572,-4.4572,-4.4572,-4.4202,-4.3848,-4.3602,-4.3002,-4.2525,-4.2279,-4.2017,-4.1863,-4.1863,-4.1863,-4.2116,-4.2664,-4.292,-4.3555,-4.4657,-4.5207,-4.5773,-4.6243,-4.706,-4.7382,0.0,0.0,0.0,0.0,0.0,0.0,0.0,0.0,0.0,0.0,0.0,0.0,0.0,0.0,0.0,0.0,0.0,0.0,0.0,0.0,0.0,0.0,0.0,0.0,0.0,0.0,-2.9609,-2.9753,-2.9962,-3.0117,-3.0181,-3.0216,-3.0216,-3.0216,-3.0216,-3.0216,-3.0216,-3.0216,-3.0216,-3.0216,-3.0216,-3.064,-3.1623,-3.196,-3.2936,-3.439,-3.4908,-3.5738,-3.6709,-3.7015,-3.7413,-3.7887,-3.7482,-3.7166,-3.6911,-3.6393,-3.5959,-3.5575,-3.5575,-3.5737,-3.5978,-3.6457,-3.6615,-3.6721,-3.7374,-3.8322,-3.9478,-4.113,-4.2269,-4.3017,-4.3448,-4.3725,-4.4002,-4.4449,-4.4572,-4.4572,-4.4572,-4.4572,-4.4572,-4.4572,-4.4572,-4.4572,-4.4572,-4.4572,-4.4572,-4.4572,-4.4572,-4.4572,-4.4572,-4.4572,-4.4572,-4.4572,-4.4202,-4.391,-4.391,-4.334,-4.294,-4.294,-4.287,-4.2803,-4.2803,-4.2803,-4.3185,-4.4058,-4.4177,-4.4886,-4.631,-4.6684,-4.6965,-4.7189,-4.8023,-4.8321,-4.8079,0.0,0.0,0.0,0.0,0.0,0.0,0.0,0.0,0.0,0.0,0.0,0.0,0.0,0.0,0.0,0.0,0.0,0.0,0.0,0.0,0.0,0.0,0.0,-2.8869,-2.9308,-2.9733,-2.9817,-3.0241,-3.0464,-3.0216,-3.0216,-3.0216,-3.0216,-3.0216,-3.0216,-3.0216,-3.0216,-3.0216,-3.0216,-3.0216,-3.1065,-3.2828,-3.284,-3.3823,-3.5618,-3.6282,-3.6658,-3.6671,-3.7453,-3.7848,-3.7848,-3.7848,-3.7464,-3.6817,-3.6804,-3.6628,-3.6419,-3.6405,-3.6405,-3.647,-3.6836,-3.6978,-3.7141,-3.8466,-3.9299,-4.0038,-4.1325,-4.2589,-4.3602,-4.3602,-4.4048,-4.4572,-4.4572,-4.4572,-4.4572,-4.4572,-4.4572,-4.4572,-4.4663,-4.4572,-4.4572,-4.4663,-4.4572,-4.4572,-4.4663,-4.4572,-4.4572,-4.4572,-4.4572,-4.4572,-4.4572,-4.4572,0.0,-4.4663,-4.4077,-4.3676,-4.3676,-4.3366,-4.3176,-4.3176,-4.3176,-4.3636,-4.454,-4.4838,-4.5464,-4.6557,-4.7227,-4.7292,-4.6734,-4.7424,-4.8131,-4.8855,0.0,0.0,0.0,0.0,0.0,0.0,0.0,0.0,0.0,0.0,0.0,0.0,0.0,0.0,0.0,0.0,0.0,0.0,0.0,0.0,0.0,0.0,-2.8558,-2.8623,-2.9102,-2.9451,-2.9721,-3.0241,-3.0526,-3.0453,-3.0487,-3.0397,-3.0216,-3.0216,-3.0216,-3.0216,-3.0216,-3.0216,-3.0216,-3.0216,-3.088,-3.2257,-3.2269,-3.3247,-3.5152,-3.5335,-3.5775,-3.63,-3.6504,-3.6783,-3.7135,-3.7135,-3.7124,-3.7205,-3.7109,-3.7071,-3.6971,-3.6557,-3.6549,-3.6836,-3.6993,-3.6978,-3.7141,-3.8466,-3.959,-4.0719,-4.2001,-4.329,-4.431,-4.431,-4.4433,-4.4572,-4.4572,-4.4572,-4.4572,-4.4572,-4.4572,-4.4648,-4.4949,-4.4799,-4.4648,-4.4949,-4.4799,-4.4723,-4.4949,-4.4799,-4.4572,-4.4572,-4.4572,-4.4572,-4.4572,-4.4572,0.0,-4.5024,-4.4853,-4.4744,-4.4744,-4.494,-4.5088,-4.5096,-4.5396,-4.6128,-4.7414,-4.7525,-4.8012,-4.8973,-4.9182,-4.9212,-4.9079,-4.9269,-4.9476,0.0,0.0,0.0,0.0,0.0,0.0,0.0,0.0,0.0,0.0,0.0,0.0,0.0,0.0,0.0,0.0,0.0,0.0,0.0,0.0,0.0,0.0,-2.851,-2.851,-2.851,-2.916,-2.9654,-2.9713,-3.0402,-3.0785,-3.0633,-3.0578,-3.0487,-3.0216,-3.0216,-3.0216,-3.0216,-3.0216,-3.0216,-3.0216,-3.0216,-3.081,-3.2043,-3.2328,-3.3318,-3.506,-3.5493,-3.5934,-3.6371,-3.6532,-3.6804,0.0,-3.7075,-3.7182,-3.7331,-3.7236,-3.719,0.0,0.0,0.0,0.0,0.0,-3.6978,-3.7219,-3.876,-3.9762,-4.0647,-4.2183,-4.3378,-4.4156,-4.4156,-4.4356,-4.4572,-4.4572,-4.4572,-4.4572,-4.4572,-4.4723,-4.4874,-4.5173,-4.5173,-4.5173,-4.5395,-4.5247,-4.5173,-4.5395,0.0,0.0,-4.5098,-4.4949,-4.4874,-4.5098,-4.5098,-4.5173,-4.5395,-4.5468,-4.5468,-4.5468,-4.5817,-4.6088,-4.6378,-4.6604,0.0,0.0,0.0,-4.9006,-4.9935,-4.9683,0.0,0.0,0.0,-4.9666,-5.0011,0.0,0.0,0.0,-5.0011,-5.0183,0.0,0.0,0.0,0.0,0.0,0.0,0.0,0.0,0.0,0.0,0.0,0.0,0.0,0.0,0.0,0.0,-2.851,-2.851,-2.851,-2.9412,-3.0001,-2.9737,-3.0664,-3.1205,-3.0758,-3.0668,-3.0578,-3.0306,-3.0306,-3.0306,-3.0306,0.0,0.0,0.0,0.0,-3.0877,-3.2039,-3.2784,-3.3744,-3.5035,-3.6013,-3.6617,-3.6703,-3.7044,-3.7199,-3.7297,-3.7297,-3.7235,-3.7151,-3.7151,-3.7073,-3.6978,-3.6978,-3.6978,-3.6978,-3.6978,-3.6978,0.0,0.0,0.0,0.0,-4.19,-4.2998,-4.3596,-4.3596,-4.4075,-4.4615,-4.4615,-4.4662,-4.4723,-4.4723,-4.5024,-4.5247,-4.5321,-4.5541,-4.5832,-4.5832,-4.5832,-4.5832,-4.5832,-4.5832,-4.5832,-4.5905,-4.5541,-4.5395,-4.576,-4.576,-4.5832,-4.5832,-4.5832,-4.5832,-4.5832,0.0,0.0,-4.7169,-4.7304,-4.7885,-4.9195,-4.8961,-4.9144,-4.9952,-4.9321,-4.9286,-4.9993,-4.9321,-4.9304,-5.0011,-5.0011,-5.0045,-5.0131,-5.0131,-5.0476,0.0,0.0,0.0,0.0,0.0,0.0,0.0,0.0,0.0,0.0,0.0,0.0,0.0,0.0,0.0,-2.8724,-2.8578,-2.851,-2.851,-2.9412,-3.0086,-3.0001,-3.0937,-3.1484,-3.1205,-3.1128,-3.1038,-3.0883,-3.0883,-3.0883,-3.0883,-3.0883,0.0,-3.0883,-3.0883,-3.1175,-3.2047,-3.2135,-3.2972,-3.4556,0.0,0.0,-3.5899,-3.5967,-3.6239,-3.6576,-3.6576,-3.6733,-3.7004,-3.7004,-3.7013,-3.6978,-3.6978,-3.6978,-3.6978,-3.6978,-3.6978,-3.7148,-3.7954,-3.9134,-4.0322,-4.1218,-4.2457,-4.3584,-4.3584,-4.4142,0.0,-4.4692,-4.5101,-4.5541,-4.5541,-4.5614,-4.576,-4.6017,-4.5961,-4.5905,-4.6159,-4.5961,-4.5905,-4.6159,-4.5961,-4.5977,-4.6598,-4.6104,-4.5687,-4.576,-4.576,-4.5905,-4.6159,-4.623,-4.623,-4.623,-4.6929,-4.7538,-4.7704,-4.84,-4.9057,-4.9801,-4.9784,-4.9801,-5.0011,-4.9855,-4.9855,-5.0011,-4.9855,-4.9855,-5.0011,-5.0011,-5.0321,-5.0907,-5.0907,-5.0976,0.0,0.0,0.0,0.0,0.0,0.0,0.0,0.0,0.0,0.0,0.0,-2.9378,0.0,0.0,-2.8882,-2.8803,-2.8657,-2.8607,-2.8871,-2.9593,-3.0086,-3.0086,-3.1023,-3.1572,-3.1306,-3.1306,-3.1229,-3.0984,-3.0984,-3.0984,-3.0984,-3.0984,-3.0984,-3.0984,-3.0984,-3.1151,-3.1484,-3.2227,-3.3079,-3.3856,-3.4881,-3.5642,-3.6058,-3.6284,-3.6522,-3.6693,-3.6693,-3.6836,-3.6978,-3.6978,-3.6978,-3.6978,-3.6978,-3.6978,-3.6978,-3.6978,-3.6978,-3.7134,-3.8037,-3.8974,-3.9959,-4.0846,-4.2022,-4.3068,-4.3068,-4.3558,-4.418,-4.418,-4.4685,-4.5238,-4.5238,-4.5635,-4.6088,-4.6285,-4.6317,-4.6388,-4.6582,-4.6458,-4.6388,-4.6582,-4.6458,-4.6474,-4.6823,-4.6598,-4.6317,-4.6317,-4.6317,-4.6388,-4.6582,-4.6582,-4.6722,-4.6997,-4.7421,-4.7951,-4.848,-4.9195,-4.9725,-5.0011,-5.0011,-5.0011,-5.0011,-5.0011,-5.0011,-5.0011,-5.0011,-5.0011,-5.0011,-5.0011,-5.039,-5.1114,-5.1494,-5.189,0.0,0.0,0.0,0.0,0.0,0.0,0.0,0.0,-3.0594,-2.9651,-2.9611,-2.9702,-2.93,-2.9209,-2.9131,-2.8961,-2.8736,-2.8771,-2.9301,-2.9749,-3.0122,-3.023,-3.1084,-3.1661,-3.1395,-3.13,-3.1163,-3.0998,-3.0915,-3.0891,-3.0998,-3.1009,-3.1057,-3.1151,-3.1151,-3.1151,-3.1151,-3.2562,-3.331,-3.3564,-3.5359,-3.6391,-3.6549,-3.6836,-3.6978,-3.6978,-3.6978,-3.6978,-3.6978,-3.6978,-3.6978,-3.6978,-3.6978,-3.6978,-3.707,-3.6978,-3.7134,-3.7429,-3.8546,-3.9247,-3.9874,-4.0956,-4.1901,-4.2627,-4.2627,-4.3119,-4.359,-4.359,-4.4183,-4.4722,-4.4722,-4.5442,-4.6234,-4.6234,-4.6555,-4.6876,-4.6876,-4.6876,-4.6876,-4.6876,-4.6876,-4.6876,-4.6876,-4.6876,-4.6876,-4.6876,-4.6876,-4.6945,-4.7014,-4.7098,-4.7286,-4.7754,-4.7951,-4.8386,-4.9256,-4.9725,-5.0011,-5.0011,-5.0011,-5.0011,-5.0011,-5.0011,-5.0011,-5.0011,-5.0011,-5.0011,-5.0011,-5.0011,-5.0459,-5.1338,-5.1942,-5.2649,-3.4935,-3.4935,-3.4721,-3.3865,-3.3575,-3.3073,0.0,0.0,-3.0683,-2.9921,-2.9792,-2.9792,-2.9714,-2.9521,-2.9341,-2.9341,-2.9028,-2.8986,-2.9521,-2.9903,-3.0266,-3.0735,-3.1312,-3.1661,-3.1661,-3.124,-3.0963,-3.0877,-3.0445,-3.0385,-3.0853,-3.0877,-3.1093,-3.1649,-3.1584,-3.1584,-3.1584,-3.2575,-3.3395,-3.4223,-3.5251,-3.6163,-3.6915,-3.6978,-3.6978,-3.6978,-3.6978,-3.6978,-3.6978,-3.6978,-3.6978,-3.6978,-3.6978,-3.7148,-3.7226,-3.707,-3.7567,-3.8339,-3.9015,-3.9984,-4.108,-4.1754,-4.2302,-4.2621,-4.2621,-4.3121,-4.3703,-4.3703,-4.4219,-4.4768,-4.4768,-4.5336,-4.5853,-4.5853,-4.6407,-4.6876,-4.6876,-4.6876,-4.6876,-4.6876,-4.6876,-4.6876,-4.6876,-4.6876,-4.6876,-4.6876,-4.6876,-4.7082,-4.7571,-4.7638,-4.7803,-4.8289,-4.8748,-4.9256,-4.986,-4.9952,-5.0011,-5.0011,-5.0011,-5.0011,-5.0011,-5.0011,-5.0011,-5.0011,-5.0011,-5.0011,-5.0011,-5.0011,-5.0735,-5.2097,-5.2183,-5.2649,-3.5294,-3.5148,-3.4868,-3.407,-3.3644,-3.3073,-3.1429,-3.097,-3.0683,-2.9921,-2.9792,-2.9792,-2.9792,-2.9599,-2.9419,0.0,-2.9197,-2.9267,-2.9958,-3.0204,-3.058,-3.124,-3.1529,-3.1541,-3.124,-3.0999,-3.0747,-3.0446,-3.0218,-3.0182,-3.0398,-3.0711,-3.0975,-3.1204,-3.1504,-3.1913,-3.2413,-3.331,-3.4223,-3.5156,-3.599,-3.6652,-3.6978,-3.6978,-3.6978,-3.6978,-3.7148,-3.7148,-3.7148,-3.7303,-3.738,-3.738,-3.738,-3.738,-3.7457,-3.7226,-3.7796,-3.8649,-3.9305,-4.0263,-4.128,-4.1884,-4.2302,-4.2634,-4.2634,-4.2844,-4.3087,-4.3087,-4.3605,-4.4156,-4.4156,-4.469,-4.5322,-4.571,-4.6034,-4.6374,-4.6795,-4.6876,-4.6876,-4.6876,-4.6876,-4.7014,-4.7286,-4.737,-4.7488,-4.7704,-4.7538,-4.7555,-4.8048,-4.8113,-4.8306,-4.8793,-4.9333,-4.9742,-5.0011,-5.0011,-5.0011,-5.0011,-5.0011,-5.0011,-5.0011,-5.0011,-5.0011,-5.0011,-5.0011,-5.0011,-5.0011,-5.0011,-5.0769,-5.2218,-5.2218,-5.3039,-3.5504,-3.5424,-3.5198,-3.4572,-3.3851,-3.3003,-3.1882,-3.1145,-3.0558,-3.0011,-2.9869,-2.9792,-2.9792,-2.9611,-2.9509,-2.9509,-2.9489,-2.9684,-3.0465,-3.065,-3.1004,-3.1741,-3.1749,-3.1484,-3.0723,-3.0651,-3.0446,-2.9905,-2.9737,-2.9713,-2.9857,-3.023,-3.0506,-3.0651,-3.1036,-3.1624,-3.2437,-3.325,-3.4245,-3.5318,-3.6243,-3.673,-3.6978,-3.707,-3.7148,-3.7148,-3.7303,-3.738,-3.738,-3.7534,-3.7625,-3.7625,-3.7625,-3.7625,-3.7701,-3.7534,-3.8159,-3.9145,-3.9561,-4.0538,-4.1641,-4.2093,-4.2365,-4.2634,-4.2634,-4.2634,-4.2634,-4.2634,-4.3006,-4.3411,-4.3411,-4.3945,-4.4674,-4.5354,-4.5678,-4.6002,-4.673,-4.6876,-4.6945,-4.7082,-4.7082,-4.7286,-4.7803,-4.7869,-4.8065,-4.8543,-4.8306,-4.8258,-4.8606,-4.8748,-4.8995,-4.9394,-4.9801,-5.0011,-5.0011,-5.0011,-5.0011,-5.0011,-5.0011,-5.0011,-5.0011,-5.0011,-5.0011,-5.0011,-5.0051,-5.0109,-5.0109,-5.0206,-5.0905,-5.2271,-5.2479,-5.373,-3.5569,-3.5589,-3.5638,-3.5264,-3.4041,-3.2904,-3.2676,-3.132,-3.0152,-3.0075,-2.9934,-2.9792,-2.9792,-2.9792,-2.9792,-2.9792,-3.0074,-3.0437,-3.1009,-3.1388,-3.1688,-3.1965,-3.195,-3.1525,0.0,-3.011,-2.9893,-2.9364,-2.8847,-2.8787,-2.9304,-2.934,-2.9581,-3.0098,-3.0122,-3.0374,-3.0977,-3.1794,-3.2944,-3.4389,-3.5318,-3.6163,-3.6978,-3.7226,-3.738,-3.7625,-3.7625,-3.7625,-3.7625,-3.7625,-3.7625,-3.7625,-3.7625,-3.7701,-3.7853,-3.7853,-3.8811,-4.0039,-4.0109,-4.1147,-4.2571,-4.2571,-4.2571,-4.2634,-4.2634,-4.2634,-4.2634,-4.2634,-4.265,-4.2666,-4.2666,-4.3201,-4.3929,-4.4658,-4.5322,-4.6002,-4.673,-4.6876,-4.7014,-4.7571,-4.7704,-4.782,-4.8289,-4.8416,-4.8543,-4.9118,-4.9178,-4.9178,-4.9178,-4.9607,-4.9952,-4.9935,-5.0011,-5.0011,-5.0011,-5.0011,-5.0011,-5.0011,-5.0011,-5.0011,-5.0011,-5.0011,-5.0011,-5.0011,-5.0263,-5.0415,-5.0415,-5.0657,-5.1351,-5.2537,-5.3265,-5.4574,-3.6383,-3.6196,-3.5703,-3.4957,-3.4312,-3.3547,-3.2376,-3.1516,-3.0872,-3.0368,-3.0152,-3.0011,-3.0011,-2.9869,-2.9792,-2.9792,-3.0165,-3.0636,-3.1009,-3.1484,-3.1944,-3.2239,-3.2125,0.0,0.0,0.0,0.0,-2.8847,-2.8607,-2.8595,-2.8763,-2.9112,-2.9376,-2.9556,-2.9905,-3.0493,-3.1224,-3.1542,-3.2286,-3.3542,-3.4882,-3.6025,-3.6784,-3.7272,-3.7534,-3.7625,-3.7777,-3.7777,-3.7777,-3.7915,-3.7991,-3.7991,-3.7991,-3.8052,-3.8142,-3.8142,-3.903,-4.0263,-4.0263,-4.0961,-4.1948,-4.2429,-4.2634,-4.2634,-4.2634,-4.2634,-4.2634,-4.2634,-4.2634,-4.2634,-4.2634,-4.2812,-4.3184,-4.3897,-4.4253,-4.4739,-4.5905,-4.6164,-4.6445,-4.7473,-4.7704,-4.7951,-4.881,-4.8934,-4.9118,-4.9666,-4.9725,-4.9725,-4.9725,-4.9877,-5.0011,-5.0011,-5.0011,-5.0011,-5.0011,-5.0011,-5.0011,-5.0011,-5.0011,-5.0051,-5.0263,-5.0263,-5.0359,-5.0509,-5.0602,-5.0803,-5.1035,-5.114,-5.1772,-5.2842,-5.3698,-5.4571,-3.6554,-3.6321,-3.5894,-3.527,-3.4795,-3.4163,-3.272,-3.2087,-3.1516,-3.0672,-3.0381,-3.0228,-3.0075,-3.0011,-2.9869,-2.9792,-3.0169,-3.0604,-3.1116,-3.1536,-3.197,-3.2426,-3.2388,-3.1773,0.0,0.0,0.0,-2.8582,-2.851,-2.851,-2.851,-2.8835,-2.9015,-2.9015,-2.9352,-2.9922,-3.0735,-3.0735,-3.1551,-3.3131,-3.4823,-3.5864,-3.6427,-3.6828,-3.7089,-3.7178,-3.7497,-3.7688,-3.7688,-3.804,-3.8202,-3.8188,-3.797,-3.7883,-3.7854,-3.7607,-3.8424,-3.9749,-4.0255,-4.1044,-4.1948,-4.2429,-4.2634,-4.2634,-4.2634,-4.2634,-4.2634,-4.2634,-4.2634,-4.2634,-4.2634,-4.2634,-4.2812,-4.3541,-4.3719,-4.4026,-4.5192,-4.5568,-4.6045,-4.7356,-4.7794,-4.8366,-4.9445,-4.9715,-4.9907,-5.0246,-5.032,-5.0206,-4.9993,-5.0011,-5.0011,-5.0011,-5.0011,-5.0051,-5.0149,-5.0149,-5.0206,-5.0246,-5.032,-5.0359,-5.0564,-5.0564,-5.0602,-5.082,-5.0928,-5.1175,-5.1533,-5.1633,-5.2161,-5.3106,-5.3987,-5.4601,-3.6336,-3.6148,-3.6211,-3.6022,-3.5494,-3.4743,-3.3768,-3.2861,-3.1942,-3.0973,-3.0609,-3.0368,0.0,0.0,-2.9998,-2.9779,-2.9866,-3.0217,-3.1141,-3.1394,-3.1801,0.0,0.0,0.0,0.0,0.0,0.0,-2.8662,0.0,-2.851,-2.851,-2.851,-2.851,-2.851,-2.851,-2.8899,-2.9545,-2.9638,-3.0826,-3.3154,-3.4831,-3.5754,-3.5957,-3.5985,-3.6158,-3.6344,-3.6983,-3.7259,-3.7302,-3.7868,-3.8101,-3.8043,-3.7476,-3.7259,-3.7186,-3.6648,-3.7278,-3.8632,-3.9979,-4.1377,-4.2555,-4.2571,-4.2634,-4.2634,-4.2634,-4.2634,-4.2634,-4.2634,-4.2634,-4.2634,-4.2634,-4.2634,-4.2812,-4.3492,-4.3654,-4.3848,-4.4577,-4.5114,-4.5838,-4.7099,-4.8005,-4.8976,-5.015,-5.0585,-5.0803,-5.0803,-5.0803,-5.0602,-5.0109,-5.0051,-5.0051,-5.0051,-5.0051,-5.0149,-5.0415,-5.0397,-5.0509,-5.0749,-5.0803,-5.082,-5.0803,-5.082,-5.0803,-5.0874,-5.1176,-5.1521,-5.1848,-5.209,-5.2617,-5.3318,-5.417,-5.4685,-3.7118,-3.6769,-3.6352,-3.6211,-3.6006,-3.5608,-3.4743,-3.4056,-3.3297,-3.216,-3.1455,-3.0973,0.0,0.0,0.0,-2.904,-2.9011,0.0,-2.9338,-3.0056,0.0,-3.0812,0.0,-3.039,-2.9965,-2.9785,0.0,0.0,-2.8816,-2.8724,-2.8724,-2.8724,-2.8724,-2.8724,-2.8895,-2.9034,-2.9248,-2.9995,-3.0968,-3.2179,-3.3834,-3.4939,-3.5549,-3.6012,-3.6229,-3.6315,-3.6489,-3.6562,-3.6577,-3.6722,-3.678,-3.678,-3.662,-3.6562,-3.6663,-3.7511,-3.8476,-3.9388,-4.0727,-4.1459,-4.1868,-4.2429,-4.2634,-4.2634,-4.2634,-4.2634,-4.2634,-4.2634,-4.2634,-4.2634,-4.2634,-4.2634,-4.2682,-4.286,-4.2909,-4.3103,-4.3832,-4.4187,-4.4874,-4.6522,-4.8186,-4.9482,-4.98,-5.0398,-5.0803,-5.0803,-5.0803,-5.0766,-5.0602,-5.062,-5.062,-5.062,-5.062,-5.0602,-5.0712,-5.0712,-5.0712,-5.082,-5.0803,-5.0928,-5.1176,-5.1176,-5.1281,-5.147,-5.1538,-5.192,-5.2563,-5.2608,-5.3005,-5.3697,-5.4513,-5.4608,-3.7074,-3.6785,-3.6492,-3.6352,-3.6352,-3.6006,-3.4647,-3.4109,-3.3492,-3.2101,-3.1482,-3.1061,-3.0773,-2.9741,-2.887,0.0,0.0,0.0,-2.8654,-2.9171,-2.9715,0.0,-2.9885,0.0,-2.9238,-2.9223,-2.9188,0.0,-2.8882,-2.8961,-2.8961,-2.8961,-2.8961,-2.8961,-2.9052,-2.9131,-2.9197,-3.0607,-3.1489,-3.1942,-3.3536,-3.4507,-3.4951,-3.5314,-3.5473,-3.5488,0.0,-3.5894,-3.5923,-3.6199,-3.6301,-3.6301,-3.6301,-3.6301,-3.6416,-3.7178,-3.837,-3.9612,-4.04,-4.1207,-4.2077,-4.2492,-4.2634,-4.2634,-4.2634,-4.2634,-4.2634,-4.2634,-4.2634,-4.2634,-4.2634,-4.2634,-4.2634,-4.2634,-4.2634,-4.2794,-4.3526,-4.3916,-4.4775,-4.6759,-4.8347,-4.9413,-4.9498,-4.9902,-5.0273,-5.0627,-5.068,-5.0804,-5.1158,-5.0964,-5.0803,-5.0803,-5.0803,-5.0874,-5.0999,-5.0999,-5.1088,-5.1193,-5.1193,-5.1263,-5.1487,-5.1505,-5.164,-5.1902,-5.1902,-5.2268,-5.3023,-5.3023,-5.33,-5.3813,-5.4258,-5.424,-3.6662,-3.6492,-3.6492,-3.6492,-3.6492,-3.6006,-3.4283,-3.3808,-3.3255,-3.1542,-3.1123,-3.0986,-3.0609,-2.9639,-2.8834,-2.8462,0.0,-2.7294,-2.8211,-2.8409,-2.874,-2.9704,-2.9421,-2.9021,-2.8539,-2.8855,-2.8855,-2.851,-2.8791,-2.9052,-2.9131,-2.9131,-2.9131,-2.9209,-2.9209,-2.9287,-2.9431,-3.1119,-3.2001,-3.2146,-3.3534,-3.4264,-3.4414,-3.4414,-3.4414,-3.4443,0.0,0.0,-3.5415,-3.604,-3.6301,-3.6301,-3.6301,-3.6301,-3.6315,-3.6602,-3.7922,-3.9565,-3.9792,-4.1085,-4.2634,-4.2634,-4.2634,-4.2634,-4.2634,-4.2634,-4.2634,-4.2634,-4.2634,-4.2634,-4.2634,-4.2634,-4.2634,-4.2634,-4.2634,-4.2851,-4.3555,-4.4175,-4.5172,-4.7181,-4.8254,-4.8884,-4.9109,-4.9246,-4.9549,-5.0245,-5.0352,-5.0602,-5.128,-5.1121,-5.0928,-5.0928,-5.0928,-5.1035,-5.135,-5.1333,-5.1436,-5.169,-5.169,-5.169,-5.169,-5.174,-5.1902,-5.2185,-5.225,-5.2617,-5.33,-5.33,-5.3481,-5.3813,-5.3813,-5.3813,-3.6785,-3.6492,-3.6492,-3.6492,-3.6352,-3.6006,-3.5044,-3.4447,0.0,-3.2448,-3.1823,-3.1097,-2.9845,-2.873,-2.7683,-2.673,-2.5991,-2.5727,-2.6351,-2.6697,-2.719,0.0,-2.7735,-2.7611,-2.7447,-2.7546,0.0,0.0,0.0,-2.8779,-2.9341,-2.9341,-2.9443,-2.9702,-2.9714,-2.9714,-2.9702,-3.062,-3.1402,-3.2074,-3.3017,-3.3742,-3.4414,-3.4414,-3.4414,-3.4443,0.0,0.0,-3.5415,-3.604,-3.6301,-3.6301,-3.6301,-3.6301,-3.6501,-3.8303,-3.9189,-3.9776,-4.1486,-4.2316,-4.2634,-4.2634,-4.2634,-4.2634,-4.2634,-4.2634,-4.2634,-4.2634,-4.2634,-4.2634,-4.2634,-4.2634,-4.2634,-4.2837,-4.2837,-4.3052,-4.3823,-4.4841,-4.5802,-4.6362,-4.7488,-4.8324,-4.8371,-4.8907,-4.9371,-4.9513,-4.9531,-4.9585,-4.971,-5.077,-5.1521,-5.1521,-5.1521,-5.1589,-5.164,-5.164,-5.164,-5.169,-5.169,-5.169,-5.169,-5.2,-5.2155,-5.2185,-5.2545,-5.2875,-5.33,-5.33,-5.3481,-5.3813,-5.3813,-5.3813,-3.6414,-3.6289,-3.6352,-3.6241,-3.6226,-3.5864,-3.4581,0.0,0.0,-3.1955,-3.1408,-3.081,-2.9614,-2.8414,-2.729,-2.6235,-2.5583,-2.5306,-2.5513,-2.6134,-2.6651,-2.6879,-2.6816,-2.6641,-2.6409,-2.6526,-2.6669,0.0,0.0,-2.8779,-2.9599,-2.9611,-2.9702,-2.9792,-2.9792,-2.9792,-2.9792,-3.0545,-3.1106,-3.1489,-3.2648,-3.3367,-3.3811,-3.4196,-3.4414,-3.4428,-3.4733,0.0,-3.5456,-3.5691,-3.6011,-3.6344,-3.6693,-3.6823,-3.704,-3.8742,-3.9665,-4.0189,-4.1546,-4.2285,-4.2634,-4.2634,-4.2634,-4.2634,-4.2634,-4.2634,-4.2634,-4.2634,-4.2696,-4.2775,-4.2775,-4.2821,-4.2867,-4.3007,-4.3562,-4.4169,-4.449,-4.5545,-4.6507,-4.659,-4.7144,-4.7568,-4.7568,-4.7872,-4.8247,-4.8657,-4.8728,-4.8871,-4.9264,-4.9977,-5.062,-5.103,-5.144,-5.169,-5.169,-5.169,-5.169,-5.169,-5.169,-5.1772,-5.1933,-5.2108,-5.2371,-5.2751,-5.2962,-5.3235,-5.3561,-5.3561,-5.3639,-5.3813,-5.3813,-5.3813,-3.6037,-3.6085,-3.6148,-3.6037,-3.6022,-3.5657,-3.3905,-3.3506,-3.2946,-3.1259,-3.0672,-3.0114,-2.9135,-2.8016,-2.6894,0.0,-2.5337,-2.5119,-2.5223,-2.5826,-2.6372,-2.6476,-2.6392,0.0,-2.5523,-2.5722,0.0,0.0,0.0,0.0,-2.9792,-2.9792,-2.9792,-2.9792,-2.9792,-2.9792,-2.9792,-3.0343,-3.0833,-3.1193,-3.2349,-3.3157,-3.352,-3.4113,-3.4414,-3.4428,-3.4704,0.0,0.0,-3.5865,-3.6272,-3.6765,-3.7302,-3.7565,-3.7901,-3.9068,-3.9999,-4.0758,-4.1459,-4.2158,-4.2634,-4.2634,-4.2634,-4.2634,-4.2634,-4.2634,-4.2634,-4.2634,-4.2759,-4.2899,-4.2899,-4.3007,-4.3113,-4.3174,-4.4169,-4.5144,-4.5144,-4.6102,-4.6998,-4.6998,-4.6998,-4.6998,-4.6998,-4.6998,-4.7194,-4.7836,-4.7925,-4.8139,-4.8746,-4.8978,-4.9317,-4.9942,-5.0709,-5.1262,-5.1422,-5.144,-5.1512,-5.169,-5.169,-5.1871,-5.2203,-5.2297,-5.2617,-5.33,-5.3381,-5.3521,-5.3813,-5.3813,-5.3813,-5.3813,-5.3813,-5.3813,-3.6258,-3.6037,-3.6037,-3.5973,-3.5894,-3.535,-3.3837,0.0,-3.2733,-3.1048,-3.0114,-2.9135,-2.7867,-2.6894,-2.5913,0.0,0.0,-2.4747,-2.5171,-2.5468,-2.5757,-2.6166,0.0,0.0,-2.5361,-2.5229,0.0,0.0,0.0,0.0,-2.9714,-2.9792,-2.9792,-2.9792,-2.9792,-2.9792,-2.9792,-2.9869,-3.057,-3.2001,-3.2146,-3.2946,-3.4264,-3.4346,-3.4414,-3.4472,0.0,0.0,0.0,-3.7462,-3.797,-3.8028,-3.8086,-3.8546,-3.923,-3.9984,-4.0758,-4.1525,-4.2222,-4.2555,-4.2634,-4.2634,-4.2634,-4.2634,-4.2634,-4.2634,-4.2634,-4.2634,-4.2759,-4.2899,-4.2899,-4.3007,-4.3174,-4.3312,-4.4339,-4.525,-4.525,-4.62,-4.6998,-4.6998,-4.6998,-4.6998,-4.6998,-4.6998,-4.7015,-4.7087,-4.7105,-4.7122,-4.7194,-4.7836,-4.8318,-4.8389,-4.9085,-4.9834,-5.0548,-5.062,-5.0923,-5.1637,-5.169,-5.1871,-5.2203,-5.2545,-5.2919,-5.33,-5.36,-5.3774,-5.3813,-5.3813,-5.3813,-5.3813,-5.3813,-5.3813,-3.5797,-3.5782,-3.5767,-3.5733,-3.5379,-3.4714,-3.3394,-3.2706,-3.2015,-3.0735,-2.9729,-2.8688,-2.7718,-2.6565,-2.5421,0.0,0.0,0.0,-2.3988,-2.451,-2.4937,-2.5108,-2.5578,0.0,0.0,0.0,0.0,0.0,0.0,0.0,-2.8387,-2.8937,-2.9277,-2.9277,-2.895,-2.8775,-2.8775,-2.8775,-2.9048,-2.9671,-3.0592,-3.1556,-3.2541,-3.347,-3.4051,-3.4457,-3.5357,0.0,0.0,-3.7288,-3.7883,-3.8202,-3.8202,-3.8412,-3.8752,-3.9929,-4.0554,-4.1044,-4.2222,-4.2634,-4.2634,-4.2634,-4.2634,-4.2634,-4.2759,-4.2775,-4.2837,-4.2867,-4.3068,-4.3207,-4.3207,-4.3312,-4.3476,-4.3948,-4.4691,-4.5407,-4.5751,-4.6477,-4.6998,-4.6998,-4.6998,-4.6998,-4.6998,-4.6998,-4.6998,-4.6998,-4.6998,-4.6998,-4.6998,-4.7265,-4.7461,-4.7461,-4.8568,-4.9442,-4.9763,-4.9799,-5.0138,-5.0923,-5.1221,-5.1705,-5.2545,-5.2919,-5.3277,-5.36,-5.3717,-5.3813,-5.3813,-5.3813,-5.3813,-5.3813,-5.3813,-5.3813,-3.5424,-3.5474,-3.5509,-3.5504,-3.4971,-3.4163,-3.3101,-3.2263,-3.1442,-3.0508,-2.9341,-2.8223,-2.7464,-2.608,-2.4925,0.0,0.0,-2.369,-2.3257,-2.3864,-2.4375,-2.4245,0.0,-2.4996,0.0,0.0,0.0,0.0,0.0,0.0,0.0,-2.8002,-2.8288,-2.8438,-2.815,-2.8024,-2.8024,-2.8109,-2.8315,-2.8723,-2.9827,-3.0815,-3.1708,-3.2758,-3.3441,-3.3891,0.0,0.0,0.0,-3.6388,-3.7099,-3.7665,-3.7854,-3.8192,-3.862,-3.9718,-4.0347,-4.0894,-4.1933,-4.2429,-4.2634,-4.2634,-4.2634,-4.2634,-4.2883,-4.2961,-4.2961,-4.3052,-4.3235,-4.3388,-4.3449,-4.3509,-4.373,-4.435,-4.491,-4.5477,-4.607,-4.6637,-4.6998,-4.6998,-4.6998,-4.6998,-4.6998,-4.6998,-4.6998,-4.6998,-4.6998,-4.6998,-4.6998,-4.6998,-4.6998,-4.6998,-4.7979,-4.8728,-4.896,-4.9073,-4.946,-5.0229,-5.0659,-5.1383,-5.2553,-5.2826,-5.3222,-5.3794,-5.3813,-5.3813,-5.3813,-5.3813,-5.3813,-5.3813,-5.3813,-5.3813,-3.5329,-3.5213,-3.5228,-3.5439,-3.4758,-3.3808,-3.3101,-3.2205,-3.122,-3.0292,-2.8688,-2.7383,-2.6894,-2.5432,-2.411,-2.3841,-2.3841,0.0,-2.3257,-2.368,-2.3979,0.0,0.0,-2.4258,-2.3838,0.0,0.0,0.0,0.0,0.0,0.0,-2.7004,-2.6967,-2.7471,-2.7705,-2.7791,-2.7791,-2.8024,-2.8866,-3.031,-3.031,-3.1068,-3.2463,-3.2527,-3.2527,0.0,0.0,0.0,0.0,-3.4932,-3.5764,-3.6402,-3.7056,-3.8091,-3.9305,-3.932,-4.0209,-4.1525,-4.1525,-4.2013,-4.2634,-4.2634,-4.2634,-4.268,-4.299,-4.3007,-4.2961,-4.3052,-4.3235,-4.3432,-4.3552,-4.3628,-4.373,-4.435,-4.491,-4.5477,-4.607,-4.6637,-4.6998,-4.6998,-4.6998,-4.6998,-4.6998,-4.6998,-4.6998,-4.6998,-4.6998,-4.6998,-4.6998,-4.6998,-4.6998,-4.6998,-4.6998,-4.7337,-4.8122,-4.8497,-4.9045,-4.974,-5.0105,-5.083,-5.2063,-5.2121,-5.2629,-5.3794,-5.3813,-5.3813,-5.3813,-5.3813,-5.3813,-5.3813,-5.3813,-5.3813,-3.3602,-3.3394,-3.3463,-3.3463,-3.2904,-3.2205,-3.1829,-3.0983,-3.005,-2.8991,-2.7695,-2.6554,-2.5797,-2.4573,-2.3677,-2.359,-2.3406,0.0,0.0,0.0,0.0,-2.3076,-2.3464,-2.3754,0.0,0.0,0.0,0.0,0.0,0.0,0.0,-2.5565,-2.6104,-2.6943,-2.667,-2.6556,-2.671,-2.6781,-2.7119,-2.7704,-2.8612,-2.9556,-3.0443,-3.1375,0.0,0.0,0.0,0.0,0.0,-3.437,-3.4835,-3.5082,-3.572,-3.6295,-3.6781,-3.8205,-3.8964,-3.9508,-4.0497,-4.0962,-4.116,-4.116,-4.116,-4.1237,-4.1434,-4.2239,-4.3113,-4.3372,-4.3492,-4.3568,-4.3568,-4.3628,-4.373,-4.435,-4.491,-4.5477,-4.607,-4.6637,-4.6998,-4.6998,-4.6998,-4.6998,-4.6998,-4.6998,-4.6998,-4.6998,-4.6998,-4.6998,-4.6998,-4.6998,-4.6998,-4.6998,-4.6998,-4.7087,-4.7354,-4.7671,-4.8215,-4.9009,-4.9578,-5.0291,-5.1161,-5.2005,-5.2603,-5.2977,-5.3534,-5.3813,-5.3813,-5.3813,-5.3813,-5.3813,-5.3813,-5.3813,-3.2379,-3.2222,-3.2294,-3.2365,-3.1742,-3.1119,-3.1018,-3.0254,-2.9209,-2.8187,-2.7209,-2.6141,-2.5031,-2.4059,-2.3319,-2.3144,-2.2969,-2.2727,0.0,0.0,0.0,-2.2618,0.0,0.0,0.0,0.0,0.0,0.0,0.0,0.0,0.0,-2.4862,-2.5539,-2.6176,-2.5929,-2.584,-2.598,-2.6131,-2.6396,-2.6782,-2.792,-2.8889,-2.9545,-3.064,0.0,0.0,0.0,0.0,0.0,-3.3064,-3.347,-3.3761,-3.4399,-3.5005,-3.5609,-3.7119,-3.8004,-3.8531,-3.9704,-4.0301,-4.0496,-4.0496,-4.0615,-4.0674,-4.0841,-4.1547,-4.2413,-4.2666,-4.2999,-4.3214,-4.3214,-4.3573,-4.4064,-4.4635,-4.5214,-4.5802,-4.6381,-4.6778,-4.6998,-4.6998,-4.6998,-4.6998,-4.6998,-4.6998,-4.6998,-4.6998,-4.6998,-4.6998,-4.6998,-4.6998,-4.6998,-4.6998,-4.7116,-4.7205,-4.7205,-4.7511,-4.7964,-4.8538,-4.9097,-4.9732,-5.0508,-5.125,-5.1806,-5.2141,-5.294,-5.3348,-5.3348,-5.3664,-5.3813,-5.3813,-5.3813,-5.3813,0.0,-3.1483,-3.1556,-3.1775,-3.1127,-3.0493,-3.0493,-2.9781,0.0,-2.7891,-2.7058,-2.6047,-2.4511,-2.3617,-2.2969,-2.2441,-2.2441,-2.2309,0.0,-2.2117,0.0,0.0,-2.2325,0.0,0.0,0.0,0.0,0.0,0.0,0.0,0.0,-2.4791,-2.5312,-2.5312,-2.5465,-2.5606,-2.5606,-2.598,-2.6452,-2.7162,-2.8051,-2.8826,-2.956,-3.0251,0.0,0.0,0.0,0.0,0.0,-3.1206,-3.1816,-3.244,-3.3079,-3.4051,-3.5234,-3.6053,-3.7091,-3.8314,-3.9078,-3.9761,-4.0335,-4.0335,-4.0587,-4.0836,-4.0836,-4.1001,-4.1238,-4.1352,-4.1905,-4.2435,-4.2435,-4.3377,-4.4444,-4.4936,-4.5629,-4.6244,-4.6753,-4.6944,-4.6998,-4.6998,-4.6998,-4.6998,-4.6998,-4.6998,-4.6998,-4.6998,-4.6998,-4.6998,-4.6998,-4.7025,-4.7043,-4.7043,-4.7338,-4.7536,-4.7536,-4.787,-4.8132,-4.8383,-4.8695,-4.9243,-4.9986,-5.0079,-5.0488,-5.1305,-5.2159,-5.2605,-5.2605,-5.3423,-5.3813,-5.3813,-5.3813,-5.3813,-2.9394,0.0,-2.9704,-2.9768,-2.9626,-2.9419,0.0,-2.9184,-2.8383,-2.6871,-2.6224,-2.54,-2.3551,-2.3047,-2.2794,-2.2441,-2.2441,-2.2403,-2.2309,0.0,0.0,-2.2353,-2.1973,0.0,0.0,0.0,0.0,0.0,0.0,0.0,0.0,-2.4409,-2.5312,-2.5312,-2.5382,-2.5453,-2.5606,-2.5688,-2.5968,-2.6465,-2.767,-2.8441,-2.8826,-3.0054,0.0,0.0,0.0,0.0,-3.0582,-3.0727,-3.0887,-3.109,-3.1729,-3.215,-3.2655,-3.4816,-3.583,-3.6353,-3.8073,-3.8762,-3.8893,-3.9008,-3.9121,-3.9177,-3.944,-4.0364,-4.1352,-4.1409,-4.1541,-4.1674,-4.1674,-4.2183,-4.2777,-4.2884,-4.4128,-4.5291,-4.5434,-4.6258,-4.6998,-4.6998,-4.6998,-4.6998,-4.6998,-4.6998,-4.6998,-4.6998,-4.6998,-4.6998,-4.6998,-4.7205,-4.7381,-4.7381,-4.7663,-4.7992,-4.8153,-4.8269,-4.8345,-4.8383,-4.8695,-4.8983,-4.9169,-4.9782,-5.0228,-5.0469,-5.1881,-5.2605,-5.2605,-5.3423,-5.3813,-5.3813,-5.3813,-5.3813,-2.8645,-2.8578,-2.8816,-2.8816,-2.8816,-2.8816,-2.8816,-2.8736,-2.8143,-2.6224,-2.5735,-2.4978,-2.2872,-2.2451,-2.2362,-2.2087,-2.2087,0.0,0.0,0.0,-2.183,-2.2087,0.0,0.0,0.0,0.0,0.0,0.0,0.0,0.0,0.0,-2.4204,-2.5182,-2.5182,-2.5241,-2.5382,-2.5453,-2.5535,-2.5758,-2.605,-2.7537,-2.8298,-2.8556,-2.9979,-3.0568,0.0,0.0,0.0,-3.0568,-3.0568,-3.0568,-3.0611,-3.0945,-3.1264,-3.1722,-3.3771,-3.466,-3.5208,-3.7222,-3.8172,-3.8504,-3.8655,-3.8711,-3.8821,-3.8985,-3.9693,-4.0431,-4.0431,-4.068,-4.0945,-4.0945,-4.1603,-4.2306,-4.2551,-4.3554,-4.453,-4.4781,-4.5693,-4.6444,-4.6444,-4.6748,-4.6998,-4.6998,-4.6998,-4.6998,-4.6998,-4.6998,-4.6998,-4.6998,-4.716,-4.7338,-4.7468,-4.7788,-4.8093,-4.8383,-4.8532,-4.8623,-4.8623,-4.8785,-4.8909,-4.8909,-4.9317,-4.9745,-5.019,-5.1026,-5.1825,-5.2605,-5.3051,-5.3441,-5.3794,-5.3907,-5.3944,-2.8407,-2.8271,-2.8431,-2.8431,-2.8431,-2.8431,-2.8431,-2.8431,-2.7846,-2.5997,-2.5663,-2.4978,-2.2862,-2.2441,0.0,-2.1998,0.0,0.0,-2.1741,-2.1571,-2.1454,-2.156,0.0,0.0,0.0,0.0,0.0,0.0,0.0,0.0,0.0,-2.407,-2.5123,-2.5123,-2.5241,-2.5312,-2.5312,-2.5465,-2.5676,-2.5898,-2.7404,-2.8233,-2.8492,-2.9917,-3.0568,0.0,0.0,0.0,-3.0568,-3.0568,-3.0568,-3.0568,-3.0568,-3.0962,-3.1672,-3.292,-3.3856,-3.4814,-3.679,-3.7945,-3.8616,-3.8766,-3.8914,-3.9023,-3.9023,-3.9148,-3.9272,-3.9272,-3.9736,-4.0216,-4.0216,-4.1157,-4.2159,-4.2582,-4.3288,-4.3923,-4.4359,-4.5071,-4.5624,-4.5624,-4.6266,-4.6819,-4.6819,-4.6908,-4.6998,-4.6998,-4.6998,-4.6998,-4.6998,-4.7025,-4.7205,-4.7554,-4.787,-4.8172,-4.8458,-4.875,-4.8909,-4.8909,-4.8909,-4.8909,-4.8909,-4.8909,-4.9243,-4.9986,-5.0079,-5.0803,-5.2252,-5.2512,-5.3033,-5.3684,-5.3999,-5.4163,-2.8111,-2.7962,-2.7962,-2.7962,-2.7962,-2.7962,-2.7962,-2.7962,-2.7708,-2.6599,-2.6351,-2.5924,0.0,-2.38,-2.3202,0.0,0.0,-2.1741,0.0,0.0,-2.1514,0.0,0.0,0.0,0.0,0.0,0.0,0.0,0.0,0.0,0.0,0.0,-2.5123,-2.5123,-2.5241,-2.5312,-2.5312,-2.5312,-2.5453,-2.5676,-2.7258,-2.8117,-2.8298,-2.9856,-3.0568,0.0,0.0,-3.0568,-3.0568,-3.0568,-3.0568,-3.0568,-3.0568,-3.0984,-3.1631,-3.2924,-3.4198,-3.5521,-3.7536,-3.8423,-3.8616,-3.8766,-3.8914,-3.9023,-3.9202,-3.9272,-3.9272,-3.9272,-3.9355,-3.9454,-3.9454,-4.0256,-4.1051,-4.1147,-4.2367,-4.3594,-4.3636,-4.4268,-4.4803,-4.4803,-4.5445,-4.598,-4.598,-4.6551,-4.6998,-4.6998,-4.6998,-4.6998,-4.6998,-4.7249,-4.7536,-4.787,-4.8172,-4.8476,-4.8785,-4.8874,-4.8909,-4.8909,-4.8909,-4.8909,-4.8909,-4.8909,-4.8964,-4.9094,-4.9763,-5.0298,-5.0751,-5.2151,-5.2968,-5.3237,-5.3984,-5.4356,-2.7857,-2.7696,-2.7626,-2.7557,-2.7719,-2.7893,-2.7893,-2.7893,-2.7626,-2.6528,0.0,0.0,0.0,0.0,-2.38,-2.3183,0.0,-2.1741,-2.1741,0.0,0.0,0.0,0.0,0.0,0.0,0.0,0.0,0.0,0.0,0.0,0.0,0.0,-2.4921,-2.4921,-2.5182,-2.5312,-2.5312,-2.5312,-2.5581,-2.6208,-2.7391,-2.8247,-2.8839,-3.0054,-3.0568,-3.0568,0.0,-3.0568,-3.0568,-3.0568,-3.0771,-3.109,-3.109,-3.1477,-3.218,-3.3465,-3.5002,-3.6573,-3.7566,-3.8274,-3.8711,-3.886,-3.9023,-3.9202,-3.9272,-3.9272,-3.9272,-3.9272,-3.9272,-3.9272,-3.9272,-3.9833,-4.0449,-4.0754,-4.1635,-4.2508,-4.2798,-4.3465,-4.4018,-4.4018,-4.4642,-4.516,-4.516,-4.582,-4.6355,-4.6355,-4.6712,-4.6998,-4.6998,-4.7294,-4.7639,-4.7951,-4.8249,-4.855,-4.8855,-4.8909,-4.8909,-4.8909,-4.8909,-4.8909,-4.8909,-4.8909,-4.8943,-4.9046,-4.9418,-4.9911,-5.0506,-5.1274,-5.2132,-5.3132,-5.3626,-5.4072,-2.7684,-2.7441,-2.7371,-2.7219,-2.7476,-2.7731,-2.7731,-2.7731,-2.7476,0.0,0.0,0.0,0.0,-2.4914,0.0,-2.3444,-2.2765,0.0,0.0,0.0,0.0,0.0,0.0,0.0,0.0,0.0,0.0,0.0,0.0,0.0,0.0,0.0,-2.479,-2.479,-2.5111,-2.5312,-2.5312,-2.5312,-2.5721,-2.6676,-2.7524,-2.8441,-2.9233,-3.019,-3.0568,-3.0568,-3.0568,-3.0568,-3.0568,-3.0568,-3.0945,-3.1526,-3.1526,-3.2105,-3.3129,-3.4406,-3.59,-3.7339,-3.7649,-3.8237,-3.8805,-3.8969,-3.9148,-3.9272,-3.9272,-3.9272,-3.9272,-3.9272,-3.9362,-3.9468,-3.9325,-3.9731,-4.0302,-4.0707,-4.1248,-4.1813,-4.2187,-4.2769,-4.3233,-4.3233,-4.3839,-4.4357,-4.4357,-4.5017,-4.5517,-4.5517,-4.6195,-4.6757,-4.6829,-4.7212,-4.7663,-4.8053,-4.8288,-4.855,-4.8855,-4.8909,-4.8909,-4.8909,-4.8909,-4.8909,-4.8978,-4.8978,-4.9046,-4.9244,-4.9244,-4.9608,-5.0385,-5.0573,-5.1356,-5.2648,-5.3013,-5.3615,-2.7534,-2.7231,-2.7231,-2.7231,-2.7231,-2.7231,-2.7231,-2.7231,-2.7231,-2.7138,0.0,0.0,0.0,-2.6268,-2.5316,-2.3963,-2.4059,0.0,0.0,0.0,0.0,0.0,0.0,0.0,0.0,0.0,0.0,0.0,0.0,0.0,0.0,0.0,0.0,-2.479,-2.5111,-2.5312,-2.5312,-2.5312,-2.5652,-2.6414,-2.7458,-2.8363,-2.9066,-3.0115,-3.0568,-3.0568,-3.0568,-3.0568,-3.0568,-3.0568,-3.0945,-3.1526,-3.1526,-3.2629,-3.4417,-3.5723,-3.6653,-3.742,-3.8251,-3.8662,-3.8805,-3.8969,-3.9148,-3.9272,-3.9272,-3.9272,-3.9272,-3.9272,-3.9592,-3.9868,-3.9415,-4.0037,-4.0754,-4.0802,-4.1552,-4.2246,-4.2287,-4.2341,-4.2376,-4.2376,-4.3036,-4.359,-4.359,-4.4196,-4.4714,-4.4714,-4.5374,-4.6006,-4.6314,-4.7024,-4.7728,-4.8307,-4.8383,-4.855,-4.8855,-4.8909,-4.8909,-4.8909,-4.8909,-4.8978,-4.9179,-4.9179,-4.9244,-4.9384,-4.9384,-4.9514,-4.9787,-5.0522,-5.1034,-5.1367,-5.2125,-5.2978,-2.7545,-2.7231,-2.7231,-2.7231,-2.7231,-2.7231,0.0,-2.7231,-2.7149,-2.6787,-2.6974,0.0,0.0,0.0,-2.5179,-2.4402,0.0,0.0,0.0,0.0,0.0,0.0,0.0,0.0,0.0,0.0,0.0,0.0,0.0,0.0,0.0,0.0,0.0,-2.479,-2.5111,-2.5312,-2.5312,-2.5312,-2.5918,-2.7082,-2.7736,-2.8583,-2.9699,-3.0326,-3.0568,-3.0568,-3.0568,-3.0568,-3.0568,-3.0568,-3.0945,-3.1598,-3.2411,-3.3672,-3.5122,-3.6029,-3.6841,-3.7559,-3.8334,-3.8711,-3.8914,-3.8969,-3.9148,-3.9272,-3.9272,-3.9272,-3.9272,-3.9272,-3.9415,-3.9592,-3.9679,-4.0497,-4.1265,-4.1265,-4.177,-4.2287,-4.2287,-4.2287,-4.2287,-4.2287,-4.2537,-4.2751,-4.2751,-4.3411,-4.3929,-4.3929,-4.4571,-4.5362,-4.6212,-4.6762,-4.7427,-4.829,-4.8587,-4.875,-4.8909,-4.8909,-4.8909,-4.8909,-4.9012,-4.9113,-4.9197,-4.9276,-4.9402,-4.9585,-4.9585,-4.9673,-4.9816,-5.0118,-5.0601,-5.1206,-5.1608,-5.2265,-2.8087,-2.7696,-2.7545,-2.7545,-2.7383,0.0,-2.7231,-2.7056,-2.688,-2.6528,-2.6633,-2.6727,-2.6373,0.0,0.0,0.0,0.0,0.0,0.0,0.0,0.0,0.0,0.0,0.0,0.0,0.0,0.0,0.0,0.0,0.0,0.0,0.0,0.0,0.0,-2.5182,-2.5312,-2.5312,-2.5382,-2.6126,-2.7591,-2.792,-2.8776,-3.0111,-3.0462,-3.0568,-3.0568,-3.0568,-3.0568,-3.0568,-3.0568,-3.0945,-3.1627,-3.2972,-3.4278,-3.5579,-3.6183,-3.7105,-3.8084,-3.8528,-3.8821,-3.9023,-3.9077,-3.9202,-3.9272,-3.9272,-3.9272,-3.9272,-3.9272,-3.9415,-3.9644,-4.012,-4.0767,-4.1311,-4.1472,-4.1899,-4.2287,-4.2287,-4.2287,-4.2287,-4.2287,-4.2287,-4.2287,-4.2287,-4.2751,-4.3126,-4.3126,-4.3786,-4.4617,-4.5594,-4.6124,-4.6852,-4.8034,-4.8601,-4.8909,-4.8909,-4.8909,-4.8909,-4.8909,-4.9146,-4.9276,-4.9276,-4.9415,-4.9585,-4.9778,-4.9759,-4.9816,-4.9898,-4.9898,-5.0201,-5.0789,-5.0893,-5.144,-2.9238,-2.8633,-2.8179,-2.8179,0.0,0.0,-2.7231,-2.688,-2.6528,-2.6528,-2.6218,-2.5895,-2.5895,-2.5895,0.0,0.0,0.0,0.0,0.0,0.0,0.0,0.0,0.0,0.0,0.0,0.0,0.0,0.0,0.0,0.0,0.0,0.0,0.0,0.0,-2.5241,-2.5312,-2.5312,-2.5535,-2.6333,-2.7683,-2.8038,-2.8839,-3.0111,-3.0462,-3.0568,-3.0568,-3.0568,-3.0568,-3.0568,-3.0568,-3.0945,-3.1646,-3.2879,-3.4304,-3.5727,-3.6295,-3.7456,-3.8805,-3.8969,-3.9023,-3.9023,-3.9218,-3.9272,-3.9272,-3.9272,-3.9272,-3.9272,-3.9272,-3.9644,-4.0103,-4.0659,-4.0802,-4.0943,-4.1401,-4.1899,-4.2287,-4.2287,-4.2287,-4.2287,-4.2287,-4.2287,-4.2287,-4.2287,-4.2287,-4.2287,-4.2287,-4.2983,-4.3714,-4.4325,-4.5093,-4.6122,-4.7522,-4.8407,-4.889,-4.889,-4.8909,-4.8909,-4.8909,-4.9206,-4.9415,-4.9415,-4.9585,-4.9759,-4.9898,-4.9898,-4.9898,-4.9898,-4.9898,-4.9898,-4.9879,-4.9906,-5.0552,-2.9238,-2.8937,-2.87,-2.8327,0.0,0.0,0.0,-2.688,0.0,0.0,-2.5957,-2.5452,-2.5448,0.0,0.0,0.0,0.0,0.0,0.0,0.0,0.0,0.0,0.0,0.0,0.0,0.0,0.0,0.0,0.0,0.0,0.0,0.0,0.0,0.0,-2.5241,-2.5312,-2.5312,-2.5535,-2.6333,-2.7683,-2.8038,-2.8903,-3.0266,-3.0507,-3.0568,-3.0568,-3.0568,-3.0568,-3.0568,-3.0568,-3.0945,-3.154,-3.21,-3.3084,-3.4412,-3.5623,-3.6711,-3.7722,-3.8678,-3.9094,-3.9218,-3.9272,-3.9272,-3.9272,-3.9272,-3.9272,-3.9272,-3.9272,-3.9644,-4.0103,-4.0659,-4.1019,-4.1445,-4.1959,-4.2187,-4.2287,-4.2287,-4.2287,-4.2287,-4.2287,-4.2287,-4.2287,-4.2287,-4.2287,-4.2287,-4.2287,-4.2669,-4.3348,-4.4526,-4.56,-4.64,-4.6828,-4.7571,-4.8054,-4.8054,-4.8574,-4.8909,-4.8909,-4.9206,-4.9415,-4.9415,-4.9683,-4.9871,-4.9898,-4.9898,-4.9898,-4.9898,-4.9898,-4.9959,-5.0114,-5.0197,-5.0536,-2.9947,-2.9639,-2.9406,-2.9028,-2.8712,-2.8395,-2.7834,0.0,0.0,0.0,-2.5957,-2.5462,-2.5513,-2.5038,0.0,0.0,0.0,0.0,0.0,0.0,0.0,0.0,0.0,0.0,0.0,0.0,0.0,0.0,0.0,0.0,0.0,0.0,0.0,0.0,-2.5241,-2.5312,-2.5382,-2.5606,-2.6471,-2.7894,-2.8168,-2.9079,-3.0447,-3.0507,-3.0568,-3.0568,-3.0568,-3.0568,-3.0568,-3.0568,-3.08,-3.1195,-3.1618,-3.242,-3.3602,-3.533,-3.6457,-3.7396,-3.869,-3.9218,-3.9272,-3.9272,-3.9272,-3.9272,-3.9272,-3.9272,-3.9272,-3.9272,-3.9504,-3.9885,-4.0611,-4.1036,-4.1401,-4.2145,-4.2287,-4.2287,-4.2287,-4.2287,-4.2287,-4.2287,-4.2287,-4.2287,-4.2287,-4.2287,-4.2287,-4.2287,-4.2652,-4.3214,-4.4207,-4.5308,-4.6011,-4.6011,-4.6735,-4.7218,-4.7218,-4.7961,-4.846,-4.8528,-4.907,-4.9446,-4.9525,-4.9769,-4.9898,-4.9898,-4.9898,-4.9898,-4.9898,-4.9986,-5.0089,-5.0188,-5.0336,-5.0507,-3.0986,-3.0596,-3.0114,-3.0037,-2.9561,0.0,-2.8585,-2.7557,-2.6682,-2.6599,0.0,-2.5968,-2.5924,0.0,0.0,0.0,0.0,0.0,0.0,0.0,0.0,0.0,0.0,0.0,0.0,0.0,0.0,0.0,0.0,0.0,0.0,0.0,0.0,0.0,-2.5312,-2.5382,-2.5606,-2.584,-2.6688,0.0,-2.8427,-2.9205,-3.0568,-3.0568,-3.0568,-3.0568,-3.0568,-3.0568,-3.0568,-3.0568,-3.0568,-3.0687,-3.1364,-3.2143,-3.3142,-3.5086,-3.6438,-3.7432,-3.8764,-3.9222,-3.9272,-3.9272,-3.9272,-3.9272,-3.9272,-3.9272,-3.9272,-3.9272,-3.9325,-3.9609,-4.0563,-4.0849,-4.1128,-4.2061,-4.2287,-4.2287,-4.2287,-4.2287,-4.2287,-4.2287,-4.2287,-4.2287,-4.2287,-4.2287,-4.2328,-4.2369,-4.2862,-4.3304,-4.3597,-4.4545,-4.5175,-4.5175,-4.59,-4.6382,-4.6415,-4.7159,-4.769,-4.7884,-4.8734,-4.9318,-4.9579,-4.9778,-4.9898,-4.9898,-4.9898,-4.9925,-4.9925,-5.0114,-5.0212,-5.0259,-5.038,-5.0527,-3.0986,-3.0898,0.0,-3.0114,-2.9561,-2.9081,-2.8991,-2.8755,-2.8279,-2.7476,-2.6905,-2.6476,-2.5954,0.0,0.0,0.0,0.0,0.0,0.0,0.0,0.0,0.0,0.0,0.0,0.0,0.0,0.0,0.0,0.0,0.0,0.0,0.0,0.0,-2.5535,-2.5535,-2.5606,-2.5828,-2.605,-2.6837,0.0,-2.8427,-2.9205,-3.0568,-3.0568,-3.0568,-3.0568,-3.0568,-3.0568,-3.0568,-3.0568,-3.0568,-3.0628,-3.1058,-3.1619,-3.2408,-3.4069,-3.5474,-3.6757,-3.8027,-3.8808,-3.9272,-3.9272,-3.9272,-3.9272,-3.9272,-3.9272,-3.9272,-3.9272,-3.9556,-4.002,-4.0659,-4.1065,-4.1534,-4.2145,-4.2287,-4.2287,-4.2287,-4.2287,-4.2287,-4.2287,-4.2287,-4.2287,-4.2287,-4.2287,-4.245,-4.2938,-4.3123,-4.3375,-4.386,-4.4122,-4.4283,-4.4283,-4.5045,-4.5611,-4.5718,-4.6445,-4.6975,-4.714,-4.7475,-4.7975,-4.8655,-4.9456,-4.9898,-4.9898,-4.9898,-4.9959,-5.0139,-5.0163,-5.0352,-5.0586,-5.0625,-5.0738,-3.1392,-3.1196,0.0,-3.0596,0.0,-3.0037,-3.0037,-3.0037,-2.9793,-2.8912,-2.8267,-2.7636,0.0,0.0,0.0,0.0,0.0,0.0,0.0,0.0,0.0,0.0,0.0,0.0,0.0,0.0,0.0,0.0,0.0,0.0,0.0,-2.5241,-2.5382,-2.5453,-2.5535,-2.5688,-2.591,-2.6131,-2.6905,-2.8363,-2.8427,-2.9205,-3.0568,-3.0568,-3.0568,-3.0568,-3.0568,-3.0642,-3.0702,-3.0702,-3.0762,-3.0881,-3.1117,-3.1529,-3.2236,-3.3732,-3.5125,-3.65,-3.7732,-3.8676,-3.9272,-3.9272,-3.9272,-3.9272,-3.9272,-3.9272,-3.9272,-3.9272,-3.9468,-3.9833,-4.0611,-4.099,-4.1356,-4.2103,-4.2287,-4.2287,-4.2287,-4.2287,-4.2287,-4.2287,-4.2287,-4.2287,-4.2287,-4.2287,-4.2512,-4.3087,-4.3214,-4.341,-4.3942,-4.4005,-4.4005,-4.4005,-4.4476,-4.4848,-4.492,-4.5709,-4.6296,-4.6403,-4.6901,-4.7418,-4.7916,-4.8829,-4.95,-4.9879,-4.9986,-5.0089,-5.0188,-5.0355,-5.0526,-5.0701,-5.0773,-5.0841,-3.1759,-3.1418,-3.0986,-3.0986,-3.0986,0.0,-3.0986,-3.0986,-3.0823,-3.0279,-2.9716,0.0,0.0,0.0,0.0,0.0,0.0,0.0,0.0,0.0,0.0,0.0,0.0,0.0,0.0,0.0,0.0,0.0,0.0,0.0,-2.5312,-2.5312,-2.5382,-2.5382,-2.5606,-2.5828,-2.598,-2.6201,-2.704,-2.8492,-2.8762,-2.947,-3.0568,-3.0568,-3.0568,-3.0568,-3.0642,-3.0702,-3.0821,-3.0821,-3.0955,-3.1132,-3.1234,-3.161,-3.2247,-3.363,-3.4926,-3.6182,-3.7524,-3.8493,-3.9106,-3.9239,-3.9272,-3.9272,-3.9272,-3.9272,-3.9272,-3.9272,-3.9272,-3.952,-4.0514,-4.0802,-4.1036,-4.2061,-4.2287,-4.2287,-4.2287,-4.2287,-4.2287,-4.2287,-4.2287,-4.2287,-4.2287,-4.2328,-4.2552,-4.3123,-4.3232,-4.3479,-4.3974,-4.4036,-4.4067,-4.4097,-4.4237,-4.4344,-4.4373,-4.5058,-4.5575,-4.5719,-4.6399,-4.6925,-4.7188,-4.7889,-4.8731,-4.9705,-5.0038,-5.0236,-5.0283,-5.0546,-5.072,-5.0738,-5.0858,-5.0906,-3.1759,0.0,-3.0986,0.0,-3.0986,-3.0986,0.0,0.0,-3.0986,0.0,0.0,0.0,0.0,0.0,0.0,0.0,0.0,0.0,0.0,0.0,0.0,0.0,0.0,0.0,0.0,0.0,0.0,0.0,0.0,0.0,-2.5312,-2.5465,-2.5606,-2.5828,-2.598,-2.6201,-2.6396,-2.6465,-2.7162,-2.8492,-2.9732,-3.0433,-3.0568,-3.0568,-3.0568,-3.0628,-3.0702,-3.0762,-3.0821,-3.1014,-3.1087,-3.1132,-3.1234,-3.161,-3.2201,-3.3027,-3.4154,-3.5467,-3.6767,-3.7731,-3.846,-3.9073,-3.9272,-3.9272,-3.9272,-3.9272,-3.9272,-3.9272,-3.9272,-3.952,-4.0514,-4.0802,-4.1036,-4.2061,-4.2287,-4.2287,-4.2287,-4.2287,-4.2287,-4.2287,-4.2287,-4.2287,-4.2287,-4.2494,-4.275,-4.3123,-4.3391,-4.373,-4.4177,-4.4255,-4.4296,-4.4411,-4.4458,-4.4524,-4.4632,-4.4753,-4.4889,-4.5041,-4.5136,-4.5552,-4.6335,-4.6468,-4.7327,-4.9001,-4.9806,-5.0333,-5.0645,-5.0682,-5.0756,-5.0874,-5.089,-5.0906,-3.1535,-3.1169,-3.0986,0.0,-3.0986,-3.0986,-3.0986,-3.0986,-3.0986,-3.0986,0.0,0.0,0.0,0.0,0.0,0.0,0.0,0.0,0.0,0.0,0.0,0.0,0.0,0.0,0.0,0.0,0.0,0.0,0.0,-2.6252,-2.6625,-2.6458,-2.6333,-2.6483,-2.6633,-2.6589,-2.6339,-2.685,-2.7802,-2.9219,-3.0251,-3.0762,-3.0895,-3.0895,-3.0821,-3.0702,-3.0762,-3.0881,-3.1117,-3.1176,-3.1249,-3.1307,-3.1409,-3.1936,-3.2772,-3.3077,-3.4217,-3.5777,-3.6736,-3.7599,-3.8328,-3.904,-3.9272,-3.9272,-3.9272,-3.9272,-3.9272,-3.9272,-3.9504,-3.9885,-4.0611,-4.099,-4.1401,-4.2103,-4.2287,-4.2287,-4.2287,-4.2287,-4.2287,-4.2287,-4.2287,-4.2369,-4.2494,-4.2634,-4.2884,-4.3458,-4.3646,-4.3873,-4.4354,-4.4401,-4.443,-4.4487,-4.4551,-4.4632,-4.4693,-4.477,-4.4821,-4.4895,-4.4895,-4.5066,-4.5464,-4.5937,-4.6654,-4.7654,-4.8974,-5.0003,-5.0701,-5.0773,-5.0841,-5.0906,-5.0906,-5.0906,-3.147,0.0,-3.0986,-3.0986,-3.0986,-3.0986,0.0,0.0,-3.0986,0.0,0.0,0.0,0.0,0.0,0.0,0.0,0.0,0.0,0.0,0.0,0.0,0.0,0.0,0.0,0.0,0.0,0.0,0.0,0.0,-2.7178,-2.7762,-2.7445,-2.7258,-2.7258,-2.7404,-2.7284,-2.6782,-2.7617,-2.8648,-2.9808,-3.0507,-3.0895,-3.1087,-3.1087,-3.1014,-3.094,-3.094,-3.1058,-3.1278,-3.1351,-3.1409,-3.1482,-3.1482,-3.2216,-3.3182,-3.3182,-3.4274,-3.5827,-3.6572,-3.7317,-3.8046,-3.8775,-3.9123,-3.9272,-3.9272,-3.9272,-3.9325,-3.9451,-3.9731,-4.0153,-4.0784,-4.1248,-4.1622,-4.2187,-4.2287,-4.2287,-4.2287,-4.2287,-4.2287,-4.2287,-4.2369,-4.2472,-4.2673,-4.2846,-4.3159,-4.3707,-4.3918,-4.4121,-4.4496,-4.4551,-4.4551,-4.4605,-4.4685,-4.4764,-4.4764,-4.4846,-4.4895,-4.4895,-4.4895,-4.4895,-4.4895,-4.5569,-4.6176,-4.6685,-4.7972,-4.9221,-5.0447,-5.0761,-5.0906,-5.0906,-5.0906,-5.0906,-3.1954,-3.1405,0.0,-3.0986,-3.0986,-3.0986,0.0,0.0,0.0,0.0,0.0,0.0,0.0,0.0,0.0,0.0,0.0,0.0,0.0,0.0,0.0,0.0,0.0,0.0,0.0,0.0,0.0,0.0,0.0,-2.7762,-2.7986,-2.8051,-2.8103,-2.8103,-2.8298,-2.8427,-2.8363,-2.9093,-2.9608,-2.9808,-3.0507,-3.0895,-3.1087,-3.1087,-3.119,-3.1278,-3.1278,-3.1278,-3.1278,-3.1409,-3.1482,-3.1482,-3.1482,-3.2216,-3.3182,-3.3182,-3.3968,-3.5048,-3.5794,-3.6539,-3.7284,-3.803,-3.8725,-3.9272,-3.9272,-3.9272,-3.9415,-3.9817,-4.0003,-4.0252,-4.1202,-4.1472,-4.1622,-4.2187,-4.2287,-4.2287,-4.2287,-4.2287,-4.2287,-4.2287,-4.2494,-4.2673,-4.2711,-4.3301,-4.3758,-4.3772,-4.417,-4.4524,-4.4685,-4.4685,-4.4738,-4.4889,-4.4889,-4.4895,-4.4895,-4.4914,-4.4895,-4.4895,-4.4895,-4.4895,-4.4895,-4.5118,-4.5717,-4.6685,-4.6913,-4.7918,-4.9749,-5.0503,-5.0906,-5.0906,-5.0906,-5.0906,-3.1993,0.0,0.0,-3.0986,-3.0986,-3.0986,-3.0986,-3.0986,0.0,0.0,0.0,0.0,0.0,0.0,0.0,0.0,0.0,0.0,0.0,0.0,0.0,0.0,0.0,0.0,0.0,0.0,0.0,0.0,0.0,0.0,-2.947,-2.9219,-2.9093,-2.9093,-2.8782,-2.838,-2.8024,-2.8278,-2.8767,-2.9506,-2.9748,-2.9933,-3.0116,-3.0116,-3.038,-3.081,-3.081,-3.1063,-3.1409,-3.1467,-3.1482,-3.1482,-3.1482,-3.2216,-3.3182,-3.3182,-3.3935,-3.5015,-3.5744,-3.6489,-3.7235,-3.798,-3.8692,-3.9272,-3.9272,-3.9272,-3.9415,-3.9868,-4.0252,-4.0642,-4.1338,-4.177,-4.2044,-4.2246,-4.2287,-4.2287,-4.2287,-4.2287,-4.2287,-4.2287,-4.2534,-4.2788,-4.2995,-4.3458,-4.3918,-4.4199,-4.4477,-4.4685,-4.4796,-4.4821,-4.4846,-4.4895,-4.4895,-4.4895,-4.4895,-4.4895,-4.4895,-4.4895,-4.4895,-4.4943,-4.5103,-4.517,-4.5454,-4.599,-4.6581,-4.7822,-4.9707,-4.9997,-5.0403,-5.0906,-5.0906,-5.0906,-3.2228,-3.1561,0.0,0.0,0.0,-3.0986,-3.0986,0.0,0.0,0.0,0.0,0.0,0.0,0.0,0.0,0.0,0.0,0.0,0.0,0.0,0.0,0.0,0.0,0.0,0.0,0.0,0.0,0.0,0.0,0.0,-3.0387,-3.0129,-2.9832,-2.9679,-2.9021,-2.8539,-2.8211,-2.8268,-2.8566,-2.9277,-2.9277,-2.9401,-2.9579,-2.9579,-2.9804,-3.0193,-3.0193,-3.0702,-3.1482,-3.1482,-3.164,-3.1796,-3.1796,-3.2477,-3.3527,-3.3527,-3.4102,-3.4965,-3.5462,-3.6108,-3.6854,-3.7599,-3.8328,-3.8957,-3.9206,-3.9272,-3.9415,-4.007,-4.0514,-4.0943,-4.1578,-4.2044,-4.2287,-4.2287,-4.2287,-4.2287,-4.2287,-4.2287,-4.2287,-4.2287,-4.2634,-4.2995,-4.325,-4.3726,-4.421,-4.4524,-4.4685,-4.4796,-4.487,-4.4895,-4.4895,-4.4895,-4.4895,-4.4895,-4.4895,-4.4895,-4.4895,-4.4895,-4.4943,-4.5057,-4.5192,-4.5279,-4.5419,-4.5596,-4.6205,-4.7291,-4.8836,-4.9417,-4.9977,-5.05,-5.077,-5.0906,0.0,0.0,0.0,0.0,0.0,0.0,-3.0986,0.0,0.0,0.0,0.0,0.0,0.0,0.0,0.0,0.0,0.0,0.0,0.0,0.0,0.0,0.0,0.0,0.0,0.0,0.0,0.0,0.0,0.0,-3.0387,-3.0568,-3.0553,-3.0293,-2.9783,-2.9198,-2.8917,-2.9053,-2.9039,-2.9108,-2.9218,-2.9218,-2.9342,-2.952,-2.952,-2.9535,-2.9549,-2.9549,-3.0283,-3.1422,-3.1495,-3.1823,-3.2367,-3.2382,-3.3087,-3.4101,-3.4101,-3.4448,-3.4899,-3.4899,-3.5379,-3.6125,-3.687,-3.7615,-3.8344,-3.9056,-3.9272,-3.952,-4.0514,-4.0802,-4.1036,-4.2044,-4.2287,-4.2287,-4.2287,-4.2287,-4.2287,-4.2287,-4.2287,-4.2287,-4.2287,-4.2884,-4.3406,-4.3406,-4.4114,-4.4712,-4.4712,-4.4796,-4.4895,-4.4895,-4.4895,-4.4895,-4.4895,-4.4895,-4.4895,-4.4895,-4.4914,-4.4895,-4.4895,-4.5103,-4.5213,-4.5213,-4.5456,-4.5596,-4.5613,-4.5723,-4.6206,-4.7076,-4.8798,-4.9649,-4.9687,-5.05,-5.0887,-3.2816,0.0,0.0,0.0,0.0,0.0,0.0,0.0,0.0,0.0,0.0,0.0,0.0,0.0,0.0,0.0,0.0,0.0,0.0,0.0,0.0,0.0,0.0,0.0,0.0,0.0,0.0,0.0,-3.0447,-3.0507,-3.0568,-3.0132,-2.9435,-2.8481,-2.8276,-2.8076,-2.7884,-2.7884,-2.7921,-2.8062,-2.8062,-2.8113,-2.8128,-2.8128,-2.8397,-2.8876,-2.8876,-2.934,-3.0203,-3.104,-3.1512,-3.1759,-3.2654,-3.3439,-3.4101,-3.4101,-3.4448,-3.4899,-3.4899,-3.5379,-3.6125,-3.687,-3.7615,-3.8344,-3.9056,-3.9272,-3.952,-4.0514,-4.0802,-4.1036,-4.2044,-4.2287,-4.2287,-4.2287,-4.2287,-4.2346,-4.2445,-4.2445,-4.2445,-4.2445,-4.2995,-4.3471,-4.3471,-4.4143,-4.4712,-4.4712,-4.4796,-4.4895,-4.4895,-4.4895,-4.4895,-4.4895,-4.4895,-4.4895,-4.4895,-4.5014,-4.5125,-4.5125,-4.5258,-4.54,-4.5475,-4.5563,-4.5645,-4.5737,-4.5786,-4.5916,-4.6148,-4.727,-4.814,-4.8778,-4.9629,-5.0345,-3.3304,-3.2797,-3.2288,-3.1971,0.0,0.0,-3.1703,-3.185,0.0,0.0,0.0,0.0,0.0,0.0,0.0,0.0,0.0,0.0,0.0,0.0,0.0,0.0,0.0,0.0,0.0,0.0,0.0,-3.1175,-3.1306,-3.1129,-3.0572,-2.974,-2.8866,-2.7993,-2.7768,-2.7602,-2.7488,-2.7488,-2.7539,-2.7625,-2.7625,-2.7625,-2.7625,-2.7625,-2.7936,-2.845,-2.845,-2.8814,-2.948,-3.0701,-3.1413,-3.1821,-3.2768,-3.3643,-3.4448,-3.4448,-3.4643,-3.4899,-3.4899,-3.5181,-3.5661,-3.6406,-3.7152,-3.7897,-3.8609,-3.9166,-3.9747,-4.0563,-4.1082,-4.1552,-4.2145,-4.2287,-4.2287,-4.2287,-4.2287,-4.2346,-4.2463,-4.2526,-4.2566,-4.2566,-4.3123,-4.3638,-4.3638,-4.426,-4.477,-4.477,-4.4846,-4.4895,-4.4895,-4.4895,-4.4895,-4.4895,-4.4895,-4.4895,-4.4895,-4.5061,-4.5192,-4.5192,-4.5381,-4.551,-4.5596,-4.5661,-4.5723,-4.58,-4.58,-4.58,-4.58,-4.667,-4.754,-4.8411,-4.9301,-4.9958,-3.4227,-3.3717,-3.3326,-3.3339,-3.2775,0.0,-3.2761,-3.3115,-3.3255,0.0,0.0,0.0,0.0,0.0,0.0,0.0,0.0,0.0,0.0,0.0,0.0,0.0,0.0,0.0,0.0,-3.1931,-3.2226,-3.2398,-3.2382,-3.191,-3.0659,-2.9603,-2.8763,-2.8207,-2.7676,-2.7437,-2.7625,-2.7625,-2.7625,-2.7625,-2.7625,-2.7625,-2.7625,-2.7625,-2.7845,-2.8288,-2.8288,-2.8591,-2.9183,-3.0309,-3.1292,-3.2135,-3.2757,-3.3727,-3.4767,-3.4767,-3.4833,-3.4899,-3.4899,-3.4899,-3.5015,-3.576,-3.6506,-3.7251,-3.7996,-3.9023,-4.0103,-4.0689,-4.1534,-4.2287,-4.2287,-4.2287,-4.2287,-4.2287,-4.2287,-4.2346,-4.2486,-4.2588,-4.267,-4.267,-4.3301,-4.3818,-4.3849,-4.443,-4.4895,-4.4895,-4.4895,-4.4895,-4.4895,-4.4895,-4.4895,-4.4895,-4.4895,-4.4895,-4.4919,-4.5106,-4.5235,-4.5237,-4.5475,-4.5629,-4.5629,-4.5737,-4.58,-4.58,-4.58,-4.58,-4.58,-4.6573,-4.7405,-4.8275,-4.9049,-4.9513,-3.5767,-3.5166,-3.4626,-3.4341,-3.3734,0.0,-3.3478,-3.3547,-3.3685,0.0,0.0,0.0,0.0,0.0,0.0,0.0,0.0,0.0,0.0,0.0,0.0,0.0,0.0,0.0,0.0,-3.2089,-3.2382,-3.2398,-3.2461,-3.2083,-3.1259,-3.032,-2.9471,-2.8822,-2.7882,-2.7437,-2.7625,-2.7625,-2.7625,-2.7625,-2.7625,-2.7625,-2.7625,-2.7625,-2.7845,-2.8288,-2.8288,-2.8591,-2.9136,-2.9778,-3.0461,-3.1239,-3.2348,-3.3251,-3.4005,-3.4005,-3.4386,-3.4899,-3.4899,-3.4899,-3.5015,-3.576,-3.6506,-3.7251,-3.7996,-3.9023,-4.0203,-4.1111,-4.1813,-4.2287,-4.2287,-4.2287,-4.2287,-4.2287,-4.2287,-4.2328,-4.253,-4.2788,-4.3051,-4.3195,-4.359,-4.3974,-4.4242,-4.4629,-4.4895,-4.4895,-4.4895,-4.4895,-4.4895,-4.4895,-4.4895,-4.4895,-4.4895,-4.4986,-4.5125,-4.5279,-4.5419,-4.551,-4.5677,-4.5752,-4.5752,-4.58,-4.58,-4.58,-4.58,-4.58,-4.58,-4.5974,-4.6496,-4.7366,-4.7521,-4.8353,-3.6782,-3.6227,0.0,-3.5667,-3.4874,0.0,0.0,-3.4566,-3.4566,0.0,0.0,0.0,0.0,0.0,0.0,0.0,0.0,0.0,0.0,0.0,0.0,0.0,0.0,0.0,0.0,-3.3018,-3.3245,-3.3245,-3.3039,-3.2672,-3.1961,-3.1327,-3.0505,-2.9484,-2.8763,-2.8228,-2.7929,-2.771,-2.771,-2.7944,-2.771,-2.786,-2.8319,-2.8076,-2.8352,-2.9042,-2.9042,-2.9332,-2.981,-3.007,-3.0385,-3.0778,-3.1781,-3.2597,-3.3292,-3.3657,-3.4021,-3.4386,-3.4767,-3.4899,-3.4965,-3.533,-3.5959,-3.6738,-3.7719,-3.927,-4.0908,-4.1666,-4.2086,-4.2287,-4.2287,-4.2287,-4.2287,-4.2287,-4.2346,-4.249,-4.2788,-4.3032,-4.3336,-4.3799,-4.4016,-4.4213,-4.4355,-4.4681,-4.4895,-4.4895,-4.4895,-4.4895,-4.4895,-4.4895,-4.4895,-4.4895,-4.4895,-4.4943,-4.5038,-4.526,-4.5438,-4.5493,-4.5692,-4.58,-4.58,-4.58,-4.58,-4.58,-4.58,-4.58,-4.58,-4.58,-4.6013,-4.6457,-4.6902,-4.756,0.0,0.0,0.0,0.0,0.0,-3.5383,0.0,0.0,0.0,0.0,0.0,0.0,0.0,0.0,0.0,0.0,0.0,0.0,0.0,0.0,0.0,0.0,0.0,0.0,0.0,-3.3949,-3.4101,-3.4101,-3.3799,-3.3374,-3.2896,-3.2453,-3.1684,-3.0529,-2.9889,-2.9255,-2.8649,-2.8152,-2.8076,-2.8448,-2.8091,-2.8319,-2.909,-2.8638,-2.8966,-2.9793,-2.9793,-3.007,-3.0526,-3.0526,-3.0526,-3.0576,-3.1146,-3.1851,-3.2564,-3.3309,-3.3673,-3.3905,-3.4634,-3.4899,-3.4899,-3.4899,-3.5575,-3.6601,-3.7878,-3.9801,-4.1622,-4.2145,-4.2287,-4.2287,-4.2287,-4.2287,-4.2287,-4.2287,-4.2387,-4.2588,-4.3032,-4.3231,-4.3557,-4.427,-4.4457,-4.4484,-4.4484,-4.4707,-4.4895,-4.4895,-4.4895,-4.4895,-4.4895,-4.4895,-4.4895,-4.4895,-4.4895,-4.4919,-4.4972,-4.5241,-4.5419,-4.5475,-4.5677,-4.58,-4.58,-4.58,-4.58,-4.58,-4.58,-4.58,-4.58,-4.58,-4.58,-4.5819,-4.6515,-4.6941,0.0,0.0,0.0,0.0,-3.7237,0.0,0.0,0.0,-3.6352,-3.6352,0.0,0.0,0.0,0.0,0.0,0.0,0.0,0.0,0.0,0.0,0.0,0.0,0.0,0.0,0.0,0.0,-3.4101,-3.4101,-3.4284,-3.4301,-3.4137,-3.3389,-3.287,-3.2546,-3.0959,-3.0085,-3.0006,-2.9297,-2.8935,-2.9028,-2.8935,-2.8982,-2.9074,-2.9028,-2.9303,-2.9793,-2.9793,-3.007,-3.0526,-3.0526,-3.0526,-3.0526,-3.0609,-3.109,-3.1835,-3.2547,-3.3226,-3.3905,-3.4634,-3.4899,-3.4899,-3.4899,-3.6114,-3.7912,-3.9599,-4.0762,-4.1622,-4.2145,-4.2287,-4.2287,-4.2287,-4.2287,-4.2287,-4.2287,-4.2328,-4.2472,-4.2977,-4.3369,-4.373,-4.4299,-4.4636,-4.4827,-4.4827,-4.487,-4.4895,-4.4895,-4.4895,-4.4895,-4.4895,-4.4895,-4.4895,-4.4895,-4.4895,-4.5019,-4.5321,-4.5381,-4.5493,-4.5737,-4.5766,-4.58,-4.58,-4.58,-4.58,-4.58,-4.58,-4.58,-4.58,-4.58,-4.58,-4.58,-4.5896,-4.6361,0.0,0.0,0.0,0.0,0.0,0.0,-3.6553,0.0,-3.6492,0.0,0.0,0.0,0.0,0.0,0.0,0.0,-3.626,0.0,0.0,0.0,0.0,0.0,0.0,0.0,0.0,0.0,0.0,0.0,0.0,-3.4497,-3.4399,-3.4153,-3.3825,-3.3463,-3.2417,-3.1678,-3.1229,-3.0227,-2.9877,-3.0154,-2.9448,-2.9393,-2.9881,-2.9617,-2.975,-3.0215,-3.0215,-3.0342,-3.0526,-3.0526,-3.0526,-3.0526,-3.0526,-3.0709,-3.1123,-3.2266,-3.2878,-3.3326,-3.4485,-3.5071,-3.5362,-3.5554,-3.7004,-3.8816,-3.9553,-4.08,-4.2002,-4.2246,-4.2287,-4.2287,-4.2287,-4.2287,-4.2287,-4.2287,-4.2472,-4.2788,-4.33,-4.3684,-4.4095,-4.4584,-4.4802,-4.4895,-4.4895,-4.4895,-4.4895,-4.4895,-4.4895,-4.4895,-4.4895,-4.4895,-4.4895,-4.4895,-4.4991,-4.5129,-4.5279,-4.5438,-4.5563,-4.5677,-4.5771,-4.58,-4.58,-4.58,-4.58,-4.58,-4.58,-4.58,-4.58,-4.58,-4.58,-4.58,-4.58,-4.5993,-3.9768,0.0,0.0,0.0,0.0,0.0,0.0,0.0,0.0,0.0,0.0,0.0,0.0,0.0,-3.6492,-3.6492,0.0,-3.6828,0.0,0.0,0.0,0.0,0.0,0.0,0.0,0.0,0.0,-3.4101,-3.43,-3.4448,-3.4448,-3.4594,-3.4508,-3.4057,-3.3545,-3.3043,-3.249,-3.1433,-3.0965,-3.1059,-3.0209,-3.0048,-3.0485,-3.0156,-3.0156,-3.0526,-3.0526,-3.0526,-3.0526,-3.0526,-3.0526,-3.0543,-3.0742,-3.0824,-3.0974,-3.2232,-3.268,-3.294,-3.4555,-3.5407,-3.582,-3.6274,-3.7707,-3.9311,-3.9435,-4.0778,-4.2287,-4.2287,-4.2287,-4.2287,-4.2287,-4.2287,-4.2328,-4.2391,-4.2613,-4.2995,-4.3568,-4.3924,-4.4289,-4.4802,-4.4895,-4.4895,-4.4895,-4.4895,-4.4895,-4.4895,-4.4895,-4.4895,-4.4895,-4.4895,-4.4895,-4.4895,-4.508,-4.5213,-4.5237,-4.5456,-4.5613,-4.5645,-4.5757,-4.58,-4.58,-4.58,-4.58,-4.58,-4.58,-4.58,-4.58,-4.58,-4.58,-4.58,-4.58,-4.5819,0.0,0.0,0.0,-3.8315,0.0,0.0,0.0,0.0,-3.6492,0.0,0.0,0.0,0.0,-3.6492,-3.6492,-3.6492,-3.6754,0.0,0.0,0.0,0.0,0.0,0.0,0.0,0.0,0.0,0.0,-3.4101,-3.425,-3.43,-3.43,-3.4546,-3.4691,-3.4658,-3.406,-3.3789,-3.3756,-3.3027,-3.2255,-3.1576,-3.156,-3.1163,-3.0526,-3.0468,-3.0485,-3.0526,-3.0526,-3.0526,-3.0526,-3.0526,-3.0526,-3.0551,-3.1262,-3.1543,-3.1686,-3.2415,-3.268,-3.2984,-3.4931,-3.5864,-3.6274,-3.6741,-3.797,-3.9353,-3.9757,-4.102,-4.2287,-4.2287,-4.2287,-4.2287,-4.2287,-4.2287,-4.2369,-4.2634,-4.2711,-4.294,-4.3812,-4.4016,-4.4165,-4.4777,-4.4895,-4.4895,-4.4895,-4.4895,-4.4895,-4.4895,-4.4895,-4.4895,-4.4895,-4.4895,-4.4895,-4.4895,-4.508,-4.5237,-4.5381,-4.5528,-4.5661,-4.5786,-4.58,-4.58,-4.58,-4.58,-4.58,-4.58,-4.58,-4.58,-4.58,-4.58,-4.58,-4.58,-4.58,-4.5858,0.0,0.0,-3.8345,-3.787,0.0,0.0,0.0,0.0,0.0,0.0,0.0,0.0,0.0,-3.6492,-3.6492,-3.6492,-3.6907,-3.7433,0.0,0.0,0.0,0.0,0.0,0.0,0.0,0.0,0.0,-3.4578,-3.4818,-3.4866,0.0,-3.4787,-3.4947,-3.4851,-3.4651,-3.4518,-3.4518,-3.3789,-3.3292,-3.3044,-3.2083,-3.1444,-3.1196,-3.0742,-3.0526,-3.0526,-3.0526,-3.0526,-3.0526,-3.0526,-3.0808,-3.1229,-3.1477,-3.1918,-3.2415,-3.3143,-3.3634,-3.4165,-3.5845,-3.6563,-3.6741,-3.7206,-3.8439,-3.9718,-3.9875,-4.102,-4.2287,-4.2287,-4.2287,-4.2287,-4.2287,-4.2432,-4.2613,-4.2673,-4.3087,-4.3523,-4.3924,-4.4242,-4.4549,-4.4846,-4.4895,-4.4895,-4.4895,-4.4895,-4.4895,-4.4895,-4.4895,-4.4895,-4.4895,-4.4895,-4.4943,-4.5061,-4.5237,-4.5381,-4.5528,-4.5661,-4.5737,-4.58,-4.58,-4.58,-4.58,-4.58,-4.58,-4.58,-4.58,-4.58,-4.58,-4.58,-4.5808,-4.588,-4.5902,-4.5941,-3.9122,-3.8448,0.0,-3.7615,-3.6999,0.0,-3.6492,0.0,0.0,0.0,0.0,0.0,0.0,-3.6662,-3.6554,-3.6785,-3.7298,-3.787,0.0,-3.9348,0.0,0.0,0.0,0.0,0.0,0.0,-3.6061,-3.498,-3.5148,-3.5131,0.0,0.0,-3.527,-3.5178,-3.5148,-3.5148,-3.5148,-3.4512,-3.4054,-3.3773,-3.2845,-3.2249,-3.1984,-3.1461,-3.1246,-3.1288,-3.1246,-3.1203,-3.1203,-3.1203,-3.157,-3.2077,-3.2343,-3.2813,-3.3395,-3.3879,-3.4597,-3.5511,-3.6527,-3.7034,-3.7206,-3.7503,-3.8469,-3.9575,-3.9825,-4.0824,-4.193,-4.2216,-4.2287,-4.2328,-4.2432,-4.2573,-4.2732,-4.2958,-4.3371,-4.3823,-4.4114,-4.443,-4.4685,-4.487,-4.4895,-4.4895,-4.4895,-4.4895,-4.4895,-4.4895,-4.4895,-4.4895,-4.4895,-4.4943,-4.5057,-4.5192,-4.5361,-4.5528,-4.5661,-4.5737,-4.58,-4.58,-4.58,-4.58,-4.58,-4.58,-4.58,-4.58,-4.58,-4.58,-4.58,-4.5808,-4.5861,-4.5944,-4.5998,-4.6005]}]]